[[{"header":{"parameterUnit":"m.s-1","parameterCategory":1,"la1":30.6,"la2":28.766,"lo1":-90.7593,"lo2":-88.6598,"dx":0.0162,"dy":0.0183,"nx":116,"ny":114,"refTime":"2022-12-17T06:00:00:Z","depth":0,"parameterNumber":2,"parameterNumberName":"U-component_of_WINDS"},"data":[0.0,0.0,0.0,0.0,0.0,0.0,0.0,0.0,0.0,0.0,0.0,0.0,0.0,0.0,0.0,0.0,0.0,0.0,0.0,0.0,0.0,0.0,0.0,0.0,0.0,0.0,0.0,0.0,0.0,0.0,0.0,0.0,0.0,0.0,0.0,0.0,0.0,0.0,0.0,0.0,0.0,0.0,0.0,0.0,0.0,0.0,0.0,0.0,0.0,0.0,0.0,0.0,0.0,0.0,0.0,0.0,0.0,0.0,0.0,0.0,0.0,0.0,0.0,0.0,0.0,0.0,0.0,0.0,0.0,0.0,0.0,0.0,0.0,0.0,0.0,0.0,0.0,0.0,0.0,0.0,0.0,0.0,0.0,0.0,0.0,0.0,0.0,0.0,0.0,0.0,0.0,0.0,0.0,0.0,0.0,0.0,0.0,0.0,0.0,0.0,0.0,0.0,0.0,0.0,0.0,0.0,0.0,0.0,0.0,0.0,0.0,0.0,0.0,0.0,0.0,0.0,0.0,0.0,0.0,0.0,0.0,0.0,0.0,0.0,0.0,0.0,0.0,0.0,0.0,0.0,0.0,0.0,0.0,0.0,0.0,0.0,0.0,0.0,0.0,0.0,0.0,0.0,0.0,0.0,0.0,0.0,0.0,0.0,0.0,0.0,0.0,0.0,0.0,0.0,0.0,0.0,0.0,0.0,0.0,0.0,0.0,0.0,0.0,0.0,0.0,0.0,0.0,0.0,0.0,0.0,0.0,0.0,0.0,0.0,0.0,0.0,0.0,0.0,0.0,0.0,0.0,0.0,0.0,0.0,0.0,0.0,0.0,0.0,0.0,0.0,0.0,0.0,0.0,0.0,0.0,0.0,0.0,0.0,0.0,0.0,0.0,0.0,0.0,0.0,0.0,0.0,0.0,0.0,0.0,0.0,0.0,0.0,0.0,0.0,0.0,0.0,0.0,0.0,0.0,0.0,0.0,0.0,0.0,0.0,0.0,0.0,0.0,0.0,0.0,0.0,0.0,0.0,0.0,0.0,0.0,0.0,0.0,0.0,0.0,0.0,0.0,0.0,0.0,0.0,0.0,0.0,0.0,0.0,0.0,0.0,0.0,0.0,0.0,0.0,0.0,0.0,0.0,0.0,0.0,0.0,0.0,0.0,0.0,0.0,0.0,0.0,0.0,0.0,0.0,0.0,0.0,0.0,0.0,0.0,0.0,0.0,0.0,0.0,0.0,0.0,0.0,0.0,0.0,0.0,0.0,0.0,0.0,0.0,0.0,0.0,0.0,0.0,0.0,0.0,0.0,0.0,0.0,0.0,0.0,0.0,0.0,0.0,0.0,0.0,0.0,0.0,0.0,0.0,0.0,0.0,0.0,0.0,0.0,0.0,0.0,0.0,0.0,0.0,0.0,0.0,0.0,0.0,0.0,0.0,0.0,0.0,0.0,0.0,0.0,0.0,0.0,0.0,0.0,0.0,0.0,0.0,0.0,0.0,0.0,0.0,0.0,0.0,0.0,0.0,0.0,0.0,0.0,0.0,0.0,0.0,0.0,0.0,0.0,0.0,0.0,0.0,0.0,0.0,0.0,0.0,0.0,0.0,0.0,0.0,0.0,0.0,0.0,0.0,0.0,0.0,0.0,0.0,0.0,0.0,0.0,0.0,0.0,0.0,0.0,0.0,0.0,0.0,0.0,0.0,0.0,0.0,0.0,0.0,0.0,0.0,0.0,0.0,0.0,0.0,0.0,0.0,0.0,0.0,0.0,0.0,0.0,0.0,0.0,0.0,0.0,0.0,0.0,0.0,0.0,0.0,0.0,0.0,0.0,0.0,0.0,0.0,0.0,0.0,0.0,0.0,0.0,0.0,0.0,0.0,0.0,0.0,0.0,0.0,0.0,0.0,0.0,0.0,0.0,0.0,0.0,0.0,0.0,0.0,0.0,0.0,0.0,0.0,0.0,0.0,0.0,0.0,0.0,0.0,0.0,0.0,0.0,0.0,0.0,0.0,0.0,0.0,0.0,0.0,0.0,0.0,0.0,0.0,0.0,0.0,0.0,0.0,0.0,0.0,0.0,0.0,0.0,0.0,0.0,0.0,0.0,0.0,0.0,0.0,0.0,0.0,0.0,0.0,0.0,0.0,0.0,0.0,0.0,0.0,0.0,0.0,0.0,0.0,0.0,0.0,0.0,0.0,0.0,0.0,0.0,0.0,0.0,0.0,0.0,0.0,0.0,0.0,0.0,0.0,0.0,0.0,0.0,0.0,0.0,0.0,0.0,0.0,0.0,0.0,0.0,0.0,0.0,0.0,0.0,0.0,0.0,0.0,0.0,0.0,0.0,0.0,0.0,0.0,0.0,0.0,0.0,0.0,0.0,0.0,0.0,0.0,0.0,0.0,0.0,0.0,0.0,0.0,0.0,0.0,0.0,0.0,0.0,0.0,0.0,0.0,0.0,0.0,0.0,0.0,0.0,0.0,0.0,0.0,0.0,0.0,0.0,0.0,0.0,0.0,0.0,0.0,0.0,0.0,0.0,0.0,0.0,0.0,0.0,0.0,0.0,0.0,0.0,0.0,0.0,0.0,0.0,0.0,0.0,0.0,0.0,0.0,0.0,0.0,0.0,0.0,0.0,0.0,0.0,0.0,0.0,0.0,0.0,0.0,0.0,0.0,0.0,0.0,0.0,0.0,0.0,0.0,0.0,0.0,0.0,0.0,0.0,0.0,0.0,0.0,0.0,0.0,0.0,0.0,0.0,0.0,0.0,0.0,0.0,0.0,0.0,0.0,0.0,0.0,0.0,0.0,0.0,0.0,0.0,0.0,0.0,0.0,0.0,0.0,0.0,0.0,0.0,0.0,0.0,0.0,0.0,0.0,0.0,0.0,0.0,0.0,0.0,0.0,0.0,0.0,0.0,0.0,0.0,0.0,0.0,0.0,0.0,0.0,0.0,0.0,0.0,0.0,0.0,0.0,0.0,0.0,0.0,0.0,0.0,0.0,0.0,0.0,0.0,0.0,0.0,0.0,0.0,0.0,0.0,0.0,0.0,0.0,0.0,0.0,0.0,0.0,0.0,0.0,0.0,0.0,0.0,0.0,0.0,0.0,0.0,0.0,0.0,0.0,0.0,0.0,0.0,0.0,0.0,0.0,0.0,0.0,0.0,0.0,0.0,0.0,0.0,0.0,0.0,0.0,0.0,0.0,0.0,0.0,0.0,0.0,0.0,0.0,0.0,0.0,0.0,0.0,0.0,0.0,0.0,0.0,0.0,0.0,0.0,0.0,0.0,0.0,0.0,0.0,0.0,0.0,0.0,0.0,0.0,0.0,0.0,0.0,0.0,0.0,0.0,0.0,0.0,0.0,0.0,0.0,0.0,0.0,0.0,0.0,0.0,0.0,0.0,0.0,0.0,0.0,0.0,0.0,0.0,0.0,0.0,0.0,0.0,0.0,0.0,0.0,0.0,0.0,0.0,0.0,0.0,0.0,0.0,0.0,0.0,0.0,0.0,0.0,0.0,0.0,0.0,0.0,0.0,0.0,0.0,0.0,0.0,0.0,0.0,0.0,0.0,0.0,0.0,0.0,0.0,0.0,0.0,0.0,0.0,0.0,0.0,0.0,0.0,0.0,0.0,0.0,0.0,0.0,0.0,0.0,0.0,0.0,0.0,0.0,0.0,0.0,0.0,0.0,0.0,0.0,0.0,0.0,0.0,0.0,0.0,0.0,0.0,0.0,0.0,0.0,0.0,0.0,0.0,0.0,0.0,0.0,0.0,0.0,0.0,0.0,0.0,0.0,0.0,0.0,0.0,0.0,0.0,0.0,0.0,0.0,0.0,0.0,0.0,0.0,0.0,0.0,0.0,0.0,0.0,0.0,0.0,0.0,0.0,0.0,0.0,0.0,0.0,0.0,0.0,0.0,0.0,0.0,0.0,0.0,0.0,0.0,0.0,0.0,0.0,0.0,0.0,0.0,0.0,0.0,0.0,0.0,0.0,0.0,0.0,0.0,0.0,0.0,0.0,0.0,0.0,0.0,0.0,0.0,0.0,0.0,0.0,0.0,0.0,0.0,0.0,0.0,0.0,0.0,0.0,0.0,0.0,0.0,0.0,0.0,0.0,0.0,0.0,0.0,0.0,0.0,0.0,0.0,0.0,0.0,0.0,0.0,0.0,0.0,0.0,0.0,0.0,0.0,0.0,0.0,0.0,0.0,0.0,0.0,0.0,0.0,0.0,0.0,0.0,0.0,0.0,0.0,0.0,0.0,0.0,0.0,0.0,0.0,0.0,0.0,0.0,0.0,0.0,0.0,0.0,0.0,0.0,0.0,0.0,0.0,0.0,0.0,0.0,0.0,0.0,0.0,0.0,0.0,0.0,0.0,0.0,0.0,0.0,0.0,0.0,0.0,0.0,0.0,0.0,0.0,0.0,0.0,0.0,0.0,0.0,0.0,0.0,0.0,0.0,0.0,0.0,0.0,0.0,0.0,0.0,0.0,0.0,0.0,0.0,0.0,0.0,0.0,0.0,0.0,0.0,0.0,0.0,0.0,0.0,0.0,0.0,0.0,0.0,0.0,0.0,0.0,0.0,0.0,0.0,0.0,0.0,0.0,0.0,0.0,0.0,0.0,0.0,0.0,0.0,0.0,0.0,0.0,0.0,0.0,0.0,0.0,0.0,0.0,0.0,0.0,0.0,0.0,0.0,0.0,0.0,0.0,0.0,0.0,0.0,0.0,0.0,0.0,0.0,0.0,0.0,0.0,0.0,0.0,0.0,0.0,0.0,0.0,0.0,0.0,0.0,0.0,0.0,0.0,0.0,0.0,0.0,0.0,0.0,0.0,0.0,0.0,0.0,0.0,0.0,0.0,0.0,0.0,0.0,0.0,0.0,0.0,0.0,0.0,0.0,0.0,0.0,0.0,0.0,0.0,0.0,0.0,0.0,0.0,0.0,0.0,0.0,0.0,0.0,0.0,0.0,0.0,0.0,0.0,0.0,0.0,0.0,0.0,0.0,0.0,0.0,0.0,0.0,0.0,0.0,0.0,0.0,0.0,0.0,0.0,0.0,0.0,0.0,0.0,0.0,0.0,0.0,0.0,0.0,0.0,0.0,0.0,0.0,0.0,0.0,0.0,0.0,0.0,0.0,0.0,0.0,0.0,0.0,0.0,0.0,0.0,0.0,0.0,0.0,0.0,0.0,0.0,0.0,0.0,0.0,0.0,0.0,0.0,0.0,0.0,0.0,0.0,0.0,0.0,0.0,0.0,0.0,0.0,0.0,0.0,0.0,0.0,0.0,0.0,0.0,0.0,0.0,0.0,0.0,0.0,0.0,0.0,0.0,0.0,0.0,0.0,0.0,0.0,0.0,0.0,0.0,0.0,0.0,0.0,0.0,0.0,0.0,0.0,0.0,0.0,0.0,0.0,0.0,0.0,0.0,0.0,0.0,0.0,0.0,0.0,0.0,0.0,0.0,0.0,0.0,0.0,0.0,0.0,0.0,0.0,0.0,0.0,0.0,0.0,0.0,0.0,0.0,0.0,0.0,0.0,0.0,0.0,0.0,0.0,0.0,0.0,0.0,0.0,0.0,0.0,0.0,0.0,0.0,0.0,0.0,0.0,0.0,0.0,0.0,0.0,0.0,0.0,0.0,0.0,0.0,0.0,0.0,0.0,0.0,0.0,0.0,0.0,0.0,0.0,0.0,0.0,0.0,0.0,0.0,0.0,0.0,0.0,0.0,0.0,0.0,0.0,0.0,0.0,0.0,0.0,0.0,0.0,0.0,0.0,0.0,0.0,0.0,0.0,0.0,0.0,0.0,0.0,0.0,0.0,0.0,0.0,0.0,0.0,0.0,0.0,0.0,0.0,0.0,0.0,0.0,0.0,0.0,0.0,0.0,0.0,0.0,0.0,0.0,0.0,0.0,0.0,0.0,0.0,0.0,0.0,0.0,0.0,0.0,0.0,0.0,0.0,0.0,0.0,0.0,0.0,0.0,0.0,0.0,0.0,0.0,0.0,0.0,0.0,0.0,0.0,0.0,0.0,0.0,0.0,0.0,0.0,0.0,0.0,0.0,0.0,0.0,0.0,0.0,0.0,0.0,0.0,6.639,6.4941,0.0,0.0,0.0,0.0,0.0,0.0,0.0,0.0,0.0,0.0,0.0,0.0,0.0,0.0,0.0,0.0,0.0,0.0,0.0,0.0,0.0,0.0,0.0,4.4355,4.5068,4.6136,4.6331,0.0,0.0,0.0,0.0,0.0,0.0,0.0,0.0,0.0,4.7954,4.841,4.9488,5.1212,5.3506,5.2625,5.1853,5.1165,0.0,0.0,0.0,0.0,0.0,0.0,0.0,0.0,0.0,0.0,0.0,0.0,0.0,0.0,0.0,0.0,0.0,0.0,0.0,0.0,0.0,0.0,0.0,0.0,0.0,0.0,0.0,0.0,0.0,0.0,0.0,0.0,0.0,0.0,0.0,0.0,0.0,0.0,0.0,0.0,0.0,0.0,0.0,0.0,0.0,0.0,0.0,0.0,0.0,0.0,0.0,0.0,0.0,0.0,0.0,0.0,0.0,0.0,0.0,0.0,0.0,0.0,0.0,0.0,0.0,0.0,0.0,0.0,0.0,0.0,6.7569,6.6462,0.0,0.0,0.0,0.0,0.0,0.0,0.0,0.0,0.0,0.0,0.0,0.0,0.0,0.0,0.0,0.0,0.0,0.0,0.0,0.0,0.0,4.3959,4.4711,4.5068,4.5973,4.7809,4.7638,4.8014,4.9311,4.8972,0.0,0.0,0.0,0.0,5.0575,5.0402,5.0903,5.2118,5.3335,5.5414,5.8275,5.9072,5.813,5.5667,5.3361,0.0,0.0,0.0,0.0,0.0,0.0,0.0,0.0,0.0,0.0,0.0,0.0,0.0,0.0,0.0,0.0,0.0,0.0,0.0,0.0,0.0,0.0,0.0,0.0,0.0,0.0,0.0,0.0,0.0,0.0,0.0,0.0,0.0,0.0,0.0,0.0,0.0,0.0,0.0,0.0,0.0,0.0,0.0,0.0,0.0,0.0,0.0,0.0,0.0,0.0,0.0,0.0,0.0,0.0,0.0,0.0,0.0,0.0,0.0,0.0,0.0,0.0,0.0,6.9179,6.9575,6.961,7.0375,7.1073,7.1541,6.8912,6.8493,6.9436,6.7345,0.0,0.0,0.0,0.0,0.0,0.0,0.0,0.0,0.0,0.0,0.0,0.0,0.0,0.0,0.0,0.0,0.0,0.0,0.0,4.4675,4.5562,4.6897,4.7543,4.7017,4.8373,4.9285,4.9395,5.0071,5.0407,5.0263,5.0347,5.067,5.1257,5.1223,5.2313,5.4541,5.8,6.0629,6.2417,6.3237,6.3744,6.3816,5.8709,5.6029,5.5281,0.0,0.0,0.0,0.0,0.0,0.0,0.0,0.0,0.0,0.0,0.0,0.0,0.0,0.0,0.0,0.0,0.0,0.0,0.0,0.0,0.0,0.0,0.0,0.0,0.0,0.0,0.0,0.0,0.0,0.0,0.0,0.0,0.0,0.0,0.0,0.0,0.0,0.0,0.0,0.0,0.0,6.2196,6.0996,0.0,0.0,0.0,0.0,0.0,0.0,0.0,0.0,0.0,0.0,0.0,0.0,0.0,6.7417,6.7896,6.8506,6.9184,6.9897,7.1274,7.1952,7.1986,7.2734,7.3108,7.3186,7.2768,0.0,7.1862,7.0922,0.0,0.0,0.0,0.0,0.0,0.0,0.0,0.0,0.0,0.0,0.0,0.0,0.0,0.0,0.0,0.0,0.0,0.0,0.0,0.0,0.0,4.8786,4.981,5.0753,5.1615,5.221,5.2517,5.2645,5.2608,5.2319,5.2364,5.2717,5.3415,5.4253,5.6284,5.9621,6.1779,6.3889,6.5917,6.6243,6.6605,6.6858,6.4359,6.1571,5.8637,5.7478,0.0,0.0,0.0,0.0,0.0,0.0,0.0,0.0,0.0,0.0,0.0,0.0,0.0,0.0,0.0,0.0,0.0,0.0,0.0,0.0,0.0,0.0,0.0,0.0,0.0,0.0,0.0,0.0,0.0,0.0,0.0,0.0,0.0,0.0,0.0,0.0,0.0,0.0,0.0,6.1259,6.2085,6.1941,6.1907,6.2076,0.0,0.0,0.0,0.0,0.0,0.0,0.0,0.0,0.0,7.0534,7.0872,7.1447,7.2259,7.2631,7.3206,7.395,7.4627,7.5134,7.5574,7.6318,7.6657,7.6657,7.7096,7.7063,7.6521,7.3274,7.1718,7.1379,0.0,0.0,0.0,0.0,7.1356,7.1569,0.0,0.0,0.0,0.0,0.0,0.0,0.0,0.0,0.0,0.0,0.0,0.0,5.0059,5.113,5.2379,5.4098,5.452,5.4752,5.4989,5.503,5.4871,5.442,5.4808,5.528,5.5874,5.7964,6.0701,6.412,6.5352,6.6931,6.8908,6.9089,6.9197,6.9197,6.9197,6.6626,6.2281,6.1485,6.0086,5.8383,0.0,0.0,0.0,0.0,0.0,0.0,0.0,0.0,0.0,0.0,0.0,0.0,0.0,0.0,0.0,0.0,0.0,0.0,0.0,0.0,0.0,0.0,0.0,0.0,0.0,0.0,0.0,0.0,0.0,0.0,0.0,0.0,0.0,0.0,0.0,0.0,0.0,6.194,6.2784,6.319,6.3734,6.4241,0.0,0.0,0.0,0.0,0.0,0.0,7.1548,7.2326,7.3308,7.4617,7.483,7.5473,7.6555,7.6555,7.686,7.7468,7.7468,7.7638,7.8034,7.8585,7.8822,7.8855,7.96,7.9938,7.9634,7.5912,7.439,7.439,7.4187,7.4073,7.4047,7.4599,7.4748,7.4853,0.0,0.0,0.0,0.0,0.0,0.0,0.0,0.0,0.0,0.0,0.0,5.1793,5.2565,5.4135,5.5074,5.4964,5.5867,5.6048,5.5062,5.6515,5.7037,5.614,5.7557,5.8306,5.8251,6.2041,6.4903,6.6605,6.8974,7.0517,7.135,7.2094,7.2456,7.2456,7.2456,7.0263,6.646,6.5627,6.5229,6.4867,6.1774,0.0,0.0,0.0,0.0,0.0,0.0,0.0,0.0,0.0,0.0,0.0,0.0,0.0,0.0,0.0,0.0,0.0,0.0,0.0,0.0,0.0,0.0,0.0,0.0,0.0,0.0,0.0,0.0,0.0,0.0,0.0,0.0,0.0,0.0,0.0,0.0,0.0,0.0,6.5596,6.7455,0.0,0.0,0.0,0.0,7.1019,7.1785,7.3172,7.5303,7.6183,7.6961,7.7764,7.845,7.8831,7.8932,7.8932,7.8957,7.8991,7.8991,7.8653,7.8,7.8034,7.8044,7.8102,7.8855,7.916,7.9169,7.9634,7.9803,7.9735,7.9058,7.858,7.8363,7.9162,7.926,7.9202,0.0,0.0,0.0,0.0,0.0,4.3679,4.4702,4.5323,4.6574,4.9059,5.1193,5.3003,5.4318,5.6803,5.8519,5.8842,6.0142,6.0783,6.031,6.0936,6.09,5.9957,6.0465,6.1756,6.378,6.6221,6.8488,7.0589,7.1458,7.2291,7.3036,7.3325,7.347,7.347,7.347,7.2674,7.1225,6.8887,6.7329,6.6279,6.512,6.3744,0.0,0.0,0.0,0.0,0.0,0.0,0.0,0.0,0.0,0.0,0.0,0.0,0.0,0.0,0.0,0.0,0.0,0.0,0.0,0.0,0.0,0.0,0.0,0.0,0.0,0.0,0.0,0.0,0.0,0.0,0.0,0.0,0.0,0.0,0.0,0.0,0.0,6.787,6.9451,0.0,7.077,7.2157,7.3544,7.483,7.6454,7.7773,7.8551,7.9329,7.9634,7.9431,7.9667,7.9803,7.9803,7.9803,8.0276,8.1224,8.1224,8.157,8.2272,8.2272,8.2272,8.2272,8.2517,8.2514,8.239,8.2686,8.1779,8.0183,8.0242,8.019,8.0128,8.0493,8.0248,7.9882,0.0,0.0,0.0,0.0,4.3359,4.3833,4.5141,4.598,4.7477,5.0273,5.267,5.4843,5.667,5.9224,6.1176,6.2082,6.3162,6.3752,6.3613,6.395,6.3878,6.3237,6.373,6.5504,6.8742,6.9575,7.0987,7.3108,7.3667,7.4066,7.4339,7.5136,7.5063,7.4303,7.4593,7.4412,7.376,7.1675,7.0009,6.8742,6.7945,6.6656,6.5134,0.0,0.0,0.0,0.0,0.0,0.0,0.0,0.0,0.0,0.0,0.0,0.0,0.0,0.0,0.0,0.0,0.0,0.0,0.0,0.0,0.0,0.0,0.0,0.0,0.0,0.0,0.0,0.0,0.0,0.0,0.0,0.0,0.0,0.0,6.7286,6.8977,6.9755,7.1819,7.3274,7.3477,7.51,7.6657,7.7908,7.916,7.9938,8.0175,8.0885,8.119,8.0953,8.119,8.1426,8.1697,8.1697,8.2069,8.278,8.278,8.3152,8.3836,8.3836,8.3836,8.387,8.4106,8.4108,8.3874,8.411,8.3086,8.1454,8.1742,8.1811,8.1745,8.1803,8.1485,8.101,0.0,0.0,0.0,4.3376,4.3394,4.3651,4.4381,4.6611,4.8739,5.023,5.4054,5.7436,5.9618,6.1418,6.2993,6.4352,6.4631,6.4682,6.4555,6.5301,6.5736,6.5736,6.7329,6.9596,7.2674,7.2038,7.242,7.3977,7.5551,7.5913,7.5208,7.7543,7.7398,7.5172,7.5949,7.5442,7.3977,7.3941,7.3506,7.2601,7.0242,6.93,6.9011,0.0,0.0,0.0,0.0,0.0,0.0,0.0,0.0,0.0,0.0,0.0,0.0,0.0,0.0,0.0,0.0,0.0,0.0,0.0,0.0,0.0,0.0,0.0,0.0,0.0,0.0,0.0,0.0,0.0,0.0,0.0,0.0,0.0,6.9282,6.9857,7.0635,7.1413,7.4728,7.6657,7.5912,7.7841,7.9464,8.0209,7.9634,7.9566,8.0276,8.0953,8.1663,8.2408,8.3084,8.3828,8.4512,8.4512,8.4174,8.349,8.349,8.3152,8.2475,8.2475,8.2475,8.2509,8.3219,8.3373,8.3174,8.3881,8.4021,8.3775,8.3775,8.3582,8.3304,8.3304,8.3108,8.2883,0.0,0.0,0.0,4.326,4.3725,4.4592,4.5923,4.765,4.9836,5.2762,5.5493,5.808,6.0391,6.2671,6.4592,6.6004,6.7229,6.7932,6.7888,6.8648,6.9083,6.9083,7.1132,7.2674,7.3543,7.45,7.5189,7.5623,7.6058,7.6167,7.5985,7.6637,7.6601,7.5985,7.6203,7.6058,7.5587,7.5027,7.4955,7.508,7.269,7.1386,7.0734,0.0,0.0,0.0,0.0,0.0,0.0,0.0,0.0,0.0,0.0,0.0,0.0,0.0,0.0,0.0,0.0,0.0,0.0,0.0,0.0,0.0,0.0,0.0,0.0,0.0,0.0,0.0,0.0,0.0,0.0,0.0,7.0996,7.2157,7.0872,7.2699,7.4492,7.527,7.6724,7.801,7.8889,7.9532,8.0445,8.1697,8.2103,8.2374,8.2577,8.278,8.2746,8.2382,8.2611,8.2813,8.299,8.299,8.3186,8.349,8.349,8.3659,8.4005,8.4005,8.4005,8.4005,8.3995,8.3854,8.3582,8.3564,8.3388,8.3165,8.336,8.3388,8.3276,8.308,8.294,8.2817,0.0,0.0,0.0,4.3169,4.3806,4.4899,4.6511,4.8052,5.0369,5.4045,5.62,5.8574,6.1663,6.3498,6.5278,6.7148,6.8162,6.8974,6.9663,7.0749,7.1639,7.2327,7.3687,7.4701,7.5406,7.5985,7.6637,7.7289,7.7289,7.7289,7.7326,7.8014,7.776,7.6818,7.7144,7.6927,7.6292,7.5804,7.5877,7.6183,7.4754,7.374,7.2927,7.2146,7.0669,6.8886,6.8094,6.7079,6.5915,6.4679,0.0,0.0,0.0,0.0,0.0,0.0,0.0,0.0,0.0,0.0,0.0,0.0,0.0,0.0,0.0,0.0,0.0,0.0,0.0,0.0,0.0,0.0,0.0,0.0,7.3375,7.4356,7.4153,7.5337,7.6623,7.7705,7.8483,7.9261,8.0107,8.0479,8.1122,8.2306,8.2509,8.2712,8.3016,8.305,8.2983,8.2881,8.2881,8.3016,8.3295,8.3295,8.3558,8.3964,8.4169,8.4487,8.4899,8.5094,8.5208,8.518,8.5043,8.4795,8.4484,8.4288,8.4067,8.3778,0.0,0.0,0.0,0.0,8.3579,8.3778,4.3205,4.3224,4.3324,4.3259,4.3986,4.5077,4.6593,4.8193,5.0653,5.4614,5.6443,5.8936,6.3053,6.4045,6.5446,6.8054,6.8271,6.8995,7.0677,7.2146,7.3615,7.5027,7.5281,7.6041,7.747,7.6891,7.7253,7.8702,7.8702,7.8702,7.8738,8.0151,7.968,7.7651,7.8303,7.7726,7.6302,7.6193,7.6159,7.6146,7.6146,7.5711,7.5002,7.4188,7.2528,7.0519,6.9629,6.8398,6.7074,6.6303,0.0,0.0,0.0,0.0,0.0,0.0,0.0,0.0,0.0,0.0,0.0,0.0,0.0,0.0,0.0,0.0,0.0,0.0,0.0,0.0,0.0,0.0,0.0,0.0,7.554,7.6623,7.817,7.7807,7.7841,7.9092,7.9803,8.0276,8.0445,8.0953,8.1629,8.2475,8.19,8.1866,8.2611,8.2652,0.0,0.0,0.0,8.4065,8.4715,8.4817,8.485,8.4797,8.5229,8.5428,8.5407,8.5829,8.6018,8.6018,8.5961,8.5758,8.5497,8.5468,8.5301,8.497,8.3645,8.3148,8.3215,8.3877,8.454,8.5103,4.3679,4.3697,4.4162,4.4078,4.5258,4.6557,4.7528,4.8954,5.1363,5.5438,5.6708,5.9002,6.3677,6.4315,6.5895,6.9626,6.9952,7.0879,7.3072,7.4122,7.4774,7.51,7.6331,7.7181,7.747,7.7977,7.8376,7.8702,7.8702,7.8702,7.8702,7.9028,7.8919,7.8448,7.7941,7.7178,7.6266,7.5603,7.531,7.5257,7.5257,7.5139,7.4959,7.4172,7.3134,7.1912,7.0506,6.9815,6.9405,6.865,6.8882,6.9397,6.8606,6.8063,0.0,0.0,0.0,0.0,0.0,0.0,0.0,0.0,0.0,0.0,0.0,0.0,0.0,0.0,0.0,0.0,0.0,0.0,0.0,7.6284,7.757,7.8957,8.0445,8.0538,8.031,8.0006,8.0107,8.0682,8.1866,8.1562,8.1832,8.3186,8.3152,8.3389,8.414,8.4174,8.4242,8.4377,8.5012,8.5418,8.5554,8.6163,8.6331,8.6044,8.6157,0.0,8.5873,8.5951,8.6018,8.599,8.573,8.5554,8.5468,8.5243,8.5161,8.507,8.4805,8.4672,8.4705,8.4838,8.5003,8.5103,4.4661,4.4989,4.5525,4.5496,4.6118,4.6876,4.7664,4.9119,5.1427,5.5063,5.6175,5.813,6.215,6.3309,6.4953,6.7743,6.9792,7.1784,7.376,7.4665,7.5281,7.5696,7.6456,7.7072,7.747,7.7869,7.8484,7.9318,7.9318,7.9499,7.9897,7.9897,7.9431,7.8638,7.8243,7.7318,7.6112,7.5317,7.498,7.4958,7.4978,7.4747,7.4361,7.4422,7.3405,7.1847,7.1082,7.0317,6.952,6.8708,6.9209,7.0064,6.9246,6.9535,7.0033,0.0,0.0,0.0,0.0,0.0,0.0,0.0,0.0,0.0,0.0,0.0,0.0,0.0,0.0,7.3984,7.5473,0.0,7.7198,7.8382,7.916,8.0175,8.1629,8.1832,8.1832,8.1832,8.1528,8.1596,8.234,8.2069,8.2306,8.3422,8.349,8.3998,8.5148,8.5215,8.5384,8.573,8.6163,8.6332,8.6332,8.6738,8.6708,8.6398,8.7004,8.7146,8.6865,8.7454,8.7699,8.7699,8.7519,8.743,8.743,8.7315,8.7256,8.7256,8.7256,8.6593,8.5633,8.5633,8.5865,8.6229,4.6442,4.6812,4.7036,4.6729,4.672,4.7001,4.7797,4.9159,5.1187,5.4291,5.5595,5.7333,6.0254,6.2295,6.4229,6.6134,6.9756,7.2545,7.3832,7.481,7.5696,7.6509,7.6529,7.6891,7.7724,7.7724,7.8448,7.9897,7.9897,8.0207,8.0858,8.0858,8.0021,7.8542,7.84,7.7378,7.572,7.4991,7.4491,7.4188,7.4264,7.4038,7.3718,7.4274,7.3379,7.1797,7.166,7.0883,6.9823,6.9045,6.9599,7.0469,6.9715,7.0634,7.1942,7.1454,7.1753,0.0,0.0,0.0,0.0,0.0,0.0,0.0,0.0,7.3815,7.439,7.5303,7.5845,7.6386,7.7198,7.7908,7.8855,8.0209,8.0513,8.1088,8.2441,8.2611,8.2881,8.3625,8.2949,8.2475,8.2611,8.2746,8.3152,8.3896,8.4065,8.4708,8.5926,8.5993,8.6298,8.6907,8.696,8.7067,8.7236,8.7316,8.7284,8.7076,8.8089,8.8367,8.8077,8.897,8.9379,8.9379,8.9379,8.9379,8.9379,8.9379,8.9379,8.9379,8.9379,8.8349,8.6822,8.6822,8.7219,8.7786,4.9836,4.9225,4.8217,4.6778,4.7083,4.7833,4.863,4.951,5.1006,5.3494,5.5703,5.7732,5.9542,6.244,6.5497,6.854,7.1748,7.3724,7.3905,7.5334,7.6529,7.7326,7.7362,7.7724,7.8557,7.8557,7.8992,7.9897,7.9897,7.9901,7.9947,7.9947,7.9392,7.8389,7.7679,7.6447,7.4878,7.4165,7.3004,7.1692,7.1726,7.244,7.3458,7.2892,7.2938,7.3186,7.2519,7.2587,7.2868,7.2157,7.2022,7.2022,7.1277,7.0767,7.0571,7.1126,7.1343,7.1548,7.2022,7.2733,7.351,7.4187,7.4424,7.4999,0.0,7.6927,7.6927,7.8314,7.8145,7.7976,7.872,7.9464,8.0209,8.1021,8.1731,8.2441,8.3253,8.3389,8.3659,8.4377,8.3227,8.2678,8.3321,8.3998,8.4708,8.5479,8.6163,8.6602,8.6771,8.6771,8.6839,8.6907,8.7239,8.7773,8.8384,8.8799,8.9207,8.9517,8.9653,8.954,8.9208,8.9343,8.9379,8.9379,8.9379,8.9379,8.9379,8.9379,8.9379,8.9379,8.9379,8.9277,8.9045,8.9045,8.9111,8.9177,4.8805,4.8477,4.7978,4.7327,4.7471,4.7797,4.8159,4.9293,5.0644,5.2118,5.4363,5.6283,5.7369,6.081,6.4106,6.6873,7.0408,7.271,7.3181,7.5152,7.6473,7.6799,7.7253,7.7434,7.7289,7.8231,7.8629,7.8484,7.8955,7.8927,7.842,7.8864,7.8337,7.7007,7.7103,7.644,7.5253,7.4093,7.3436,7.3149,7.2293,7.2563,7.3466,7.3161,7.3477,7.4052,7.3308,7.324,0.0,7.3138,7.3341,7.3646,7.3318,7.3612,7.4052,7.3916,7.4492,7.5439,7.6623,7.6521,7.641,7.757,7.7874,7.7874,7.8,7.7739,7.7841,7.8889,7.9194,7.9498,8.0242,8.1325,8.2374,8.3118,8.3464,8.3937,8.4708,8.4843,8.4945,8.5249,8.552,8.5621,8.5486,8.6535,8.7177,8.7076,8.738,8.755,8.755,8.7761,8.8116,8.852,8.8976,8.934,8.9642,8.9827,8.9955,8.9927,9.036,9.0377,9.0041,9.0469,9.0668,9.0668,9.0668,9.0668,9.0668,9.0668,9.0668,9.0668,9.0668,9.0668,9.0569,8.9741,8.9379,8.9445,4.7777,4.7746,4.7689,4.7689,4.7689,4.7689,4.7689,4.9086,5.0318,5.0898,5.3277,5.545,5.6826,5.9783,6.2716,6.5374,6.8814,7.1386,7.2601,7.4754,7.6167,7.6601,7.6963,7.7108,7.6963,7.7651,7.7977,7.7833,7.8195,7.7919,7.7043,7.7647,7.698,7.5317,7.5878,7.5732,7.4999,7.395,7.3815,7.4221,7.3138,7.3274,7.4086,7.3883,7.439,7.51,7.4153,7.3916,7.4075,7.3849,7.4153,7.4603,7.4603,7.5371,7.6217,7.6082,7.7096,7.8585,7.9837,7.9431,7.8855,7.9938,8.0344,8.0276,7.9397,7.9194,7.9431,8.0175,8.075,8.1257,8.1824,8.3118,8.4302,8.4843,8.5256,8.5757,8.6298,8.6596,8.6731,8.6731,8.7989,8.8739,8.8323,8.8948,8.9247,8.8796,8.905,8.9224,8.9257,8.9423,8.9711,9.0191,9.0233,9.0352,9.0586,9.0497,9.0417,9.0405,9.0907,9.1017,9.0834,9.1364,9.1627,9.1627,9.1627,9.1627,9.1627,9.1627,9.1627,9.1627,9.1627,9.1627,9.1494,9.0403,9.0006,9.0105,4.7881,4.7798,4.7689,4.7689,4.7689,4.7689,4.7689,4.9086,5.0101,5.0137,5.2915,5.6066,5.9131,6.029,6.21,6.5337,6.7851,7.0242,7.2529,7.4231,7.5824,7.7398,7.6763,7.7036,7.8593,7.7144,7.7108,7.8666,7.7905,7.7074,7.6122,7.6157,7.526,7.358,7.3614,7.3591,7.3567,7.3534,7.3534,7.3534,7.35,7.4322,7.5574,7.4864,7.5506,7.6623,7.5134,7.5033,7.5506,7.483,7.457,7.4603,7.4603,7.4637,7.4965,7.642,7.7908,7.9228,8.0006,8.0175,8.0141,8.0175,8.0716,8.1426,8.2103,8.2272,8.2475,8.3219,8.3389,8.3422,8.3422,8.4674,8.575,8.5784,8.6941,8.7922,8.7922,8.8531,8.8998,8.8998,9.029,9.1358,9.1683,9.0799,9.0316,9.0706,9.1676,9.2297,9.2346,9.2076,9.177,9.1442,9.044,9.026,9.0959,9.0687,9.0865,9.1561,9.1561,9.1594,9.1594,9.1594,9.1627,9.1627,9.1627,9.1627,9.1627,9.1627,9.1627,9.1627,9.1627,9.1627,9.1562,9.1561,9.1529,9.1561,4.7777,4.771,4.7689,4.7689,4.7689,4.7689,4.7689,4.8594,4.951,5.0028,5.3325,0.0,0.0,0.0,0.0,0.0,6.512,6.7851,7.0242,7.2327,7.4231,7.5824,7.6674,7.6855,7.6331,7.6786,7.6536,7.5513,7.5702,7.5074,7.3698,7.4274,7.389,7.2766,7.2766,7.3308,7.4187,7.3172,7.3612,7.4864,7.3906,7.4086,7.4965,7.4671,7.4931,7.5371,0.0,7.5506,7.5676,7.5405,7.5676,7.6149,7.6149,7.6792,7.7874,7.9363,8.0175,8.0818,8.2069,8.2035,8.1799,8.2272,8.2577,8.2678,8.2441,8.278,8.3186,8.3456,8.4302,8.5039,8.5039,8.6663,8.7983,8.7983,8.8801,8.9359,8.9161,8.9539,8.9646,8.9245,9.1144,9.2457,9.2363,9.2633,9.2827,9.2732,9.3061,9.303,9.255,9.2195,9.2003,9.1912,9.1339,9.1152,9.1417,9.1293,9.1331,9.1627,9.1627,9.1627,9.1627,9.1627,9.1627,9.1627,9.1627,9.1627,9.1627,9.1627,9.1627,9.1627,9.1627,9.1627,9.1627,9.1627,9.1627,9.1627,4.7689,4.7689,4.7689,4.7689,4.7689,0.0,0.0,0.0,0.0,0.0,0.0,0.0,0.0,0.0,0.0,0.0,0.0,6.6004,6.9011,7.0879,7.271,7.4593,7.5659,7.5877,7.5136,7.5783,7.5546,7.4332,7.4435,7.383,7.2512,7.3029,7.2831,7.2022,7.2022,7.2699,7.3747,7.28,7.368,7.5574,7.4086,7.4086,7.4931,7.4424,7.439,0.0,7.5134,7.5473,7.5709,7.5709,7.6217,7.6961,7.7198,7.8483,8.0175,8.1629,8.2095,8.234,8.3558,8.3558,8.3295,8.3795,8.4099,8.4268,8.4065,8.437,8.4809,8.5046,8.5892,8.667,8.6934,8.8244,8.9432,8.9816,9.0441,9.0741,9.0538,9.1155,9.1434,9.0869,9.2497,9.3671,9.3601,9.4221,9.4554,9.4336,9.443,9.4298,9.3782,9.3222,9.2829,9.2704,9.1986,9.1627,9.1627,9.1627,9.1627,9.1627,9.1627,9.1627,9.1627,9.1627,9.1627,9.1596,9.1861,9.196,9.1993,9.2258,9.2391,9.2391,9.2391,9.2391,9.2391,9.2391,9.2391,9.2291,4.7689,4.7689,4.7689,0.0,0.0,0.0,0.0,0.0,0.0,0.0,0.0,0.0,0.0,0.0,0.0,0.0,0.0,0.0,6.8757,6.9771,7.1261,7.3602,7.3816,7.4162,7.4855,7.417,7.4153,7.4794,7.4021,7.3171,7.2379,7.2379,7.1978,7.1289,7.1222,7.1616,7.2326,7.2259,7.3477,7.5337,7.3916,7.4187,7.5303,7.394,7.3849,7.4468,7.4536,7.4999,7.5608,7.5709,7.6318,7.7164,7.7908,7.9659,8.1655,8.3084,8.3524,8.3693,8.4411,8.4614,8.4614,8.4647,8.5249,8.5993,8.6738,8.6941,8.7144,8.7854,8.8057,8.8328,8.9004,8.9527,9.0154,9.1179,9.1787,9.209,9.2061,9.3335,9.4122,9.3752,9.436,9.4971,9.5356,9.5424,9.5457,9.5457,9.5741,9.5947,9.6001,9.4899,9.4132,9.3814,9.2358,9.1627,9.1627,9.1627,9.1627,9.166,9.166,9.1693,9.1726,9.1726,9.1726,9.1728,9.2424,9.2755,9.2788,9.3517,9.3782,9.3782,9.3782,9.3782,9.3782,9.3782,9.3782,9.3583,0.0,0.0,0.0,0.0,0.0,0.0,0.0,0.0,0.0,0.0,0.0,0.0,0.0,0.0,0.0,0.0,0.0,0.0,6.6279,6.7257,6.8765,7.1177,7.2378,7.2559,7.1639,7.246,7.2184,7.0639,7.0946,7.1011,7.0806,7.0806,7.0958,7.1255,7.0161,7.0398,7.1515,7.0398,7.0906,7.236,7.1413,7.1582,7.2394,7.2022,7.2326,7.3037,7.3578,7.3883,7.4346,7.6014,7.7468,7.8754,8.004,8.1224,8.2306,8.3219,8.3896,8.4343,8.4546,8.4614,8.4749,8.5351,8.5621,8.5993,8.6738,8.7347,8.7786,8.7955,8.8869,8.9715,8.9884,9.088,9.1739,9.1829,9.2853,9.3454,9.2966,9.3923,9.443,9.3834,9.4658,9.5191,9.5036,9.5535,9.5867,9.5867,9.5932,9.5998,9.6001,9.4707,9.3878,9.3782,9.2358,9.1627,9.1627,9.1627,9.1861,9.2391,9.2391,9.2689,9.3219,9.3219,9.3219,9.3252,9.3418,9.3517,9.3517,9.3716,9.3782,9.3782,9.3782,9.3782,9.3782,9.3782,9.3782,9.3749,0.0,0.0,0.0,0.0,0.0,0.0,0.0,0.0,0.0,0.0,0.0,0.0,0.0,0.0,0.0,0.0,0.0,0.0,0.0,6.6025,6.7209,6.928,7.0524,7.0616,6.9414,7.0507,7.058,6.9595,6.968,6.9857,7.0195,6.9857,6.9925,7.0297,6.9485,6.9553,7.0297,6.9451,6.9958,0.0,0.0,7.0534,7.1718,7.1075,7.1481,7.2462,7.2868,7.3646,7.4695,7.6352,7.7874,7.9363,8.0818,8.2035,8.305,8.3761,8.4275,8.4681,8.5046,8.5148,8.5317,8.6095,8.6535,8.6873,8.7279,8.7955,8.8564,8.8903,8.9613,9.0425,9.1068,9.1647,9.2217,9.2861,9.3427,9.3758,9.3686,9.448,9.4853,9.4343,9.5103,9.5567,9.5372,9.577,9.6001,9.6001,9.6001,9.6001,9.6001,9.461,9.3782,9.3782,9.2358,9.1759,9.2059,9.2059,9.2424,9.3186,9.3186,9.3384,9.3782,9.3782,9.3782,9.3815,9.4146,9.4279,9.4312,9.4643,9.4776,9.4776,9.4776,9.4776,9.4776,9.4776,9.4776,9.4776,0.0,0.0,0.0,0.0,0.0,0.0,0.0,0.0,0.0,5.2806,5.4001,5.4786,5.4894,5.7719,0.0,0.0,0.0,0.0,0.0,0.0,6.6133,6.77,6.8482,6.8501,6.7664,6.8293,6.8934,6.9446,6.88,6.8876,6.9608,6.8944,6.8707,6.8808,6.8707,6.8707,6.8808,6.8707,6.9451,7.0579,6.9316,7.006,7.1819,0.0,7.0973,7.2259,7.236,7.368,7.554,7.6454,7.7807,7.9363,8.0818,8.2238,8.3524,8.4343,8.4614,8.4783,8.5587,8.5817,8.5993,8.6839,8.7516,8.8023,8.8125,8.87,8.941,9.0087,9.0357,9.0904,9.2232,9.2158,9.2427,9.3954,9.3827,9.3755,9.4293,9.5026,9.5363,9.5073,9.5604,9.6001,9.6001,9.6001,9.6001,9.6001,9.6001,9.5968,9.5869,9.4544,9.3749,9.3649,9.249,9.2192,9.2821,9.2821,9.3219,9.3948,9.3948,9.3981,9.408,9.408,9.408,9.4113,9.4776,9.5041,9.5107,9.5736,9.6001,9.6001,9.6001,9.6001,9.6001,9.6001,9.6001,9.6001,0.0,0.0,0.0,0.0,0.0,0.0,5.1912,5.1658,5.2274,5.5027,5.4508,5.4146,5.4834,5.7719,0.0,0.0,0.0,0.0,0.0,0.0,0.0,6.6073,6.6863,6.662,6.5218,6.597,6.6098,6.5583,6.544,6.5764,6.6495,6.636,6.6609,6.7163,6.6542,6.6609,6.7163,6.6542,6.6779,6.7569,6.7299,6.8199,6.9654,6.9383,7.0229,0.0,7.2191,7.3037,7.4086,7.5439,7.7333,7.9363,8.0818,8.19,8.2881,8.4208,8.4614,8.4783,8.5587,8.5817,8.6122,8.7482,8.7922,8.8158,8.8767,8.9478,9.0053,9.0188,9.1169,9.2232,9.2879,9.3642,9.4166,9.4272,9.4938,9.5278,9.4837,9.5436,9.5868,9.5803,9.5935,9.6001,9.6001,9.6001,9.6001,9.6001,9.6001,9.5736,9.5107,9.4279,9.3517,9.2888,9.3219,9.3484,9.3616,9.3616,9.3981,9.471,9.471,9.5041,9.5637,9.5637,9.5637,9.5637,9.577,9.5803,9.5836,9.5968,9.6001,9.6001,9.6001,9.6001,9.6001,9.6001,9.6001,9.6001,0.0,0.0,0.0,0.0,0.0,0.0,5.3566,5.3748,5.4448,5.6355,5.6355,5.6138,5.6102,5.784,5.9144,0.0,0.0,0.0,0.0,0.0,0.0,6.5651,6.5687,6.5364,6.461,6.4981,6.5173,6.5155,0.0,6.4986,6.5683,6.529,6.5324,6.5662,6.529,6.5324,6.5662,6.5696,6.5899,6.6271,6.6643,6.7726,6.9113,6.9113,7.0263,0.0,7.2699,7.3443,7.4289,7.5811,7.7299,7.8855,8.0682,8.2069,8.3186,8.4275,8.4884,8.5384,8.6163,8.6636,8.7211,8.8294,8.8564,8.8694,8.9032,8.9681,9.0324,9.0696,9.1981,9.3208,9.3837,9.4399,9.4831,9.5103,9.5251,9.5394,9.5438,9.577,9.6001,9.6001,9.6001,9.6001,9.6001,9.6001,9.6167,9.6565,9.6565,9.6266,9.5505,9.4776,9.4014,9.3285,9.3616,9.3981,9.4378,9.4378,9.4743,9.5471,9.5471,9.567,9.6001,9.6001,9.6001,9.6001,9.6001,9.6233,9.6565,9.6565,9.6797,9.7128,9.7128,9.7128,9.7128,9.7128,9.7128,9.7128,0.0,0.0,0.0,0.0,0.0,0.0,0.0,5.5522,5.6404,5.755,5.8094,5.8275,5.7985,5.8383,5.8927,0.0,0.0,0.0,0.0,0.0,0.0,0.0,6.4988,6.4507,6.4374,0.0,0.0,6.5006,6.441,0.0,0.0,0.0,0.0,0.0,6.414,6.4208,6.441,6.5155,6.5581,0.0,0.0,6.7726,6.9147,0.0,0.0,0.0,0.0,7.395,7.484,7.6555,7.7638,7.8619,8.0818,8.234,8.3456,8.4343,8.5046,8.5723,8.667,8.7313,8.7989,8.8897,8.91,8.91,8.91,8.9918,9.0865,9.1406,9.2802,9.4163,9.4816,9.4996,9.5264,9.604,9.5626,9.5503,9.6134,9.6101,9.6001,9.6001,9.6001,9.6001,9.6001,9.6134,9.6498,9.7062,9.726,9.6962,9.6068,9.5438,9.4809,9.4047,9.4179,9.4544,9.514,9.514,9.5438,9.6001,9.6001,9.6001,9.6001,9.6167,9.6233,9.6233,9.6399,9.6797,9.7327,9.7327,9.7658,9.8221,9.8221,9.8221,9.8221,9.8221,9.8221,9.8221,0.0,0.0,0.0,0.0,0.0,0.0,0.0,5.5522,5.679,5.9072,5.8818,5.8927,6.0326,5.9891,5.9529,0.0,0.0,0.0,0.0,0.0,0.0,0.0,0.0,0.0,0.0,0.0,0.0,6.2705,6.2637,0.0,0.0,0.0,0.0,0.0,0.0,6.2956,6.3646,6.4377,0.0,0.0,0.0,0.0,0.0,0.0,0.0,0.0,0.0,7.395,7.4965,7.713,7.8382,7.9397,8.1596,8.2408,8.278,8.4174,8.4647,8.5019,8.6501,8.6974,8.7347,8.8734,8.91,8.91,8.91,9.0729,9.2223,9.2257,9.3807,9.5287,9.5717,9.5759,9.6074,9.6861,9.6627,9.6493,9.6929,9.6432,9.6001,9.6001,9.6001,9.6001,9.6001,9.6631,9.7028,9.7095,9.7724,9.7459,9.6068,9.5935,9.5571,9.4809,9.5438,9.5836,9.5902,9.5902,9.5935,9.6001,9.6001,9.6001,9.6035,9.6697,9.7028,9.7062,9.7691,9.8056,9.8122,9.8122,9.8155,9.8221,9.8221,9.8221,9.8221,9.8221,9.8221,9.8221,0.0,0.0,0.0,0.0,0.0,0.0,5.6029,5.6536,5.7587,6.0,6.0036,6.0072,6.0724,6.0507,6.0326,6.0326,0.0,0.0,0.0,0.0,0.0,0.0,0.0,0.0,0.0,0.0,6.2851,6.24,6.24,0.0,0.0,0.0,0.0,0.0,0.0,6.255,6.2922,6.4106,0.0,0.0,0.0,0.0,0.0,0.0,0.0,0.0,0.0,0.0,7.6183,7.7536,7.8788,8.0073,8.1832,8.2712,8.3253,8.4309,8.4945,8.5554,8.6636,8.7245,8.782,8.8835,8.941,8.9748,8.9748,9.1135,9.2527,9.303,9.4279,9.5489,9.6105,9.6232,9.6517,9.7291,9.7093,9.7061,9.7691,9.7492,9.7161,9.673,9.6664,9.6664,9.6664,9.6929,9.7492,9.8353,9.9049,9.9016,9.8022,9.7161,9.6333,9.5604,9.5869,9.6001,9.6001,9.6001,9.6233,9.6664,9.6664,9.6896,9.7327,9.7625,9.7757,9.7757,9.8089,9.8453,9.8884,9.8884,9.9082,9.9447,9.9447,9.9447,9.9447,9.9447,9.9447,9.9447,0.0,0.0,0.0,0.0,0.0,5.5015,5.6899,5.7406,5.8347,6.0507,6.0797,6.0905,6.1123,6.1159,6.1159,6.1159,6.1159,0.0,0.0,0.0,0.0,0.0,0.0,0.0,0.0,0.0,6.314,6.24,6.24,6.24,0.0,0.0,6.24,6.24,0.0,0.0,0.0,0.0,0.0,0.0,0.0,0.0,0.0,0.0,0.0,0.0,0.0,0.0,0.0,0.0,0.0,8.075,8.2002,8.305,8.3964,8.4715,8.5182,8.5757,8.7177,8.7617,8.7955,8.9106,8.9816,9.016,9.0046,9.1455,9.2967,9.3622,9.4668,9.5702,9.6441,9.6475,9.6691,9.7623,9.7392,9.7426,9.8387,9.8354,9.8022,9.7492,9.7426,9.7426,9.7426,9.7625,9.8254,9.948,10.001,10.001,9.9348,9.8088,9.7095,9.6366,9.6101,9.6101,9.6333,9.6333,9.6697,9.7426,9.7426,9.7691,9.8221,9.842,9.8553,9.8553,9.8751,9.9115,9.9579,9.9579,9.9877,10.0308,10.0308,10.0308,10.0308,10.0308,10.0308,10.0206,0.0,0.0,0.0,0.0,0.0,0.0,5.708,5.7876,5.8963,6.0579,6.0797,6.1086,6.1919,6.1992,6.1992,6.1992,6.1992,0.0,0.0,0.0,0.0,0.0,0.0,0.0,0.0,0.0,6.314,6.24,6.24,6.24,6.24,6.24,6.24,6.24,0.0,0.0,0.0,0.0,0.0,0.0,0.0,0.0,6.9282,0.0,0.0,0.0,0.0,0.0,0.0,0.0,0.0,0.0,0.0,8.3396,8.4749,8.5554,8.5215,8.5256,8.826,8.8023,8.7448,8.9647,9.0188,9.0103,8.9788,9.1715,9.3685,9.4099,9.5105,9.6096,9.6866,9.6423,9.6465,9.7956,9.7558,9.7625,9.9083,9.8652,9.8221,9.8188,9.8188,9.8188,9.8188,9.8851,9.9546,10.0174,10.0308,10.001,9.9348,9.8586,9.7823,9.7128,9.6399,9.6366,9.7095,9.7095,9.7459,9.8188,9.8188,9.8188,9.8221,9.8983,9.9315,9.9348,9.9977,10.0308,10.0308,10.0308,10.0308,10.0308,10.0308,10.0308,10.0308,10.0308,10.0308,10.0102,0.0,0.0,0.0,0.0,0.0,0.0,0.0,5.7406,5.8166,5.9747,5.9964,6.0507,6.1847,6.1992,6.1992,6.1992,6.1992,0.0,0.0,0.0,0.0,0.0,0.0,0.0,0.0,0.0,6.2803,6.3068,6.262,6.2651,6.3159,6.3159,6.2888,6.2434,6.2922,6.3274,0.0,0.0,0.0,0.0,0.0,6.9113,6.9282,0.0,0.0,0.0,0.0,0.0,0.0,0.0,0.0,0.0,0.0,0.0,0.0,8.6332,8.6027,8.5858,8.7786,8.8361,8.87,8.9918,9.0938,9.1658,9.1337,9.231,9.3493,9.4437,9.4699,9.5181,9.6415,9.6694,9.7062,9.8056,9.8453,9.8917,9.9844,9.938,9.8785,9.8254,9.8221,9.842,9.8917,9.9579,10.0109,10.0308,10.0308,10.0373,10.0705,9.9579,9.8619,9.789,9.7128,9.7095,9.7823,9.7823,9.8221,9.895,9.895,9.9182,9.9645,9.9877,9.9977,10.001,10.0209,10.0308,10.0308,10.0308,10.0308,10.0308,10.0308,10.0308,10.0308,10.0308,10.0308,10.0102,0.0,0.0,0.0,0.0,0.0,0.0,0.0,5.7188,5.7768,5.9398,5.9602,6.0217,6.1811,6.1992,6.1992,6.1992,6.1992,0.0,0.0,0.0,0.0,0.0,0.0,0.0,6.1879,6.2126,6.2665,6.3388,6.2736,6.2787,6.3511,6.3511,6.3125,6.2434,6.3193,6.3646,0.0,0.0,0.0,0.0,6.8774,6.935,6.9282,0.0,0.0,0.0,0.0,0.0,0.0,0.0,0.0,0.0,0.0,0.0,0.0,0.0,8.6974,8.6941,8.8429,8.8937,8.9342,9.0357,9.1513,9.2304,9.1897,9.2468,9.338,9.4396,9.4449,9.4756,9.6222,9.6827,9.7327,9.8089,9.8818,9.9481,9.9844,9.9546,9.9149,9.8685,9.8619,9.8917,9.9612,10.0076,10.0308,10.0308,10.0606,10.087,10.1401,10.0606,10.001,9.9811,9.832,9.7857,9.8619,9.8619,9.8983,9.9679,9.9679,9.991,10.0308,10.0308,10.0308,10.0308,10.0308,10.0308,0.0,10.0308,10.0308,10.0308,10.0308,10.0308,10.0308,10.0308,9.9932,9.9171,0.0,0.0,0.0,0.0,0.0,0.0,0.0,5.7261,5.784,5.9384,5.9638,6.029,6.1847,6.1992,6.1992,6.1992,0.0,0.0,0.0,0.0,0.0,0.0,0.0,0.0,6.1119,6.1827,6.2613,6.3393,6.2721,6.2787,6.3511,6.3511,6.3125,6.2516,6.326,6.4038,0.0,0.0,0.0,0.0,6.9214,6.9722,0.0,0.0,0.0,0.0,0.0,0.0,0.0,0.0,0.0,0.0,0.0,0.0,0.0,0.0,0.0,0.0,0.0,8.9681,8.9607,9.0966,9.1885,9.2318,9.1696,9.2322,0.0,9.4084,9.4258,9.4724,9.6189,9.6861,9.7393,9.8089,9.8884,9.9381,9.9315,9.9249,9.9249,9.9315,9.9315,9.9579,10.0308,10.0274,10.0308,10.0407,10.1004,10.14,10.16,10.1499,10.1797,10.2594,9.9877,9.8785,9.9414,9.9414,9.9679,10.0308,10.0308,10.0308,10.0308,10.0308,10.0308,10.0308,10.0308,10.0308,10.0308,10.0308,10.0308,10.0308,10.0308,10.0308,10.0274,10.0171,9.9171,9.7649,0.0,0.0,0.0,0.0,0.0,0.0,0.0,0.0,0.0,0.0,6.0145,6.0905,6.1883,6.1992,6.1992,0.0,0.0,0.0,0.0,0.0,0.0,0.0,0.0,0.0,6.1026,6.1277,6.2029,6.3311,6.2715,6.2787,6.3511,6.3511,6.3409,6.3294,6.4005,6.5053,0.0,0.0,0.0,0.0,6.8673,6.9586,0.0,0.0,0.0,0.0,7.554,7.6724,0.0,0.0,0.0,0.0,0.0,0.0,0.0,0.0,8.8395,8.8931,8.9241,0.0,9.0865,9.1203,9.2111,9.2857,0.0,9.2325,9.2648,9.3706,9.391,9.4374,9.5867,9.7128,9.8022,9.8188,9.9248,9.9877,9.9381,9.8818,9.8685,9.9249,9.9315,9.9778,10.1002,10.0572,10.0472,10.1103,10.1267,10.1898,10.2991,10.2492,10.2594,10.3289,10.16,10.0705,10.0904,10.0308,10.0075,10.0308,10.0308,10.0308,10.0308,10.0308,10.0308,10.0308,10.0308,10.0308,10.0308,10.0308,10.0308,10.0308,10.0308,10.0308,10.0204,9.8925,9.822,9.7504,0.0,0.0,0.0,0.0,0.0,0.0,0.0,0.0,0.0,0.0,0.0,6.1123,6.1919,6.1992,0.0,0.0,0.0,0.0,0.0,0.0,0.0,0.0,0.0,6.1858,6.1521,6.1235,6.184,6.3344,6.2689,6.2787,6.3511,6.3849,6.3815,6.3545,6.4613,6.573,0.0,0.0,0.0,6.6994,6.9214,0.0,0.0,0.0,0.0,0.0,7.5845,7.6995,0.0,7.9701,8.119,8.2746,0.0,0.0,0.0,0.0,8.8795,8.91,8.91,9.0069,9.1069,9.1069,9.1981,9.2762,9.2459,9.2512,9.2831,9.3614,9.408,9.4743,9.6233,9.7161,9.7923,9.8619,9.9049,9.9215,9.8851,9.8751,9.8851,9.9249,9.9546,10.0076,10.077,10.0804,10.1004,10.1401,10.2031,10.2792,10.359,10.3521,10.3687,10.4084,10.2693,10.1698,10.1401,10.0705,10.0308,10.0308,10.0308,10.0308,10.0308,10.0308,10.0308,10.0308,10.0308,10.0308,10.0308,10.0308,10.0308,10.0308,10.0308,9.9863,9.91,9.822,9.6993,9.5394,0.0,0.0,0.0,0.0,0.0,0.0,0.0,0.0,0.0,0.0,0.0,0.0,0.0,0.0,0.0,0.0,0.0,0.0,0.0,0.0,0.0,0.0,6.2136,6.2169,6.2083,6.1678,6.2073,6.3388,6.2838,6.2956,6.368,6.4309,6.4343,6.3883,6.5256,6.6203,0.0,6.7489,6.7455,6.7197,7.0026,0.0,0.0,0.0,0.0,0.0,0.0,0.0,0.0,7.987,8.1257,8.2813,8.508,0.0,0.0,0.0,0.0,0.0,8.9128,8.9884,9.0691,9.0778,9.1614,9.2386,9.215,9.2627,9.3234,9.3713,9.4478,9.5438,9.6697,9.7227,9.7823,9.895,9.8619,9.8221,9.8221,9.8751,9.9215,9.9447,9.9944,10.0407,10.0606,10.1103,10.1501,10.1698,10.2892,10.3588,10.3822,10.4418,10.4681,10.4681,10.3389,10.2294,10.16,10.0671,10.0308,10.0308,10.0308,10.0308,10.0308,10.0308,10.0308,10.0308,10.0308,10.0308,10.0308,10.0308,10.0308,10.0308,10.0308,9.9311,9.7897,9.7612,9.5583,9.2885,0.0,0.0,0.0,0.0,0.0,0.0,0.0,0.0,0.0,0.0,0.0,0.0,0.0,0.0,0.0,0.0,0.0,0.0,0.0,0.0,0.0,6.1992,6.2657,6.2724,6.2118,6.2736,6.3171,6.3388,6.3363,6.3734,6.4444,6.4546,6.4884,6.5392,6.6271,6.669,6.6791,6.6927,6.7252,6.7895,6.9654,0.0,0.0,0.0,0.0,0.0,0.0,0.0,0.0,8.0615,8.1697,8.2813,8.508,0.0,0.0,0.0,0.0,0.0,8.9336,8.9646,9.0163,9.0661,9.1245,9.172,9.205,9.244,9.2951,9.3649,9.4875,9.5902,9.6134,9.7691,9.8851,9.8453,9.8288,9.8221,9.8221,9.8321,9.8818,10.001,10.0174,10.0805,10.1996,10.1698,10.1931,10.3225,10.3523,10.3921,10.4482,10.4614,10.4681,10.4681,10.3921,10.3091,10.2294,10.1004,10.0308,10.0308,10.0308,10.0308,10.0308,10.0308,10.0308,10.0308,10.0308,10.0308,10.0308,10.0308,10.0308,10.0308,10.0308,9.9311,9.7721,9.6365,9.4438,9.2174,0.0,0.0,0.0,0.0,0.0,0.0,0.0,0.0,0.0,0.0,0.0,0.0,0.0,0.0,0.0,0.0,0.0,0.0,0.0,0.0,6.2173,6.2621,6.3418,6.3481,6.2776,6.2813,6.3217,6.4027,6.3669,6.3883,6.4613,6.5019,6.5595,6.6305,6.6643,6.6791,6.6825,6.7252,6.7861,6.8707,0.0,0.0,0.0,0.0,0.0,0.0,0.0,0.0,0.0,0.0,8.1799,8.2881,8.5554,0.0,0.0,0.0,0.0,0.0,8.999,9.0018,9.0293,9.0783,9.1208,9.173,9.2307,9.2881,9.3484,9.4246,9.5571,9.6598,9.6598,9.7426,9.7857,9.7128,9.7989,9.8652,9.8254,9.9182,10.001,10.0308,10.0705,10.1202,10.1797,10.1997,10.2393,10.3488,10.402,10.4283,10.4681,10.4681,10.4681,10.4681,10.402,10.3389,10.3091,10.1598,10.0705,10.0308,10.0308,10.0308,10.0308,10.0308,10.0308,10.0308,10.0308,10.0308,10.0308,10.0308,10.0308,10.0205,9.9311,9.8005,9.629,9.3535,9.1597,9.0186,0.0,0.0,0.0,0.0,0.0,0.0,0.0,0.0,0.0,0.0,0.0,0.0,0.0,0.0,0.0,0.0,0.0,0.0,0.0,6.2173,6.2549,6.3178,6.3834,6.3902,6.3326,6.3153,6.3586,6.4607,6.4373,6.4728,6.5662,6.6237,6.6711,6.7083,6.7083,6.7163,6.7387,6.7929,6.8842,7.0026,0.0,0.0,0.0,0.0,0.0,0.0,0.0,0.0,0.0,0.0,0.0,0.0,0.0,0.0,0.0,8.9336,9.0195,9.0783,9.049,9.04,9.054,9.1031,9.1446,9.1888,9.2555,9.3384,9.4213,9.4776,9.6068,9.7095,9.7095,9.726,9.7161,9.6598,9.7923,9.8851,9.8288,9.9745,10.0805,10.0307,10.1004,10.1501,10.1598,10.2294,10.3091,10.3786,10.4383,10.4681,10.4681,10.4681,10.4681,10.4681,10.4219,10.3822,10.3588,10.2296,10.1302,10.0606,10.0407,10.0308,10.0308,10.0308,10.0308,10.0308,10.0308,10.0308,10.0308,10.0308,10.0102,9.9622,9.8363,9.6624,9.4392,9.1085,8.934,8.8603,0.0,0.0,0.0,0.0,0.0,0.0,0.0,0.0,0.0,0.0,0.0,0.0,0.0,0.0,0.0,0.0,0.0,0.0,0.0,6.2693,6.3142,6.3214,6.3373,6.3437,6.3387,6.476,6.516,6.4593,6.592,6.732,6.8774,6.8842,6.8504,6.7827,6.7827,6.8233,6.8944,6.8977,7.0229,7.2225,7.3071,0.0,0.0,0.0,0.0,0.0,0.0,0.0,0.0,0.0,0.0,0.0,0.0,0.0,8.9538,8.932,9.0062,9.0895,9.059,9.0498,9.0664,9.1393,9.1811,9.2201,9.2586,9.3782,9.4842,9.4875,9.6068,9.7095,9.7095,9.7658,9.8122,9.8056,9.8188,9.8254,9.8221,9.8917,9.9645,10.0174,10.1004,10.1699,10.2395,10.3091,10.3786,10.4617,10.4716,10.4681,10.4681,10.4681,10.4681,10.4681,10.4614,10.4283,10.3588,10.2826,10.2097,10.1267,10.0572,10.0308,10.0308,10.0308,10.0308,10.0308,10.0308,10.0308,10.0308,10.0308,9.9448,9.8077,9.7969,9.574,9.2375,9.0133,8.9043,8.8661,0.0,0.0,0.0,0.0,0.0,0.0,0.0,0.0,0.0,0.0,0.0,0.0,0.0,0.0,0.0,0.0,0.0,0.0,0.0,6.2766,6.3432,6.3939,6.449,6.5027,6.5573,6.475,6.4873,6.5969,6.6995,6.803,6.9113,6.9113,6.8944,6.8673,6.9113,6.9485,6.9823,7.077,7.1887,7.3172,7.439,7.5337,0.0,0.0,0.0,0.0,0.0,0.0,0.0,0.0,8.3527,8.3664,8.6092,8.8058,8.9487,8.9599,9.0283,9.1034,9.1159,9.0867,9.077,9.1993,9.2717,9.3344,9.3913,9.4511,9.5173,9.6101,9.7062,9.7757,9.7757,9.726,9.6962,9.7426,9.789,9.8354,9.8818,9.948,10.001,10.0308,10.1004,10.1699,10.2393,10.319,10.3886,10.4614,10.4681,10.4681,10.4681,10.4681,10.4681,10.4681,10.4681,10.4617,10.4283,10.3124,10.2627,10.2726,10.1103,10.0308,10.0308,10.0308,10.0308,10.0308,10.0308,10.0308,10.0172,9.9206,9.8467,9.7649,9.5363,9.3069,9.0896,8.9887,8.9422,8.9425,0.0,0.0,0.0,0.0,0.0,0.0,0.0,0.0,0.0,0.0,0.0,0.0,0.0,0.0,0.0,0.0,0.0,0.0,6.2354,6.3128,6.384,6.4396,6.5453,6.6183,6.6491,6.5258,6.5431,6.7163,6.8148,6.9011,6.9789,6.9789,6.9789,6.9823,7.0331,7.0804,7.1334,7.2326,7.3443,7.4661,7.5676,7.6555,0.0,0.0,0.0,0.0,0.0,0.0,0.0,0.0,8.409,8.4115,8.6836,8.8549,8.9595,9.012,9.0535,9.0945,9.1459,9.1231,9.1198,9.2689,9.3782,9.4676,9.5438,9.5604,9.5935,9.7194,9.8022,9.842,9.7956,9.7227,9.6863,9.736,9.7857,9.8453,9.9215,9.9877,10.0407,10.0606,10.1267,10.1996,10.2792,10.3488,10.4219,10.4716,10.4681,10.4681,10.4681,10.4681,10.4681,10.4681,10.4681,10.4581,10.4418,10.3389,10.2991,10.319,10.1699,10.1004,10.1004,10.1004,10.1004,10.1004,10.1004,10.0694,10.0105,9.9011,9.7856,9.6482,9.3428,9.1566,9.0558,9.0283,9.0299,9.0542,0.0,0.0,0.0,0.0,0.0,0.0,0.0,0.0,0.0,0.0,0.0,0.0,0.0,0.0,0.0,0.0,0.0,0.0,6.3142,6.3975,6.4433,6.4535,6.6069,6.6527,6.5742,6.6516,6.7256,6.8009,6.9476,7.0567,7.1289,7.1289,7.1289,7.1289,7.1323,7.2157,7.3534,7.3534,7.483,7.6893,7.6927,7.7367,7.8077,0.0,0.0,0.0,0.0,0.0,0.0,0.0,8.4524,8.5281,8.7525,8.8964,9.006,9.0762,9.0782,9.0637,9.1397,9.1627,9.1927,9.3418,9.4908,9.62,9.6962,9.7128,9.7327,9.8056,9.8785,9.8817,9.7393,9.7691,9.8188,9.8221,9.8221,9.8486,9.9215,9.9877,10.0606,10.1267,10.2097,10.2826,10.3488,10.4319,10.4681,10.4681,10.4681,10.4681,10.4681,10.4681,10.4681,10.4681,10.4681,10.4418,10.3588,10.3588,10.3223,10.2492,10.2492,10.2492,10.2492,10.2492,10.2492,10.2492,10.2492,10.1477,9.9998,9.9929,9.7717,9.4115,9.2524,9.1713,9.1498,9.1498,9.164,9.1922,0.0,0.0,0.0,0.0,0.0,0.0,0.0,0.0,0.0,0.0,0.0,0.0,0.0,0.0,0.0,0.0,0.0,0.0,6.3142,6.4482,6.5504,6.6106,6.7126,6.7835,6.8152,6.8353,6.8554,6.8753,6.9717,7.0567,7.1289,7.1853,7.209,7.2124,7.3172,7.3859,7.4356,7.5439,7.6284,7.6995,7.8044,7.8585,7.8855,0.0,0.0,0.0,0.0,0.0,0.0,0.0,0.0,0.0,8.7775,8.9038,8.9664,9.0427,9.0597,9.0637,9.1397,9.1627,9.1927,9.3418,9.4908,9.6333,9.7592,9.7857,9.7956,9.8155,9.8387,9.8254,9.7293,9.7293,9.7592,9.8122,9.8652,9.9182,9.991,10.0606,10.1202,10.1401,10.2494,10.3424,10.3623,10.4319,10.4681,10.4681,10.4681,10.4681,10.4681,10.4681,10.4681,10.4681,10.5178,10.5111,10.4383,10.4418,10.4319,10.4018,10.3488,10.2991,10.2492,10.2492,10.2492,10.2389,10.1295,10.047,9.9781,9.7097,9.4688,9.2583,9.1888,9.1821,9.217,9.2279,9.2681,9.3229,0.0,0.0,0.0,0.0,0.0,0.0,0.0,0.0,6.1992,6.1992,6.1992,6.1992,0.0,0.0,0.0,6.1992,6.2281,6.2802,6.3613,6.5192,6.6306,6.6823,6.8189,6.903,6.9193,6.8797,6.8764,6.9113,7.0128,7.1007,7.1751,7.2496,7.3138,7.3747,7.4627,7.5371,7.6014,7.6927,7.7502,7.7841,7.8729,7.9295,7.9634,0.0,0.0,0.0,0.0,0.0,0.0,0.0,0.0,0.0,8.8121,8.9196,8.9608,9.0635,9.0703,9.0637,9.1397,9.1794,9.2391,9.3848,9.5571,9.7161,9.8387,9.8652,9.8553,9.8254,9.8221,9.7989,9.7227,9.7327,9.7757,9.852,9.9017,9.9513,10.0209,10.0903,10.1499,10.1797,10.2892,10.3687,10.3985,10.4383,10.4681,10.4681,10.4681,10.4681,10.4681,10.4681,10.4813,10.5111,10.5575,10.5575,10.5111,10.5111,10.4979,10.4681,10.4184,10.3786,10.3389,10.3389,10.3002,10.2187,9.987,9.8843,9.8611,9.5444,9.3622,9.2742,9.2393,9.2695,9.3286,9.342,9.388,9.4489,0.0,0.0,0.0,0.0,0.0,0.0,0.0,6.1992,6.1992,6.1992,6.1992,6.1992,0.0,0.0,0.0,6.1992,6.273,6.354,6.4359,6.5989,6.6966,6.7091,6.9153,6.9876,6.8998,6.8289,6.8301,6.9113,7.0601,7.1684,7.2428,7.3206,7.4356,7.5709,7.5777,7.6623,7.8,7.8044,7.8483,7.9101,7.9261,7.9701,8.0378,8.1096,0.0,0.0,0.0,0.0,0.0,0.0,0.0,0.0,8.8515,8.9379,8.9707,9.1165,9.1132,9.0767,9.1397,9.219,9.3119,9.4544,9.6598,9.8486,9.9149,9.9249,9.8983,9.8254,9.8155,9.7989,9.7227,9.7757,9.852,9.9215,9.9381,9.9612,10.0308,10.1002,10.1799,10.2492,10.3289,10.402,10.4614,10.4681,10.4681,10.4681,10.4681,10.4681,10.4681,10.4816,10.5078,10.5774,10.5906,10.5906,10.5807,10.5873,10.5509,10.4681,10.4681,10.4609,10.4502,10.4502,10.3494,10.1605,9.8475,9.6992,9.6648,9.4658,9.3926,9.3969,9.3563,9.3898,9.4635,9.4693,9.5099,9.5622,0.0,0.0,0.0,0.0,0.0,0.0,6.1992,6.1992,6.1992,6.1992,6.1992,6.1992,6.1992,6.1992,0.0,6.1992,6.273,6.354,6.4359,6.6496,6.803,6.8667,6.9181,6.8803,6.7346,6.7679,6.8301,6.9113,7.0601,7.1684,7.2428,7.3747,7.483,7.5743,7.6352,7.713,7.8034,7.8619,7.8957,7.9203,8.0344,8.0919,8.1122,8.1667,8.2203,0.0,0.0,0.0,0.0,0.0,0.0,0.0,8.868,8.9379,8.9707,9.1165,9.1463,9.1397,9.1529,9.2556,9.3782,9.4676,9.6995,9.9116,9.9282,9.8851,9.8254,9.7492,9.779,9.7989,9.7227,9.8155,9.9116,9.9282,9.9745,10.0308,10.1103,10.1832,10.2492,10.3289,10.3985,10.4482,10.4681,10.4681,10.4681,10.4681,10.4681,10.4681,10.4681,10.5211,10.5608,10.5807,10.69,10.7,10.5807,10.6403,10.6006,10.4681,10.4681,10.4004,10.2695,10.2695,10.1076,9.8151,9.7446,9.6145,9.4515,9.3717,9.3439,9.3563,9.3636,9.403,9.4664,9.5186,9.5476,9.5622,0.0,0.0,0.0,0.0,0.0,0.0,0.0,0.0,6.3019,6.2621,6.2245,6.1992,6.1992,6.1992,0.0,0.0,6.3092,6.3939,6.4359,6.7003,6.893,6.9733,6.9051,6.8388,6.7899,6.7904,6.847,6.962,7.1109,7.2191,7.2969,7.4424,7.5743,7.6826,7.7232,7.801,7.9058,7.9464,7.9837,8.0209,8.1012,8.1417,8.1727,8.2682,8.3195,8.3436,8.3899,0.0,0.0,0.0,0.0,0.0,0.0,0.0,8.9707,9.1165,9.1627,9.1627,9.1627,9.2656,9.4213,9.6001,9.8122,9.9579,9.895,9.8486,9.7989,9.726,9.7426,9.7658,9.7625,9.8519,9.9414,9.9712,10.0407,10.1004,10.13,10.2294,10.319,10.3623,10.4319,10.4681,10.4681,10.4681,10.4681,10.4681,10.4681,10.4681,10.4681,10.5409,10.5973,10.6304,10.7397,10.7629,10.69,10.69,10.6304,10.5211,10.4093,10.221,9.976,9.976,9.8797,9.7033,9.5976,9.496,9.3878,9.3469,9.3552,9.3925,9.4035,9.4519,9.5128,9.5476,9.5622,9.5622,0.0,0.0,0.0,0.0,0.0,0.0,0.0,0.0,0.0,6.3323,6.2621,6.2209,6.2209,6.2209,6.2245,0.0,0.0,0.0,6.4613,6.737,6.9357,7.0163,6.893,6.8398,6.8876,6.8515,6.891,7.0217,7.1684,7.2834,7.3713,7.5202,7.6657,7.8034,7.8111,7.8923,8.0209,8.0344,8.075,8.1325,8.1671,8.203,8.2528,8.39,8.4253,8.4138,8.5092,8.5511,8.5682,8.6081,0.0,0.0,0.0,0.0,8.9644,9.0999,9.1496,9.166,9.1759,9.3053,9.4975,9.7559,9.9248,9.9944,9.852,9.8221,9.7989,9.726,9.7194,9.7525,9.8254,9.8983,9.9645,10.0209,10.087,10.14,10.16,10.2792,10.3588,10.3822,10.4283,10.4681,10.4681,10.4681,10.4681,10.4681,10.4681,10.4816,10.4879,10.5608,10.6304,10.7099,10.7795,10.8093,10.7795,10.7198,10.6291,10.5075,10.2609,9.9839,9.7075,9.6937,9.6812,9.6564,9.4821,9.4026,9.3924,9.3686,9.3925,9.4431,9.4541,9.5012,9.5622,9.5622,9.5622,9.5622,0.0,0.0,0.0,0.0,0.0,0.0,0.0,0.0,0.0,0.0,6.3106,6.3019,6.3019,6.3019,6.3323,6.3997,6.4903,6.5446,6.5446,0.0,0.0,6.9331,6.9092,6.8685,6.8053,6.9246,7.0014,7.0217,7.1684,7.3105,7.4492,7.6014,7.7198,7.8034,7.8686,7.9431,8.0242,8.0885,8.1215,8.146,8.3125,8.3834,8.4022,8.4974,8.5283,8.5231,8.5177,8.5559,8.6118,8.6159,8.6623,0.0,0.0,0.0,8.9544,9.0372,9.1099,9.1759,9.2358,9.4577,9.6896,9.7956,9.9248,9.9944,9.852,9.8221,9.7989,9.726,9.7592,9.8288,9.9017,9.9712,10.0209,10.0308,10.087,10.1598,10.2296,10.3091,10.3786,10.4482,10.4614,10.4681,10.4681,10.4681,10.4681,10.4681,10.4681,10.4979,10.5608,10.637,10.7099,10.7828,10.859,10.8288,10.7099,10.69,10.5515,10.2602,9.9348,9.7538,9.7064,9.6176,9.5474,9.4921,9.4764,9.4429,9.4088,9.4197,9.4369,9.4582,9.4577,9.5012,9.5622,9.5622,9.5622,9.5622,0.0,0.0,0.0,0.0,0.0,0.0,0.0,0.0,0.0,0.0,0.0,6.3359,6.383,6.3468,6.3504,6.4337,6.512,6.617,6.7525,6.8283,6.9014,6.978,6.9782,6.957,6.9202,6.9845,7.0398,7.0804,7.2293,7.3544,7.4661,7.6589,7.7908,7.8619,7.8957,7.9735,8.0818,8.1181,8.2002,8.3227,8.3914,8.4606,8.5287,8.5873,8.6281,8.6534,8.6789,8.7389,8.7985,8.7985,8.7919,8.8117,8.9674,0.0,0.0,0.0,9.196,9.2291,9.2589,9.4544,9.6664,9.7393,9.8652,9.9447,9.8453,9.8221,9.8122,9.7757,9.7989,9.842,9.9182,9.9844,10.0373,10.0804,10.1499,10.2296,10.3024,10.3822,10.4283,10.4716,10.4681,10.4681,10.4681,10.4681,10.4681,10.4681,10.4681,10.4979,10.581,10.6503,10.7231,10.7993,10.8722,10.8391,10.69,10.69,10.4829,10.0697,9.8273,9.6606,9.5686,9.5234,9.4936,9.472,9.4888,9.4708,9.4271,9.4415,9.4559,9.4635,9.5012,9.536,9.5622,9.5622,9.5622,9.5622,0.0,0.0,0.0,0.0,0.0,0.0,0.0,0.0,0.0,0.0,0.0,6.4649,6.5229,0.0,0.0,0.0,6.5663,6.6931,6.9337,6.9482,6.9814,7.0569,7.0395,7.0251,7.0184,7.0364,7.0838,7.1582,7.2868,7.4086,7.5236,7.7096,7.8585,7.9667,7.9464,8.0073,8.1317,8.1697,8.2863,8.4514,8.4816,8.5521,8.6483,8.6867,8.7364,8.7885,8.8415,8.8945,8.9379,8.9379,8.9147,8.9144,9.0801,9.1198,0.0,0.0,0.0,9.302,9.3186,9.4743,9.6432,9.6962,9.832,9.9348,9.842,9.8221,9.8254,9.8453,9.8321,9.8486,9.938,9.9944,10.0472,10.1302,10.1996,10.2792,10.3488,10.4184,10.4681,10.4681,10.4681,10.4681,10.4681,10.4681,10.4681,10.4681,10.4681,10.5078,10.6006,10.6602,10.7298,10.8292,10.8822,10.849,10.7198,10.6091,10.3497,9.9428,9.7775,9.6342,9.5127,9.5146,9.5167,9.5125,9.5093,9.4922,9.4627,9.4791,9.4867,9.4925,9.5418,9.5622,9.5622,9.5622,9.5622,9.5622,0.0,0.0,0.0,0.0,0.0,0.0,0.0,0.0,0.0,0.0,0.0,6.7764,6.7785,6.7112,6.6931,6.7764,6.7148,6.7764,7.017,7.0273,7.0623,7.1393,7.0648,0.0,7.0217,7.0906,7.1616,7.2326,7.3105,7.465,7.6792,7.7604,7.9151,8.1181,8.0445,8.0547,8.1384,8.278,8.3703,8.4379,8.6192,8.7218,8.7666,8.8038,8.8647,8.931,8.9343,0.0,8.9379,8.9379,8.9842,9.0405,9.0505,9.1496,9.2589,0.0,0.0,0.0,9.461,9.5902,9.7062,9.7095,9.8685,9.9877,9.852,9.8221,9.842,9.9116,9.8685,9.8619,10.001,10.0308,10.0472,10.1302,10.1996,10.2792,10.3488,10.4184,10.4681,10.4681,10.4681,10.4681,10.4681,10.4681,10.4681,10.4681,10.4681,10.531,10.6801,10.69,10.7596,10.902,10.912,10.8722,10.7993,10.4013,10.0975,9.9109,9.7434,9.6606,9.6473,9.6611,9.6459,9.5976,9.537,9.5141,9.5253,9.546,9.5564,9.5564,9.5593,9.5622,9.5622,9.5622,9.5622,9.5622,0.0,0.0,0.0,0.0,0.0,0.0,0.0,0.0,0.0,0.0,0.0,0.0,0.0,6.8503,6.8648,6.9466,6.972,6.9941,7.0256,7.1268,7.1711,7.1414,7.1572,7.142,7.0906,7.1176,7.1887,7.3105,7.3849,7.5371,7.7638,7.8855,8.0073,8.1283,8.1021,8.1832,8.343,8.3812,8.4864,8.6376,8.7176,8.785,8.8398,8.8337,8.878,8.9379,0.0,0.0,0.0,0.0,0.0,0.0,0.0,9.2987,9.3484,9.3981,9.3948,9.3749,9.355,9.4577,9.5803,9.63,9.7691,9.8917,9.8917,9.8553,9.8288,9.8553,9.8387,9.852,9.948,10.001,10.0705,10.1896,10.2294,10.289,10.4084,10.4482,10.4681,10.4681,10.4681,10.4681,10.4681,10.4681,10.4681,10.4681,10.4681,10.531,10.6801,10.69,10.7596,10.9087,10.912,10.8205,10.6327,10.3203,10.0802,9.9105,9.7425,9.6431,9.6075,9.6135,9.5966,9.5546,9.5311,9.5329,9.5507,9.5552,9.5622,9.5622,9.5622,9.5622,9.5622,9.5622,9.5622,9.5622,0.0,0.0,0.0,0.0,0.0,0.0,0.0,0.0,7.106,7.0806,0.0,0.0,0.0,0.0,6.9906,6.9923,7.0872,7.1231,7.0656,7.1882,7.2345,7.1739,7.1974,7.1966,7.1684,7.1684,7.2529,7.4221,7.4999,7.642,7.8382,7.987,8.0953,8.1663,8.1934,8.2983,8.4587,8.4588,8.5777,8.7753,8.8,8.8572,8.938,8.9401,8.9873,9.0502,0.0,0.0,0.0,0.0,0.0,0.0,0.0,0.0,9.4643,9.514,9.4743,9.4047,9.355,9.4312,9.5405,9.5869,9.7293,9.8718,9.9215,9.8917,9.8586,9.8586,9.8586,9.8718,9.9215,9.9844,10.0805,10.2296,10.2492,10.3024,10.4482,10.4681,10.4681,10.4681,10.4681,10.4681,10.4681,10.4681,10.4681,10.4681,10.4681,10.531,10.6801,10.69,10.7596,10.9087,10.853,10.7105,10.4807,10.2612,10.0607,9.8869,9.7605,9.682,9.6461,9.6116,9.5853,9.5621,9.5482,9.5466,9.5622,9.5622,9.5622,9.5622,9.5622,9.5622,9.5622,9.5622,9.5622,9.5622,0.0,0.0,0.0,0.0,0.0,0.0,0.0,0.0,7.2999,7.38,0.0,0.0,0.0,0.0,0.0,6.9311,7.0613,7.1492,7.1489,7.2151,7.2559,7.2538,7.1778,7.1729,7.2462,7.2496,7.3578,7.5777,7.6555,7.7705,7.9194,8.0648,8.1731,8.2449,8.3219,8.3937,8.4688,8.5134,8.6472,8.8266,8.8679,8.9516,9.0571,9.1297,9.2058,9.2656,9.2656,9.3119,0.0,9.2124,0.0,0.0,0.0,0.0,0.0,9.6001,9.5471,9.4908,0.0,0.0,0.0,9.5968,9.7592,9.9249,9.9282,9.9282,9.9315,9.9282,9.9282,9.9315,9.9315,9.9844,10.0805,10.2194,10.2492,10.3024,10.4482,10.4681,10.4681,10.4681,10.4681,10.4681,10.4681,10.4681,10.4681,10.4681,10.4681,10.531,10.6801,10.69,10.7596,10.9087,10.7301,10.5585,10.3781,10.2089,10.0298,9.8463,9.8011,9.7783,9.7738,9.6774,9.6311,9.6264,9.578,9.5622,9.5622,9.5622,9.5622,9.5622,9.5622,9.5622,9.5622,9.5622,9.5622,9.5622,0.0,0.0,0.0,0.0,0.0,7.2891,7.347,7.3579,7.3635,0.0,0.0,0.0,7.3689,7.376,7.3667,7.3227,7.411,7.421,7.2983,7.37,7.3897,7.3266,7.3513,7.3758,7.3984,7.4525,7.5642,7.7333,7.757,7.872,8.0716,8.1663,8.2475,8.3219,8.3751,8.4689,8.5909,8.6377,8.7338,8.8746,8.9652,9.0233,9.0505,9.0734,9.1264,0.0,0.0,9.2026,9.2225,0.0,9.3384,9.4776,0.0,0.0,9.6001,9.6001,9.5471,9.4776,9.4246,0.0,0.0,0.0,0.0,0.0,9.8387,9.8917,9.9149,9.8619,9.895,9.9315,9.9315,9.9844,10.0606,10.16,10.2196,10.2791,10.3822,10.4418,10.4681,10.4681,10.4681,10.4681,10.4681,10.4681,10.4681,10.4681,10.4681,10.5078,10.6072,10.7099,10.8126,10.9087,10.7301,10.5585,10.3781,10.2089,10.0092,9.7965,9.7874,9.7418,9.6728,9.645,9.6125,9.578,9.5669,9.5622,9.5622,9.5622,9.5622,9.5622,9.5622,9.5622,9.5622,9.5622,9.5622,9.5622,0.0,0.0,7.4112,7.3776,7.3943,7.4322,7.4807,7.5084,7.5223,0.0,0.0,0.0,7.5016,7.5412,7.5548,7.5218,7.5311,7.5006,7.402,7.4423,7.4491,7.3974,7.4661,7.5236,7.5574,7.598,7.6927,7.845,7.845,7.9431,8.1317,8.2374,8.3006,8.3407,8.4595,8.5621,8.6543,8.7414,8.8342,8.9331,9.0194,0.0,9.1032,9.1662,9.2126,0.0,0.0,0.0,9.3815,9.3318,9.3914,0.0,0.0,0.0,0.0,0.0,9.5471,9.4809,9.4378,9.4246,9.4445,9.5173,0.0,0.0,9.7956,9.8785,9.9116,9.8354,9.9017,9.9612,9.9381,9.9612,10.0109,10.077,10.1267,10.1896,10.2991,10.3786,10.4184,10.4184,10.4482,10.4681,10.4681,10.4681,10.4681,10.4681,10.4681,10.4979,10.581,10.7198,10.8192,10.8623,10.6513,10.48,10.3781,10.132,9.9344,9.7783,9.7555,9.7051,9.6311,9.6078,9.5874,9.5622,9.5622,9.5622,9.5622,9.5622,9.5622,9.5622,9.5622,9.5622,9.5622,9.5622,9.5622,9.5622,0.0,0.0,7.606,7.5352,7.5827,7.6341,7.6435,7.691,7.725,0.0,7.7915,7.806,7.7329,7.7315,7.6999,7.6153,7.5574,7.5178,7.5134,7.5202,7.5212,7.5212,7.5946,7.6657,7.7367,7.7468,7.8145,7.9498,7.9498,8.0242,8.1663,8.299,8.3568,8.3598,8.5569,8.6543,8.6858,8.8269,8.9271,9.0003,9.0429,9.0999,0.0,0.0,9.3782,9.4014,9.4743,9.5869,9.6697,9.471,9.4411,0.0,0.0,0.0,0.0,0.0,9.5471,9.4975,9.4809,9.4842,9.5074,9.5703,9.5935,0.0,9.7757,9.8718,9.9116,9.8453,9.938,10.0109,9.9513,9.9414,9.9579,10.0209,10.0174,10.0705,10.2196,10.3024,10.3488,10.3623,10.4219,10.4581,10.4681,10.4681,10.4681,10.4681,10.4681,10.4979,10.581,10.7099,10.7927,10.7993,10.5311,10.3781,10.3781,10.018,9.8192,9.7692,9.7189,9.6682,9.6218,9.578,9.5622,9.5622,9.5622,9.5622,9.5622,9.5622,9.5622,9.5622,9.5622,9.5622,9.5622,9.5622,9.5622,9.5622,7.5245,7.5691,7.6192,7.6082,7.656,7.7167,7.7924,7.8055,7.8221,7.8714,7.9368,7.9732,7.9557,7.9571,7.9257,7.8483,7.8855,7.8855,7.828,7.8788,7.9126,7.9126,7.9803,8.0302,8.0437,8.1021,8.1494,8.1765,8.1765,8.2483,8.3937,8.4028,8.4811,8.6162,8.6448,8.7061,8.7945,8.8882,8.9702,9.0431,9.1097,9.1463,9.1726,9.2556,9.3649,9.4776,9.5505,9.5968,9.6167,9.5736,9.5273,9.5074,0.0,0.0,0.0,0.0,0.0,0.0,9.4345,9.4445,0.0,0.0,0.0,0.0,9.7128,9.832,9.9282,9.9116,9.9712,10.0308,10.0109,10.0109,10.0075,10.0308,9.9844,9.9977,10.1401,10.2194,10.289,10.3488,10.3687,10.3985,10.4614,10.4681,10.4681,10.4681,10.4681,10.4979,10.581,10.6602,10.7397,10.7993,10.5311,10.3781,10.3781,9.9872,9.7692,9.7143,9.6682,9.6171,9.5733,9.5669,9.5622,9.5622,9.5622,9.5622,9.5622,9.5622,9.5622,9.5622,9.5622,9.5622,9.5622,9.5622,9.5622,9.5622,7.6321,7.6745,7.7117,7.6734,7.7166,7.788,7.8735,7.9076,7.9473,8.0151,8.085,8.1291,8.1291,8.1629,8.1697,8.1325,8.1629,8.1697,8.1325,8.1629,8.1697,8.1325,8.2002,8.2205,8.1866,8.2205,8.2577,8.2949,8.2825,8.3489,8.4939,8.5043,8.5705,8.6752,8.7003,8.7732,8.8864,8.963,9.0602,9.1596,9.1596,9.1826,9.2225,9.2954,9.4146,9.5538,9.63,9.6797,9.7028,9.6664,9.6565,0.0,0.0,9.577,9.5438,0.0,9.5173,9.4908,0.0,0.0,0.0,9.5372,0.0,0.0,0.0,9.7956,9.8884,9.9215,9.9811,10.0308,10.0308,10.001,9.991,10.0174,9.9745,9.9645,10.0705,10.1202,10.1699,10.2395,10.2826,10.319,10.3588,10.3919,10.4283,10.4716,10.4681,10.4915,10.5211,10.5178,10.5391,10.6111,10.3488,10.2023,10.2112,9.9239,9.7418,9.6682,9.6404,9.6031,9.5622,9.5622,9.5622,9.5622,9.5622,9.5622,9.5622,9.5622,9.5622,9.5622,9.5622,9.5622,9.5622,9.5622,9.5622,9.5499,7.7369,7.774,7.8076,7.7532,7.8007,7.8797,7.974,8.0287,8.0885,8.1629,8.2374,8.2821,8.2821,8.349,8.3862,8.3727,8.3998,8.4099,8.393,8.4065,8.3896,8.3287,8.3828,8.3903,8.3385,8.3385,8.3629,8.4149,8.3941,8.4539,8.5884,8.618,8.6688,8.7383,8.7969,8.8818,8.9735,9.0569,9.1629,9.2656,9.2192,9.2457,9.3219,9.408,9.5273,9.6532,9.726,9.789,9.8321,9.7724,9.7923,9.8122,9.63,9.5637,0.0,0.0,0.0,0.0,0.0,0.0,0.0,0.0,0.0,9.567,0.0,0.0,0.0,9.9182,9.9811,10.0308,10.0109,9.9778,9.9612,10.001,9.9645,9.9514,10.001,10.0109,10.0507,10.1501,10.1931,10.2194,10.2693,10.3389,10.3985,10.4518,10.4816,10.4706,10.4184,10.3598,10.3418,10.3621,10.1305,10.0109,10.021,9.8404,9.7097,9.6311,9.6218,9.5967,9.5622,9.5622,9.5622,9.5622,9.5622,9.5622,9.5622,9.5622,9.5622,9.5622,9.5622,9.5622,9.5622,9.5622,9.5452,9.5169,7.7439,7.7636,7.8315,7.8936,7.9546,8.048,8.1985,8.2162,8.2408,8.3152,8.3896,8.4343,8.4343,8.5046,8.5249,8.4546,0.0,0.0,8.5554,8.6163,8.6501,8.6372,8.6467,8.6635,8.6897,8.6931,8.6825,8.661,8.6582,8.6989,8.7855,8.7604,8.8405,8.9947,9.0111,9.0421,9.0901,9.1986,9.2556,9.2722,9.3318,9.3981,9.4809,9.62,9.7227,9.8056,9.8785,9.9116,9.9182,9.9083,9.9116,9.9149,0.0,9.8354,9.7724,9.7161,0.0,0.0,0.0,0.0,0.0,0.0,9.6929,0.0,0.0,0.0,9.9215,9.9282,0.0,10.0109,9.9513,0.0,0.0,9.948,9.9348,9.9348,9.9414,9.9414,10.021,10.2095,10.1302,10.1302,10.3289,10.4084,10.4283,10.3822,10.4913,10.4695,10.2612,10.2998,10.2591,10.1169,10.0099,9.9489,9.9538,9.7488,9.6404,9.6311,9.5874,9.564,9.5622,9.5622,9.5622,9.5622,9.5622,9.5622,9.5622,9.5622,9.5622,9.5622,9.5622,9.5622,9.5622,9.5622,9.5027,9.4162,7.9314,7.9511,8.0083,8.0389,8.1028,8.1825,8.2938,8.3446,8.3964,8.4708,8.5114,8.5621,8.6501,8.7245,0.0,0.0,0.0,8.9111,0.0,0.0,8.8436,8.8192,8.7997,8.7762,8.7515,8.7312,8.7577,8.827,8.7695,8.8037,8.9172,8.8845,8.932,9.0435,9.0031,9.063,9.2048,9.2951,9.3815,9.471,9.5869,9.6763,9.736,9.673,9.7459,9.895,9.9612,9.9877,9.9811,9.9447,9.9844,10.0308,9.905,0.0,0.0,9.7923,0.0,0.0,0.0,0.0,0.0,0.0,0.0,0.0,9.8122,0.0,9.8652,0.0,0.0,0.0,0.0,0.0,0.0,0.0,9.9877,9.9877,9.9877,9.9546,9.9778,10.1103,10.0705,10.077,10.2196,10.2991,10.3488,10.3588,10.4617,10.4297,10.2317,10.1486,10.0401,9.8828,9.7819,9.7219,9.7073,9.6559,9.6171,9.5874,9.5686,9.5622,9.5622,9.5622,9.5622,9.5622,9.5622,9.5622,9.5622,9.5622,9.5622,9.5575,9.4904,9.5074,9.5499,9.4904,9.4381,9.3827,8.1674,8.1594,8.1663,8.1866,8.234,8.2949,8.3693,8.4437,8.5148,8.5723,8.596,8.667,8.8125,8.8767,0.0,0.0,9.0881,9.1131,0.0,0.0,9.0057,8.9459,8.92,0.0,0.0,8.8089,8.848,8.9573,8.8602,8.8712,8.9743,8.9501,8.9776,9.0472,9.037,9.1198,9.2755,9.3683,9.471,9.5836,9.7293,9.8486,9.9149,9.7724,9.8188,9.9645,10.0109,10.0308,10.0308,9.9977,10.0606,10.1102,9.9546,9.9281,9.9447,9.895,9.8254,9.7857,9.8552,9.8652,9.852,0.0,0.0,0.0,0.0,0.0,0.0,0.0,0.0,0.0,0.0,0.0,9.9645,0.0,0.0,10.0174,10.0076,9.9778,9.9811,10.0472,10.0606,10.0704,10.1103,10.2095,10.289,10.3289,10.4418,10.4198,10.2317,10.0393,9.8712,9.7165,9.5845,9.503,9.4848,9.5499,9.5676,9.5331,9.5535,9.5622,9.5622,9.5622,9.5622,9.5622,9.5622,9.5622,9.5622,9.5622,9.5622,9.5499,9.4429,9.4477,9.5027,9.3971,9.3395,9.296,8.4328,8.3321,8.2611,8.3287,8.3456,8.3727,8.4444,8.5249,8.5757,8.5817,8.6433,0.0,0.0,0.0,0.0,0.0,0.0,9.1552,9.0841,0.0,9.14,0.0,0.0,0.0,0.0,9.0523,9.0374,9.0469,8.9707,8.9376,8.9409,8.9409,8.9776,9.0538,9.196,9.2623,9.2788,9.4246,9.4875,9.5074,9.6532,9.7989,9.9381,9.9944,10.0209,10.0308,10.0308,10.0308,10.0407,10.1103,10.1401,10.1401,10.13,10.077,10.0308,10.0174,9.9745,9.9381,9.9976,9.9745,9.9282,9.9282,9.9282,9.9282,0.0,0.0,10.0904,0.0,0.0,0.0,0.0,0.0,0.0,0.0,0.0,0.0,0.0,9.9877,10.0472,10.1302,10.1401,10.1103,10.0407,10.2296,10.3289,10.2627,10.4479,10.4725,10.228,10.0089,9.8139,9.6461,9.45,9.3473,9.3457,9.4256,9.4635,9.4664,9.5302,9.5622,9.5622,9.5622,9.5622,9.5622,9.5622,9.5622,9.5622,9.5622,9.5622,9.5499,9.4429,9.4019,9.3923,9.2912,9.1888,9.1001,8.5452,8.5384,8.5317,8.5046,8.5418,8.5993,8.6738,8.623,8.6501,0.0,0.0,0.0,0.0,9.1189,9.1537,0.0,0.0,9.2229,9.2024,9.2018,0.0,0.0,0.0,9.1529,0.0,0.0,9.0718,9.1231,9.0502,9.0403,9.0867,9.0867,9.1231,9.1993,9.2457,9.3219,9.4213,9.5206,9.62,9.7194,9.8652,9.9513,9.9944,9.9712,9.991,10.0308,10.0308,10.0308,10.0274,10.0606,10.0705,10.0705,10.0705,10.0209,9.9712,10.0209,9.9811,9.9481,10.0109,10.0109,9.9944,9.9944,9.9944,9.9844,9.9414,9.9645,0.0,0.0,0.0,0.0,0.0,0.0,0.0,0.0,0.0,0.0,0.0,9.948,9.9712,9.9977,10.0407,10.0606,10.0274,10.1898,10.2594,10.1797,10.3819,10.3384,9.9499,9.9937,9.8291,9.3948,9.4412,9.4147,9.2946,9.3652,9.4199,9.4606,9.4838,9.5186,9.5622,9.5622,9.5622,9.5622,9.5622,9.5622,9.5622,9.5622,9.5169,9.4429,9.3395,9.2572,9.1937,9.1593,9.1199,9.0858,8.7008,8.7347,8.738,8.6366,8.6805,8.7448,8.7922,8.7651,8.7955,0.0,8.985,0.0,9.2217,0.0,9.2478,0.0,9.2891,9.293,9.3197,9.2984,0.0,9.3415,9.2915,0.0,0.0,0.0,9.1256,9.1627,9.0867,9.0767,9.1198,9.1198,9.1596,9.2324,9.2854,9.3749,9.4941,9.5703,9.6697,9.7923,9.9347,10.0174,10.0605,10.0209,10.0507,10.1103,10.1103,10.087,10.0705,10.0705,10.0472,10.0308,10.0308,10.001,9.9745,10.0209,9.9811,9.938,9.9811,9.9944,9.9944,9.9944,10.0109,10.0209,9.9745,9.9844,9.9844,0.0,0.0,0.0,0.0,0.0,0.0,0.0,0.0,0.0,0.0,9.9315,9.9315,9.9315,9.9877,10.0308,10.0308,10.1401,10.1996,10.1797,10.2877,10.2322,9.9643,9.9283,9.7544,9.3851,9.4012,9.3526,9.237,9.3009,9.3532,9.3938,9.4402,9.4838,9.5273,9.5505,9.5622,9.5622,9.5622,9.5622,9.5575,9.5216,9.4619,9.3875,9.2474,9.1495,9.0852,9.0454,9.0355,9.031,8.9066,8.9201,8.8767,8.7482,8.7719,8.8158,8.826,8.9376,9.0019,0.0,9.0498,9.1802,9.2962,9.2494,9.2543,9.3588,9.3444,0.0,9.4225,9.4292,0.0,0.0,9.4119,9.3448,9.2787,0.0,0.0,0.0,9.0999,9.0604,9.0538,9.0571,9.0999,9.1761,9.3153,9.4213,9.5008,9.5703,9.6432,9.7227,9.8718,10.021,10.13,10.1401,10.1898,10.2492,10.2492,10.1996,10.1401,10.1401,10.0904,10.0308,10.0308,10.0308,10.0209,10.0308,9.9811,9.9315,9.9348,9.9348,9.9348,9.9348,9.9811,10.0308,10.0308,10.0804,10.1102,10.0373,10.0904,0.0,0.0,0.0,0.0,0.0,0.0,0.0,0.0,9.9282,9.9315,9.9348,9.991,10.0308,10.0308,10.1004,10.1699,10.2294,10.179,10.1584,10.2097,9.8332,9.5998,9.5751,9.3243,9.1851,9.1806,9.237,9.269,9.2719,9.3967,9.4577,9.4635,9.5302,9.5622,9.5622,9.5622,9.5575,9.5452,9.4429,9.3923,9.3635,9.1691,9.0852,9.0703,8.9654,8.9301,8.9301,9.0696,9.0729,9.0966,9.1744,9.0628,9.0222,9.188,0.0,0.0,0.0,9.2272,9.2166,9.3066,9.322,9.3395,9.3735,9.3929,0.0,0.0,0.0,0.0,9.408,9.4406,9.424,9.3517,9.3413,0.0,9.2391,9.2788,9.2391,9.1331,9.1861,9.2523,9.3252,9.3616,9.4511,9.5736,9.5935,9.6432,9.7293,9.9248,10.0308,10.0605,10.1202,10.2196,10.3223,10.2726,10.1996,10.1401,10.1401,10.0606,9.9645,10.0075,9.9579,9.8917,10.001,9.9811,9.9414,9.991,10.001,10.001,10.001,10.0209,10.0308,10.0308,10.0373,10.0472,10.0274,10.0507,10.0472,10.0274,0.0,0.0,0.0,0.0,0.0,0.0,0.0,9.948,9.9977,10.0209,10.0308,10.0308,10.1004,10.1302,10.0904,10.1691,10.0603,9.7172,9.7828,9.6428,9.2258,9.2908,9.282,9.1806,9.1935,9.2254,9.2719,9.3532,9.417,9.4635,9.5302,9.5622,9.5622,9.5622,9.5169,9.4381,9.4114,9.3105,9.1642,9.11,9.0405,8.9654,8.9402,8.9301,8.9301,9.1305,9.1846,9.2556,9.3465,9.2676,9.2284,9.3229,9.2705,0.0,9.4001,9.3769,0.0,9.4305,9.4107,9.392,9.3813,9.3973,0.0,9.471,0.0,0.0,9.524,9.5008,9.471,9.4279,9.3948,0.0,9.3186,0.0,9.3053,9.2556,9.2656,9.3418,9.4743,9.4743,9.5571,9.6962,9.6962,9.7393,9.8155,9.938,10.0209,0.0,10.1201,10.213,10.3091,10.2592,10.2194,10.1931,10.1931,10.0904,9.9844,10.0606,10.001,9.9281,10.0109,9.9811,9.9381,9.9745,9.9844,9.9844,9.9844,10.0109,10.0308,10.0308,10.0506,10.0805,10.0805,10.0805,10.0805,10.0805,10.0472,0.0,0.0,0.0,0.0,0.0,0.0,0.0,0.0,10.0606,10.087,10.1201,10.1103,10.0601,9.9861,9.9982,9.8587,9.5226,9.5565,9.4469,9.1352,9.2056,9.2245,9.1806,9.1806,9.1964,9.2312,9.2951,9.359,9.4228,9.4867,9.5331,9.5622,9.5622,9.498,9.3971,9.3539,9.2377,9.0852,9.0405,8.9804,8.9301,8.9301,8.9301,8.9301,9.188,9.2962,9.3939,9.404,9.4216,9.4173,9.3571,9.4084,9.4482,9.425,9.4758,9.5307,9.5734,9.4849,9.42,9.4112,0.0,9.4511,9.5902,9.5405,9.5571,9.6763,9.567,9.5008,9.4908,9.4378,0.0,0.0,9.3384,9.3351,9.3782,9.3219,9.4014,9.5869,9.5968,9.6763,9.8056,9.8155,9.852,9.905,9.9215,10.001,10.1102,10.13,10.1898,10.2492,10.2393,10.2393,10.2492,10.2492,10.1598,10.0705,10.13,10.1103,10.0606,10.0507,10.001,9.9546,9.9481,9.9447,9.9447,9.9546,10.001,10.0507,10.0606,10.1103,10.1499,10.1499,10.1501,10.1401,10.1401,10.0805,10.0308,0.0,0.0,0.0,0.0,0.0,0.0,0.0,0.0,0.0,10.2594,10.1201,9.9966,9.9271,9.7908,9.6346,9.4565,9.2906,9.1747,9.1319,9.0986,9.1122,9.1806,9.1806,9.1864,9.1906,9.2457,9.3009,9.3606,9.4199,9.4838,9.5476,9.5249,9.4636,9.3617,9.2605,9.1587,9.0604,8.9654,8.9301,8.9301,8.9301,8.9301,8.9301,9.4992,9.5229,9.5601,9.624,9.5663,9.5158,9.5384,9.4543,9.3981,9.4243,9.438,9.4621,9.5034,9.4374,9.4343,9.5505,9.5074,0.0,0.0,0.0,0.0,9.5306,9.5637,9.5538,9.4908,9.5372,9.5339,0.0,9.5173,9.4875,9.3815,9.4279,9.471,9.5107,9.5736,9.6498,9.7327,9.7956,9.7923,9.7592,9.8784,9.9481,9.9778,10.1004,10.1898,10.2393,10.1797,10.2031,10.2492,10.2492,10.2294,10.2095,10.2296,10.2194,10.1996,10.1401,10.1102,10.0904,10.0308,10.0109,10.0308,10.0904,10.1102,10.1401,10.2031,10.2194,10.2294,10.2294,10.1797,10.1401,10.1401,10.0805,10.0308,0.0,0.0,0.0,0.0,0.0,0.0,0.0,0.0,10.1931,0.0,10.1501,9.9966,9.9271,9.8328,9.6012,9.1933,9.2793,9.1955,8.8709,9.002,9.1122,9.1806,9.1806,9.2022,9.2545,9.2661,9.2777,9.2893,9.3532,9.417,9.4704,9.3391,9.2507,9.1909,9.089,9.0114,8.9553,8.9352,8.9301,8.9301,8.9301,8.9301,8.9301,9.6277,9.6345,9.645,9.6605,9.6061,9.5484,9.5107,9.4651,9.459,9.5322,9.5422,9.5658,9.6228,9.5469,9.524,9.5935,9.567,9.5637,9.6001,9.6001,9.5836,9.5505,9.5438,9.5438,9.5471,9.5438,9.5438,9.5471,9.5836,9.5637,9.4941,9.5306,9.5869,9.6631,9.7757,9.8221,9.8254,9.8619,9.8586,9.8287,9.9017,9.948,9.9944,10.1004,10.1598,10.1896,10.1997,10.2726,10.3521,10.2792,10.2492,10.2627,10.289,10.3091,10.2991,10.2627,10.2792,10.3024,10.2693,10.2594,10.2693,10.3024,10.3091,10.319,10.3588,10.3919,10.4118,10.372,10.3389,10.2792,10.1598,10.1102,10.0606,9.991,0.0,0.0,0.0,0.0,0.0,0.0,0.0,0.0,0.0,0.0,9.938,9.8668,9.7527,9.4959,9.0624,9.1212,9.05,8.7972,8.9424,9.0629,9.1267,9.1616,9.1935,9.2225,9.2225,9.2399,9.2748,9.3386,9.4025,9.4559,9.3558,9.2733,9.1956,9.0312,8.9509,8.9301,8.9301,8.9301,8.9301,8.9301,8.9301,8.9301,9.6927,9.7031,9.6939,9.6568,9.6256,9.574,9.4888,9.5001,9.537,9.6059,9.6291,9.6624,9.7223,9.6364,9.5836,9.6001,9.6001,9.6068,9.6233,9.6366,9.6465,9.6465,9.577,9.5637,9.6233,9.5505,9.5438,9.6001,9.6001,9.5935,9.577,9.6101,9.7028,9.8486,9.9579,9.9712,9.9083,9.9249,9.9215,9.9083,9.9249,9.9778,10.0606,10.1401,10.1797,10.2196,10.2792,10.3919,10.4979,10.3585,10.3287,10.3486,10.4084,10.4283,10.4319,10.4084,10.4482,10.4879,10.4714,10.4681,10.4714,10.4879,10.4913,10.5015,10.5111,10.5608,10.5807,10.5078,10.4681,10.3819,10.1799,10.1401,10.1103,10.0109,0.0,0.0,0.0,0.0,0.0,0.0,0.0,0.0,10.0298,9.9541,9.8807,9.8133,9.6809,9.4145,8.9842,8.9939,8.9393,8.7783,8.909,9.0193,9.1006,9.1529,9.1893,9.1964,9.1893,9.2109,9.2719,9.3241,9.3788,9.4262,9.3571,9.2621,9.1496,8.9813,8.9193,8.9301,8.9301,8.9301,8.9301,8.9301,8.9301,8.9301,9.7361,9.7433,9.7342,9.6995,9.6677,9.6419,9.632,9.6064,9.567,9.5106,9.5603,9.6067,9.6134,9.5471,9.5273,9.5935,9.6001,9.63,9.6962,9.7625,9.7989,9.7989,9.7293,9.6929,9.6995,9.6266,9.5935,9.6001,9.6001,9.567,9.5041,9.6366,9.779,9.9215,9.9348,9.8983,9.8354,9.9017,9.8917,9.8354,9.905,10.0109,10.1401,10.2095,10.3223,10.4383,10.4482,10.5409,10.6602,10.5774,10.5906,10.6503,10.6602,10.6602,10.6503,10.5774,10.5608,10.5611,10.4879,10.4681,10.4915,10.5509,10.5708,10.5873,10.6503,10.6701,10.6602,10.5807,10.4614,10.319,10.1699,10.1401,10.16,10.2095,10.1102,0.0,0.0,0.0,0.0,0.0,0.0,0.0,0.0,9.9474,9.8736,9.8063,9.7215,9.4461,8.9273,9.0647,9.0212,8.7173,8.8858,9.0425,9.1719,9.1777,9.2051,9.2632,9.2051,9.2109,9.2719,9.2777,9.2938,9.3142,9.1586,9.0084,8.8764,8.8564,8.884,8.9301,8.9301,8.9301,8.9301,8.9301,8.9301,8.9301,9.7155,9.7191,9.7096,9.6745,9.6585,9.659,9.6794,9.6763,9.673,9.683,9.6763,9.683,9.726,9.7061,9.6995,9.726,9.7293,9.7426,9.7724,9.8056,9.8221,9.8221,9.7923,9.7558,9.7128,9.683,9.6432,9.6001,9.6863,9.6929,9.6233,9.726,9.7823,9.8022,9.8883,9.8884,9.8254,9.8983,9.9149,9.8983,10.0109,10.1202,10.2229,10.3389,10.4482,10.5409,10.5873,10.6701,10.7496,10.7198,10.7,10.69,10.69,10.7198,10.7496,10.7198,10.7397,10.7695,10.7397,10.7298,10.7397,10.7695,10.7795,10.7894,10.8192,10.7894,10.7397,10.6602,10.4913,10.3389,10.2792,10.2693,10.2395,10.13,10.1103,10.0805,0.0,0.0,0.0,0.0,0.0,0.0,0.0,0.0,9.6722,9.6092,9.6087,9.4338,9.0299,9.0798,9.0092,8.7637,8.9032,9.0251,9.118,9.1587,9.1906,9.2138,9.1906,9.1906,9.2167,9.1923,9.1396,9.0649,9.0012,8.9049,8.7945,8.8297,8.8519,8.8813,8.9166,8.9301,8.9301,8.9301,8.9301,8.9301,9.6873,9.6841,9.6812,9.6691,9.6691,9.686,9.7327,9.7426,9.7691,9.8453,9.8055,9.7857,9.8188,9.8221,9.8221,9.8221,9.842,9.852,9.852,9.8718,9.8851,9.8851,9.8652,9.8288,9.7757,9.7327,9.6863,9.6333,9.7128,9.7161,9.6465,9.7194,9.7625,9.779,9.8817,9.9017,9.8586,9.9281,9.9579,9.9712,10.1102,10.2329,10.3289,10.4515,10.5608,10.6503,10.7,10.7695,10.8325,10.8325,10.7993,10.753,10.753,10.7894,10.8325,10.8325,10.8722,10.912,10.912,10.912,10.912,10.912,10.912,10.912,10.912,10.8486,10.7728,10.6801,10.5213,10.3921,10.3588,10.3588,10.3091,10.1501,10.1195,10.0691,9.9735,9.8683,0.0,0.0,0.0,0.0,9.5158,9.5429,9.5407,9.4743,9.4751,9.3677,9.1019,9.1011,9.0122,8.7943,8.9133,9.0091,9.0803,9.1441,9.1806,9.1806,9.1806,9.1741,9.1598,9.0912,9.0056,8.9106,8.8765,8.8255,8.7619,8.8026,8.8189,8.8216,8.865,8.8921,8.9057,8.9057,8.9166,8.9301,9.6585,9.652,9.6624,9.7028,9.7095,9.7327,9.8089,9.8188,9.8453,9.9215,9.9282,9.9017,9.8288,9.8221,9.8221,9.8221,9.8884,9.9315,9.9315,9.991,10.0308,10.0308,9.9645,9.9282,9.9282,9.7857,9.7095,9.7095,9.6366,9.567,9.4941,9.567,9.7194,9.9282,9.9315,9.9315,9.9348,10.001,10.0308,10.0407,10.1931,10.3389,10.4816,10.5509,10.6701,10.7993,10.7993,10.849,10.912,10.912,10.912,10.9087,10.9087,10.912,10.912,10.912,10.912,10.912,10.912,10.912,10.912,10.912,10.912,10.912,10.912,10.8486,10.7596,10.6105,10.5211,10.4518,10.3687,10.3588,10.3623,10.3623,10.1698,10.0315,10.0315,9.8952,0.0,0.0,0.0,0.0,9.5837,9.5729,9.5407,9.4743,9.3479,9.2208,9.0979,9.1466,9.0602,8.7972,8.9133,9.0091,9.0803,9.1441,9.1806,9.1806,9.1806,9.1581,9.1144,8.9738,8.9155,8.9058,8.8058,8.7592,8.7592,8.7592,8.7592,8.7592,8.7619,8.7945,8.8383,8.8383,8.8813,8.9301,9.6928,9.7293,9.7724,9.7824,9.7823,9.8122,9.8851,9.895,9.9182,9.9877,9.9977,9.9877,9.9645,9.9612,9.9612,9.9612,9.9844,9.9977,9.9977,10.0209,10.0308,10.0308,10.0109,9.9778,9.9315,9.8817,9.8353,9.7823,9.8122,9.8122,9.789,9.8618,9.8784,9.8586,9.9083,9.9546,10.001,10.0209,10.1202,10.2594,10.3588,10.4879,10.6304,10.7,10.7894,10.8685,10.8685,10.8921,10.912,10.912,10.912,10.912,10.912,10.912,10.912,10.912,10.912,10.912,10.912,10.912,10.912,10.912,10.912,10.902,10.849,10.7397,10.6205,10.5313,10.4915,10.4581,10.4383,10.4316,10.4219,10.3722,10.2192,10.0905,10.0414,9.8517,9.6961,9.6186,9.5897,9.555,9.5065,9.5028,9.5312,9.6071,9.5758,9.4315,9.1678,9.0883,8.988,8.8611,8.938,9.0091,9.0803,9.1441,9.1806,9.1806,9.1806,9.1032,8.9542,8.8401,8.7479,8.6803,8.649,8.6344,8.6398,8.6854,8.7212,8.7646,8.7999,8.8514,8.8976,8.8519,8.8492,8.86,9.7525,9.7857,9.8288,9.8553,9.8619,9.8851,9.9546,9.9679,9.9811,10.0174,10.0308,10.0308,10.0308,10.0308,10.0308,10.0308,10.0308,10.0308,10.0308,10.0308,10.0308,10.0308,10.0308,10.0109,9.9679,9.9447,9.9083,9.8619,9.8818,9.8884,9.8917,9.9579,9.9579,9.9016,9.9745,10.0308,10.0671,10.1004,10.2097,10.3687,10.4681,10.6006,10.7397,10.8126,10.8722,10.912,10.912,10.912,10.912,10.912,10.912,10.912,10.912,10.912,10.912,10.912,10.912,10.912,10.912,10.912,10.912,10.912,10.8921,10.8424,10.7397,10.6503,10.5608,10.4915,10.4681,10.4681,10.4681,10.4681,10.4411,10.3296,10.2088,10.0888,9.9585,9.7933,9.6667,9.6253,9.5772,9.5375,9.5091,9.5059,9.5344,9.5944,9.5556,9.4237,9.1912,9.1296,9.0362,8.8945,8.9496,9.0091,9.0803,9.1441,9.1806,9.1761,9.1267,9.0271,8.8853,8.7878,8.7085,8.6452,8.6452,8.6452,8.6479,8.6859,8.7153,8.7266,8.7619,8.7999,8.827,8.789,8.7917,8.8053,9.8288,9.8321,9.8553,9.9249,9.9381,9.9579,10.0209,10.0308,10.0308,10.0308,10.0308,10.0308,10.0308,10.0308,10.0308,10.0308,10.0308,10.0308,10.0308,10.0308,10.0308,10.0308,10.0308,10.0308,10.0308,9.9679,9.9414,9.9481,9.8718,9.8387,9.8453,9.9083,9.9679,10.0274,10.1002,10.1401,10.1499,10.2296,10.3091,10.402,10.5376,10.6801,10.8192,10.8784,10.912,10.912,10.912,10.912,10.912,10.912,10.912,10.912,10.912,10.912,10.912,10.912,10.912,10.912,10.912,10.912,10.912,10.8983,10.8424,10.7496,10.6105,10.581,10.5509,10.4813,10.4681,10.4681,10.4681,10.4678,10.4094,10.2682,10.1817,10.0482,9.8277,9.7332,9.6766,9.6703,9.6703,9.645,9.5755,9.5691,9.547,9.4964,9.3775,9.2779,9.2216,9.2732,9.1763,8.9018,8.9526,9.0193,9.0803,9.1441,9.179,9.1758,9.034,8.9495,8.9058,8.8113,8.7646,8.7592,8.7592,8.7565,8.7538,8.7538,8.7185,8.6718,8.6718,8.6745,8.6773,8.6718,8.7044,8.7456,9.905,9.9447,9.9844,10.001,10.0076,10.0109,10.0308,10.0308,10.0308,10.0308,10.0308,10.0308,10.0308,10.0308,10.0308,10.0308,10.0308,10.0308,10.0308,10.0308,10.0308,10.0308,10.0308,10.0308,10.0308,10.0075,10.0308,10.0904,10.0209,10.0109,10.0606,10.0174,10.0075,10.0308,10.0507,10.1202,10.2329,10.3024,10.4383,10.6205,10.7099,10.8027,10.8888,10.8983,10.912,10.912,10.912,10.912,10.912,10.912,10.912,10.912,10.912,10.912,10.912,10.912,10.912,10.912,10.912,10.912,10.8987,10.8424,10.7298,10.6205,10.5873,10.5412,10.4879,10.4714,10.4681,10.4681,10.4681,10.4214,10.3677,10.3298,10.1594,10.0004,9.8912,9.7618,9.6576,9.6007,9.5944,9.5881,9.5691,9.5691,9.6071,9.7019,9.678,9.633,9.5747,9.488,9.2723,8.9047,8.999,9.0613,9.0832,9.1441,9.166,9.1342,9.0325,8.9577,8.9058,8.8472,8.7999,8.7592,8.7592,8.7321,8.6935,8.6935,8.6854,8.6718,8.6718,8.699,8.7321,8.6881,8.6528,8.6127,9.9745,10.0076,10.0308,10.0308,10.0308,10.0308,10.0308,10.0308,10.0308,10.0308,10.0308,10.0308,10.0308,10.0308,10.0308,10.0308,10.0308,10.0308,10.0308,10.0308,10.0308,10.0308,10.0308,10.0507,10.0805,10.0507,10.0507,10.0904,10.0507,10.0705,10.1401,10.13,10.1501,10.1799,10.2494,10.3091,10.3588,10.4681,10.5807,10.7,10.7695,10.8387,10.912,10.912,10.912,10.912,10.912,10.912,10.912,10.912,10.912,10.912,10.912,10.912,10.912,10.912,10.912,10.912,10.912,10.8888,10.8288,10.7298,10.6403,10.5708,10.5376,10.4979,10.4681,10.4681,10.4681,10.4574,10.4181,10.3783,10.3303,10.2495,10.1406,10.0199,9.9081,9.8206,9.7461,9.6734,9.6671,9.6671,9.6671,9.6671,9.6987,9.7738,9.777,9.7389,9.6501,9.6008,9.4221,9.0793,9.078,9.0977,9.1238,9.1181,9.0912,9.052,8.9554,8.8842,8.8402,8.8138,8.789,8.7592,8.7592,8.7402,8.7076,8.7076,8.6963,8.6718,8.6718,8.6745,8.6724,8.642,8.6094,8.572,10.0308,10.0308,10.0308,10.0308,10.0308,10.0308,10.0308,10.0308,10.0308,10.0308,10.0308,10.0308,10.0308,10.0308,10.0307,10.0507,10.0507,10.0507,10.0507,10.0507,10.0507,10.0507,10.0507,10.0705,10.1201,10.0671,10.0472,10.0572,10.0572,10.1004,10.1698,10.2296,10.2791,10.3488,10.4714,10.5078,10.478,10.6171,10.69,10.7099,10.7894,10.8486,10.912,10.912,10.912,10.912,10.912,10.912,10.912,10.912,10.912,10.912,10.912,10.912,10.912,10.912,10.902,10.8987,10.9087,10.859,10.7695,10.6403,10.6006,10.5807,10.5178,10.4913,10.4879,10.4879,10.478,10.4499,10.3604,10.338,10.2891,10.1512,10.1094,10.0496,9.912,9.8883,9.8567,9.7865,9.777,9.777,9.777,9.777,9.7833,9.7928,9.7928,9.753,9.6564,9.6811,9.5914,9.3644,9.2085,9.1433,9.1806,9.0757,9.0028,8.9692,8.8697,8.804,8.7592,8.7673,8.7673,8.7592,8.7592,8.7538,8.7456,8.7456,8.7076,8.6582,8.6582,8.6257,8.5822,8.5822,8.572,8.5638,10.0209,10.0308,10.0308,10.0308,10.0308,10.0308,10.0308,10.0308,10.0308,10.0308,10.0308,10.0308,10.0308,10.0308,10.0606,10.1202,10.1201,10.1201,10.1201,10.1201,10.1201,10.1201,10.1201,10.1004,10.0507,10.1004,10.1499,10.2196,10.2196,10.2492,10.319,10.2691,10.2594,10.2726,10.289,10.3585,10.4816,10.5608,10.6701,10.7894,10.8623,10.902,10.912,10.912,10.912,10.912,10.912,10.912,10.912,10.912,10.912,10.912,10.912,10.912,10.912,10.912,10.8689,10.8325,10.8884,10.859,10.789,10.7695,10.7198,10.6701,10.6602,10.6105,10.5608,10.5608,10.5111,10.4499,10.3604,10.2905,10.2383,10.2005,10.0913,10.0021,9.9736,9.9199,9.8567,9.7865,9.777,9.777,9.777,9.777,9.8061,9.8599,9.8662,9.8836,9.927,9.8291,9.7549,9.7137,9.4663,9.2835,9.1806,9.0467,8.975,8.9692,8.8778,8.8094,8.7619,8.808,8.8053,8.7592,8.7592,8.7293,8.6854,8.6854,8.6501,8.5958,8.5958,8.5904,8.5822,8.5822,8.5448,8.496,10.0209,10.0308,10.0308,10.0308,10.0308,10.0308,10.0308,10.0308,10.0308,10.0308,10.0605,10.0704,10.0307,10.0705,10.0904,10.077,10.0805,10.1102,10.1896,10.1598,10.1401,10.1401,10.1401,10.14,10.1501,10.2196,10.2594,10.2492,10.2492,10.2892,10.3588,10.3289,10.3521,10.4316,10.4714,10.5509,10.6503,10.7298,10.7993,10.8623,10.8987,10.912,10.912,10.912,10.912,10.912,10.912,10.912,10.912,10.912,10.912,10.912,10.912,10.912,10.912,10.912,10.8888,10.849,10.8027,10.7993,10.7894,10.7496,10.7198,10.69,10.69,10.6602,10.6403,10.6403,10.5709,10.4797,10.3696,10.2809,10.1903,10.1119,10.029,9.9894,9.9894,9.961,9.9294,9.8978,9.8946,9.8946,9.8946,9.8946,9.9073,9.9389,9.9389,9.9547,9.9894,9.9306,9.8662,9.7939,9.5242,9.3174,9.1806,9.01,8.9187,8.9215,8.7698,8.6859,8.6615,8.6886,8.6859,8.6615,8.6615,8.6452,8.623,8.623,8.6067,8.5822,8.5822,8.5822,8.5747,8.5421,8.5123,8.4797,10.0209,10.0308,10.0308,10.0308,10.0308,10.0308,10.0308,10.0308,10.0308,10.0308,10.0805,10.0903,10.0407,10.0805,10.1103,10.0804,10.077,10.1401,10.2693,10.2229,10.1898,10.1898,10.1698,10.1896,10.2492,10.319,10.3289,10.2792,10.289,10.3289,10.3921,10.3921,10.4518,10.5575,10.6304,10.7099,10.7795,10.8486,10.8884,10.912,10.912,10.9219,10.9318,10.9186,10.9219,10.9318,10.9186,10.912,10.912,10.912,10.912,10.912,10.912,10.912,10.912,10.912,10.912,10.8888,10.7695,10.7828,10.8126,10.7596,10.7397,10.7397,10.7397,10.7298,10.7198,10.7198,10.6305,10.5189,10.3879,10.2874,10.1992,10.0804,10.0297,10.021,10.04,10.0116,9.9894,9.9894,9.9894,9.9894,9.9894,9.9894,9.9894,9.9894,9.9894,9.9894,9.9894,9.9894,9.9297,9.7939,9.5242,9.3306,9.227,8.9972,8.8812,8.8765,8.6758,8.5822,8.5822,8.5822,8.5822,8.5822,8.5822,8.5822,8.5822,8.5822,8.5822,8.5774,8.5638,8.5557,8.5502,8.4906,8.4688,8.4607,10.0209,10.0308,10.0308,10.0308,10.0308,10.0308,10.0308,10.0308,10.0308,10.0308,10.0307,10.0407,10.0308,10.0307,10.087,10.2194,10.2294,10.2693,10.3523,10.3523,10.3389,10.3389,10.2792,10.2393,10.2492,10.319,10.3623,10.3488,10.4184,10.4617,10.4581,10.4581,10.4681,10.478,10.5611,10.6304,10.7,10.7795,10.849,10.912,10.912,10.9484,10.9981,10.9385,10.9517,10.9981,10.9318,10.912,10.912,10.912,10.912,10.912,10.912,10.912,10.912,10.912,10.912,10.9087,10.902,10.902,10.902,10.8987,10.8884,10.8884,10.8884,10.8424,10.7927,10.7927,10.67,10.5287,10.4495,10.3717,10.2973,10.2806,10.1696,10.1095,10.1727,10.0716,9.9894,9.9894,9.9894,9.9894,9.9894,9.9894,9.9894,9.9894,9.9894,9.9894,9.9894,9.9894,9.9297,9.7939,9.5242,9.3759,9.3672,9.0448,8.8812,8.8765,8.6758,8.5822,8.5822,8.5822,8.5822,8.5822,8.5822,8.5822,8.5822,8.5822,8.5822,8.572,8.5177,8.496,8.4878,8.4281,8.4064,8.3983,10.0209,10.0308,10.0308,10.0308,10.0308,10.0308,10.0308,10.0705,10.1004,10.1004,10.1799,10.2196,10.1698,10.2097,10.2395,10.2492,10.2492,10.2826,10.359,10.3588,10.3588,10.3588,10.3786,10.3886,10.3886,10.4118,10.4319,10.4319,10.4617,10.4681,10.4681,10.4681,10.4913,10.5409,10.6208,10.7132,10.8325,10.9124,10.9782,11.0412,11.0412,11.061,11.071,11.0014,11.0018,11.0118,10.9385,10.912,10.912,10.912,10.912,10.912,10.912,10.912,10.912,10.912,10.912,10.912,10.912,10.912,10.912,10.912,10.912,10.912,10.912,10.8921,10.8689,10.8689,10.741,10.5986,10.5229,10.3992,10.2882,10.2504,10.1506,10.119,10.1885,10.0811,10.0084,10.0495,10.0179,9.9894,9.9894,9.9894,9.9894,9.9894,9.9894,9.9894,9.9894,9.9894,9.9656,9.9146,9.7332,9.5922,9.5041,9.1692,9.0042,8.9996,8.7133,8.5822,8.5822,8.5822,8.5822,8.5822,8.5822,8.5822,8.5747,8.5394,8.5231,8.5177,8.458,8.4336,8.4254,8.3657,8.344,8.3332,10.0209,10.0507,10.0605,10.0605,10.0804,10.1004,10.1004,10.14,10.1698,10.1698,10.2627,10.3091,10.2594,10.2991,10.3124,10.2892,10.2791,10.319,10.3886,10.3886,10.3886,10.3886,10.4383,10.4681,10.4681,10.4681,10.4681,10.4681,10.4681,10.4681,10.4681,10.4913,10.531,10.5909,10.7099,10.8192,10.9186,11.008,11.0714,11.0875,11.0875,11.0875,11.0809,11.008,11.0018,11.0118,10.9385,10.912,10.912,10.912,10.912,10.912,10.912,10.912,10.912,10.912,10.912,10.912,10.912,10.912,10.912,10.912,10.912,10.912,10.912,10.912,10.9012,10.8718,10.7579,10.6368,10.5616,10.4289,10.3181,10.2707,10.2012,10.1696,10.198,10.1,10.0305,10.059,10.021,9.9894,9.9894,9.9894,9.9894,9.9894,9.9894,9.98,9.9578,9.9547,9.9484,9.9262,9.8327,9.741,9.6449,9.301,9.1287,9.1213,8.7864,8.6257,8.6257,8.5919,8.5822,8.5822,8.5822,8.5665,8.5475,8.5068,8.4797,8.4553,8.3956,8.3712,8.363,8.3033,8.2789,8.2735,10.0308,10.0904,10.14,10.14,10.1996,10.2492,10.2492,10.2492,10.2492,10.2492,10.2492,10.2492,10.2492,10.2492,10.2826,10.3488,10.3588,10.3886,10.4716,10.4681,10.4681,10.4681,10.4681,10.4681,10.4681,10.4681,10.4681,10.4681,10.4681,10.4681,10.4681,10.5512,10.5807,10.5906,10.8126,10.912,10.9219,11.061,11.0809,11.0217,11.0217,11.0217,11.008,10.9385,10.9583,11.0118,10.9385,10.912,10.912,10.912,10.912,10.912,10.912,10.912,10.912,10.912,10.912,10.912,10.912,10.912,10.912,10.912,10.912,10.912,10.912,10.912,10.8896,10.8005,10.7194,10.6301,10.5506,10.4577,10.4034,10.4034,10.3402,10.2811,10.2107,10.138,10.0684,9.9989,9.9894,9.9894,9.9894,9.9894,9.9894,9.9894,9.9894,9.9578,9.8852,9.8788,9.8504,9.784,9.777,9.777,9.777,9.4148,9.2303,9.2258,8.8896,8.7283,8.7263,8.6257,8.5822,8.5774,8.5774,8.5421,8.4878,8.4878,8.4526,8.3929,8.3305,8.3107,8.3053,8.2409,8.2192,8.2192,10.1103,10.1699,10.2196,10.2196,10.2395,10.2492,10.2492,10.289,10.3289,10.3289,10.372,10.4018,10.4018,10.4018,10.4118,10.4418,10.4418,10.4518,10.4681,10.4681,10.4681,10.4681,10.4681,10.4681,10.4681,10.4681,10.4681,10.4681,10.4681,10.4681,10.4681,10.5512,10.5807,10.5906,10.8126,10.9385,10.9882,11.0809,11.1405,11.1604,11.1107,11.0909,11.0809,11.008,10.9981,11.0118,10.9385,10.912,10.912,10.912,10.912,10.912,10.912,10.912,10.912,10.912,10.912,10.912,10.912,10.912,10.912,10.912,10.912,10.912,10.912,10.912,10.8896,10.8005,10.7194,10.6301,10.5506,10.4577,10.4034,10.4034,10.3402,10.2897,10.2707,10.1696,10.0811,10.0621,10.021,9.9894,9.9894,9.9894,9.9894,9.9894,9.942,9.8852,9.8156,9.8125,9.803,9.784,9.777,9.777,9.777,9.5087,9.348,9.2971,8.9601,8.7774,8.7263,8.6257,8.5557,8.515,8.515,8.4824,8.4227,8.3793,8.3522,8.3305,8.268,8.2463,8.2436,8.2246,8.2192,8.2192,10.1797,10.2393,10.289,10.289,10.319,10.3389,10.3389,10.372,10.3985,10.3985,10.4383,10.4681,10.4681,10.4681,10.4681,10.4681,10.4681,10.4813,10.5078,10.4915,10.4681,10.4681,10.4681,10.4681,10.4681,10.4681,10.4681,10.4681,10.4681,10.4681,10.4681,10.5512,10.5807,10.5906,10.8126,10.9281,10.9782,11.0809,11.1306,11.1405,11.0975,11.061,11.0312,10.9915,10.982,10.9683,10.9285,10.912,10.912,10.912,10.912,10.912,10.912,10.912,10.912,10.912,10.912,10.912,10.912,10.912,10.912,10.912,10.912,10.912,10.912,10.8792,10.8309,10.7508,10.6726,10.5794,10.491,10.4404,10.4034,10.4034,10.3687,10.3307,10.2991,10.2012,10.1317,10.1317,10.0495,10.0116,10.0684,10.021,9.98,9.9484,9.882,9.8125,9.7461,9.7398,9.7271,9.6987,9.6987,9.6987,9.6987,9.5547,9.4391,9.3469,9.012,8.8063,8.713,8.5738,8.4878,8.4526,8.4281,8.3847,8.325,8.287,8.2572,8.2355,8.2246,8.2192,8.2192,8.2192,8.2192,8.2192,10.2627,10.319,10.3687,10.3687,10.4319,10.4681,10.4681,10.4681,10.4681,10.4681,10.4681,10.4681,10.4681,10.4681,10.4714,10.478,10.478,10.5114,10.5674,10.5078,10.4681,10.4681,10.4681,10.4681,10.4681,10.4681,10.4681,10.4681,10.4681,10.4681,10.4681,10.5512,10.5807,10.6006,10.8089,10.9082,10.9318,11.061,11.0814,11.0217,11.008,10.9683,10.912,10.912,10.912,10.912,10.912,10.912,10.912,10.912,10.912,10.912,10.912,10.912,10.912,10.912,10.912,10.912,10.912,10.912,10.912,10.912,10.912,10.912,10.912,10.8492,10.7733,10.6805,10.6017,10.5113,10.4199,10.4034,10.4034,10.4034,10.4034,10.3813,10.3086,10.2486,10.2075,10.2012,10.0906,10.059,10.1791,10.0621,9.9515,9.8788,9.8093,9.7429,9.6734,9.6703,9.6387,9.5723,9.5691,9.5691,9.5691,9.5691,9.5095,9.3837,9.0558,8.83,8.6935,8.4902,8.3942,8.382,8.325,8.268,8.2192,8.2192,8.1866,8.1432,8.1975,8.2192,8.2192,8.2192,8.2192,8.2192,10.3424,10.402,10.4518,10.4518,10.4581,10.4681,10.4681,10.4681,10.4681,10.4681,10.4681,10.4681,10.4681,10.4681,10.4913,10.5509,10.5575,10.5376,10.5015,10.478,10.4681,10.4681,10.4681,10.4681,10.4681,10.4681,10.4681,10.4681,10.4681,10.4681,10.4681,10.5512,10.6105,10.6701,10.8391,10.9418,11.0018,11.0317,11.0279,11.008,10.9583,10.9182,10.912,10.912,10.912,10.912,10.912,10.912,10.912,10.912,10.912,10.912,10.912,10.912,10.912,10.912,10.912,10.912,10.912,10.912,10.912,10.912,10.912,10.912,10.912,10.9008,10.8412,10.6889,10.6387,10.5794,10.4322,10.4034,10.4034,10.4034,10.4034,10.3813,10.3086,10.2906,10.2581,10.2075,10.1696,10.1411,10.119,9.9863,9.8757,9.8093,9.7398,9.6703,9.5976,9.5913,9.5849,9.5691,9.5691,9.5691,9.5691,9.5691,9.5303,9.4435,9.1431,8.9227,8.7654,8.4921,8.3269,8.2572,8.2436,8.2301,8.2192,8.2192,8.2111,8.2002,8.2138,8.2192,8.2192,8.2192,8.2192,8.1971,10.4084,10.4383,10.4681,10.4681,10.4681,10.4681,10.4681,10.4681,10.4681,10.4681,10.4681,10.4681,10.4681,10.4979,10.5509,10.6271,10.5674,10.5277,10.5211,10.4879,10.4681,10.4681,10.4681,10.4681,10.4681,10.4681,10.4681,10.4681,10.4681,10.4681,10.4681,10.5078,10.5476,10.5906,10.7,10.7894,10.859,10.8987,10.9422,10.9617,10.9285,10.912,10.912,10.912,10.912,10.912,10.912,10.912,10.912,10.912,10.912,10.912,10.912,10.912,10.912,10.912,10.912,10.912,10.912,10.912,10.912,10.912,10.912,10.912,10.912,10.8788,10.8081,10.6883,10.6294,10.5586,10.4177,10.4034,10.4034,10.4034,10.4034,10.3908,10.3497,10.3181,10.2991,10.2991,10.2107,10.119,10.0495,9.9452,9.8536,9.7833,9.6861,9.6102,9.5691,9.5691,9.5691,9.5691,9.5691,9.5533,9.5217,9.5217,9.4845,9.4157,9.1254,8.8863,8.6931,8.4389,8.2841,8.2165,8.1894,8.1758,8.1758,8.1758,8.1758,8.1785,8.2083,8.2192,8.2165,8.1866,8.1595,8.1159,10.4681,10.4681,10.4681,10.4681,10.4681,10.4681,10.4681,10.4681,10.4681,10.4681,10.4681,10.4681,10.4681,10.5412,10.6006,10.6503,10.5509,10.5078,10.5575,10.5012,10.4681,10.4681,10.4681,10.4681,10.4681,10.4681,10.4681,10.4681,10.4681,10.4681,10.4681,10.4813,10.5015,10.5078,10.5807,10.6602,10.7298,10.7927,10.849,10.8921,10.8921,10.8784,10.8722,10.8722,10.8722,10.8722,10.8722,10.8722,10.8722,10.8722,10.8822,10.8921,10.8921,10.902,10.912,10.912,10.912,10.912,10.912,10.912,10.912,10.912,10.912,10.912,10.912,10.8497,10.7777,10.6999,10.6071,10.5297,10.4372,10.4085,10.4034,10.4034,10.4034,10.4034,10.4034,10.3497,10.3307,10.3813,10.2107,10.0684,10.0116,9.9199,9.8409,9.7833,9.6513,9.5691,9.5691,9.5691,9.5691,9.5691,9.5565,9.5249,9.4712,9.4585,9.4143,9.3411,9.0646,8.8262,8.6193,8.3635,8.2354,8.207,8.1397,8.1269,8.1459,8.1459,8.1459,8.1486,8.1894,8.2029,8.1975,8.1378,8.0835,8.0401,10.4681,10.4681,10.4681,10.4681,10.4681,10.4681,10.4681,10.4681,10.4681,10.4681,10.4681,10.4681,10.4681,10.5412,10.5575,10.5012,10.5376,10.5409,10.4879,10.4816,10.4681,10.4681,10.4681,10.4681,10.4681,10.4681,10.4681,10.4681,10.4681,10.4681,10.4681,10.5412,10.6006,10.6602,10.7397,10.8126,10.8822,10.8921,10.8586,10.8089,10.8089,10.7795,10.7198,10.7198,10.7198,10.7198,10.7198,10.7198,10.7198,10.7198,10.7596,10.8089,10.8089,10.859,10.912,10.912,10.912,10.912,10.912,10.912,10.912,10.912,10.912,10.912,10.912,10.8975,10.8713,10.7815,10.7006,10.6215,10.5306,10.4495,10.4034,10.4034,10.4034,10.4034,10.4034,10.3898,10.3718,10.3181,10.1791,10.0874,10.0779,9.9073,9.7896,9.784,9.6513,9.5691,9.5691,9.5691,9.5691,9.5691,9.5122,9.4775,9.4712,9.408,9.3416,9.2716,9.0159,8.8365,8.7152,8.3319,8.1689,8.1811,8.0927,8.1107,8.2083,8.2083,8.2083,8.2029,8.1595,8.1432,8.1351,8.0754,8.0482,8.0347,10.4681,10.4681,10.4681,10.4681,10.4681,10.4681,10.4681,10.4681,10.4681,10.4681,10.4681,10.4681,10.4681,10.4979,10.5211,10.531,10.4915,10.4581,10.4681,10.4283,10.4319,10.4681,10.4681,10.4681,10.4681,10.4681,10.4681,10.4681,10.4681,10.4681,10.4681,10.5012,10.5412,10.5708,10.6006,10.6602,10.7298,10.7298,10.7298,10.7397,10.7397,10.7198,10.69,10.69,10.69,10.69,10.69,10.69,10.69,10.69,10.7099,10.7397,10.7397,10.7894,10.849,10.849,10.8788,10.912,10.912,10.912,10.912,10.912,10.912,10.912,10.912,10.912,10.8896,10.8005,10.7194,10.6301,10.5506,10.4577,10.4034,10.4034,10.4034,10.4034,10.4034,10.3687,10.3023,10.2021,10.1285,10.0779,10.04,9.9136,9.8219,9.7801,9.6861,9.6134,9.5723,9.5691,9.5502,9.5154,9.4838,9.4332,9.3542,9.3195,9.2689,9.1989,8.9023,8.7535,8.7346,8.3602,8.1864,8.177,8.0809,8.089,8.1704,8.1704,8.1704,8.1676,8.1405,8.089,8.0265,7.9994,7.9479,7.8882]},{"header":{"parameterUnit":"m.s-1","parameterCategory":1,"la1":30.6,"la2":28.766,"lo1":-90.7593,"lo2":-88.6598,"dx":0.0162,"dy":0.0183,"nx":116,"ny":114,"refTime":"2022-12-17T06:00:00:Z","depth":0,"parameterNumber":3,"parameterNumberName":"V-component_of_WINDS"},"data":[0.0,0.0,0.0,0.0,0.0,0.0,0.0,0.0,0.0,0.0,0.0,0.0,0.0,0.0,0.0,0.0,0.0,0.0,0.0,0.0,0.0,0.0,0.0,0.0,0.0,0.0,0.0,0.0,0.0,0.0,0.0,0.0,0.0,0.0,0.0,0.0,0.0,0.0,0.0,0.0,0.0,0.0,0.0,0.0,0.0,0.0,0.0,0.0,0.0,0.0,0.0,0.0,0.0,0.0,0.0,0.0,0.0,0.0,0.0,0.0,0.0,0.0,0.0,0.0,0.0,0.0,0.0,0.0,0.0,0.0,0.0,0.0,0.0,0.0,0.0,0.0,0.0,0.0,0.0,0.0,0.0,0.0,0.0,0.0,0.0,0.0,0.0,0.0,0.0,0.0,0.0,0.0,0.0,0.0,0.0,0.0,0.0,0.0,0.0,0.0,0.0,0.0,0.0,0.0,0.0,0.0,0.0,0.0,0.0,0.0,0.0,0.0,0.0,0.0,0.0,0.0,0.0,0.0,0.0,0.0,0.0,0.0,0.0,0.0,0.0,0.0,0.0,0.0,0.0,0.0,0.0,0.0,0.0,0.0,0.0,0.0,0.0,0.0,0.0,0.0,0.0,0.0,0.0,0.0,0.0,0.0,0.0,0.0,0.0,0.0,0.0,0.0,0.0,0.0,0.0,0.0,0.0,0.0,0.0,0.0,0.0,0.0,0.0,0.0,0.0,0.0,0.0,0.0,0.0,0.0,0.0,0.0,0.0,0.0,0.0,0.0,0.0,0.0,0.0,0.0,0.0,0.0,0.0,0.0,0.0,0.0,0.0,0.0,0.0,0.0,0.0,0.0,0.0,0.0,0.0,0.0,0.0,0.0,0.0,0.0,0.0,0.0,0.0,0.0,0.0,0.0,0.0,0.0,0.0,0.0,0.0,0.0,0.0,0.0,0.0,0.0,0.0,0.0,0.0,0.0,0.0,0.0,0.0,0.0,0.0,0.0,0.0,0.0,0.0,0.0,0.0,0.0,0.0,0.0,0.0,0.0,0.0,0.0,0.0,0.0,0.0,0.0,0.0,0.0,0.0,0.0,0.0,0.0,0.0,0.0,0.0,0.0,0.0,0.0,0.0,0.0,0.0,0.0,0.0,0.0,0.0,0.0,0.0,0.0,0.0,0.0,0.0,0.0,0.0,0.0,0.0,0.0,0.0,0.0,0.0,0.0,0.0,0.0,0.0,0.0,0.0,0.0,0.0,0.0,0.0,0.0,0.0,0.0,0.0,0.0,0.0,0.0,0.0,0.0,0.0,0.0,0.0,0.0,0.0,0.0,0.0,0.0,0.0,0.0,0.0,0.0,0.0,0.0,0.0,0.0,0.0,0.0,0.0,0.0,0.0,0.0,0.0,0.0,0.0,0.0,0.0,0.0,0.0,0.0,0.0,0.0,0.0,0.0,0.0,0.0,0.0,0.0,0.0,0.0,0.0,0.0,0.0,0.0,0.0,0.0,0.0,0.0,0.0,0.0,0.0,0.0,0.0,0.0,0.0,0.0,0.0,0.0,0.0,0.0,0.0,0.0,0.0,0.0,0.0,0.0,0.0,0.0,0.0,0.0,0.0,0.0,0.0,0.0,0.0,0.0,0.0,0.0,0.0,0.0,0.0,0.0,0.0,0.0,0.0,0.0,0.0,0.0,0.0,0.0,0.0,0.0,0.0,0.0,0.0,0.0,0.0,0.0,0.0,0.0,0.0,0.0,0.0,0.0,0.0,0.0,0.0,0.0,0.0,0.0,0.0,0.0,0.0,0.0,0.0,0.0,0.0,0.0,0.0,0.0,0.0,0.0,0.0,0.0,0.0,0.0,0.0,0.0,0.0,0.0,0.0,0.0,0.0,0.0,0.0,0.0,0.0,0.0,0.0,0.0,0.0,0.0,0.0,0.0,0.0,0.0,0.0,0.0,0.0,0.0,0.0,0.0,0.0,0.0,0.0,0.0,0.0,0.0,0.0,0.0,0.0,0.0,0.0,0.0,0.0,0.0,0.0,0.0,0.0,0.0,0.0,0.0,0.0,0.0,0.0,0.0,0.0,0.0,0.0,0.0,0.0,0.0,0.0,0.0,0.0,0.0,0.0,0.0,0.0,0.0,0.0,0.0,0.0,0.0,0.0,0.0,0.0,0.0,0.0,0.0,0.0,0.0,0.0,0.0,0.0,0.0,0.0,0.0,0.0,0.0,0.0,0.0,0.0,0.0,0.0,0.0,0.0,0.0,0.0,0.0,0.0,0.0,0.0,0.0,0.0,0.0,0.0,0.0,0.0,0.0,0.0,0.0,0.0,0.0,0.0,0.0,0.0,0.0,0.0,0.0,0.0,0.0,0.0,0.0,0.0,0.0,0.0,0.0,0.0,0.0,0.0,0.0,0.0,0.0,0.0,0.0,0.0,0.0,0.0,0.0,0.0,0.0,0.0,0.0,0.0,0.0,0.0,0.0,0.0,0.0,0.0,0.0,0.0,0.0,0.0,0.0,0.0,0.0,0.0,0.0,0.0,0.0,0.0,0.0,0.0,0.0,0.0,0.0,0.0,0.0,0.0,0.0,0.0,0.0,0.0,0.0,0.0,0.0,0.0,0.0,0.0,0.0,0.0,0.0,0.0,0.0,0.0,0.0,0.0,0.0,0.0,0.0,0.0,0.0,0.0,0.0,0.0,0.0,0.0,0.0,0.0,0.0,0.0,0.0,0.0,0.0,0.0,0.0,0.0,0.0,0.0,0.0,0.0,0.0,0.0,0.0,0.0,0.0,0.0,0.0,0.0,0.0,0.0,0.0,0.0,0.0,0.0,0.0,0.0,0.0,0.0,0.0,0.0,0.0,0.0,0.0,0.0,0.0,0.0,0.0,0.0,0.0,0.0,0.0,0.0,0.0,0.0,0.0,0.0,0.0,0.0,0.0,0.0,0.0,0.0,0.0,0.0,0.0,0.0,0.0,0.0,0.0,0.0,0.0,0.0,0.0,0.0,0.0,0.0,0.0,0.0,0.0,0.0,0.0,0.0,0.0,0.0,0.0,0.0,0.0,0.0,0.0,0.0,0.0,0.0,0.0,0.0,0.0,0.0,0.0,0.0,0.0,0.0,0.0,0.0,0.0,0.0,0.0,0.0,0.0,0.0,0.0,0.0,0.0,0.0,0.0,0.0,0.0,0.0,0.0,0.0,0.0,0.0,0.0,0.0,0.0,0.0,0.0,0.0,0.0,0.0,0.0,0.0,0.0,0.0,0.0,0.0,0.0,0.0,0.0,0.0,0.0,0.0,0.0,0.0,0.0,0.0,0.0,0.0,0.0,0.0,0.0,0.0,0.0,0.0,0.0,0.0,0.0,0.0,0.0,0.0,0.0,0.0,0.0,0.0,0.0,0.0,0.0,0.0,0.0,0.0,0.0,0.0,0.0,0.0,0.0,0.0,0.0,0.0,0.0,0.0,0.0,0.0,0.0,0.0,0.0,0.0,0.0,0.0,0.0,0.0,0.0,0.0,0.0,0.0,0.0,0.0,0.0,0.0,0.0,0.0,0.0,0.0,0.0,0.0,0.0,0.0,0.0,0.0,0.0,0.0,0.0,0.0,0.0,0.0,0.0,0.0,0.0,0.0,0.0,0.0,0.0,0.0,0.0,0.0,0.0,0.0,0.0,0.0,0.0,0.0,0.0,0.0,0.0,0.0,0.0,0.0,0.0,0.0,0.0,0.0,0.0,0.0,0.0,0.0,0.0,0.0,0.0,0.0,0.0,0.0,0.0,0.0,0.0,0.0,0.0,0.0,0.0,0.0,0.0,0.0,0.0,0.0,0.0,0.0,0.0,0.0,0.0,0.0,0.0,0.0,0.0,0.0,0.0,0.0,0.0,0.0,0.0,0.0,0.0,0.0,0.0,0.0,0.0,0.0,0.0,0.0,0.0,0.0,0.0,0.0,0.0,0.0,0.0,0.0,0.0,0.0,0.0,0.0,0.0,0.0,0.0,0.0,0.0,0.0,0.0,0.0,0.0,0.0,0.0,0.0,0.0,0.0,0.0,0.0,0.0,0.0,0.0,0.0,0.0,0.0,0.0,0.0,0.0,0.0,0.0,0.0,0.0,0.0,0.0,0.0,0.0,0.0,0.0,0.0,0.0,0.0,0.0,0.0,0.0,0.0,0.0,0.0,0.0,0.0,0.0,0.0,0.0,0.0,0.0,0.0,0.0,0.0,0.0,0.0,0.0,0.0,0.0,0.0,0.0,0.0,0.0,0.0,0.0,0.0,0.0,0.0,0.0,0.0,0.0,0.0,0.0,0.0,0.0,0.0,0.0,0.0,0.0,0.0,0.0,0.0,0.0,0.0,0.0,0.0,0.0,0.0,0.0,0.0,0.0,0.0,0.0,0.0,0.0,0.0,0.0,0.0,0.0,0.0,0.0,0.0,0.0,0.0,0.0,0.0,0.0,0.0,0.0,0.0,0.0,0.0,0.0,0.0,0.0,0.0,0.0,0.0,0.0,0.0,0.0,0.0,0.0,0.0,0.0,0.0,0.0,0.0,0.0,0.0,0.0,0.0,0.0,0.0,0.0,0.0,0.0,0.0,0.0,0.0,0.0,0.0,0.0,0.0,0.0,0.0,0.0,0.0,0.0,0.0,0.0,0.0,0.0,0.0,0.0,0.0,0.0,0.0,0.0,0.0,0.0,0.0,0.0,0.0,0.0,0.0,0.0,0.0,0.0,0.0,0.0,0.0,0.0,0.0,0.0,0.0,0.0,0.0,0.0,0.0,0.0,0.0,0.0,0.0,0.0,0.0,0.0,0.0,0.0,0.0,0.0,0.0,0.0,0.0,0.0,0.0,0.0,0.0,0.0,0.0,0.0,0.0,0.0,0.0,0.0,0.0,0.0,0.0,0.0,0.0,0.0,0.0,0.0,0.0,0.0,0.0,0.0,0.0,0.0,0.0,0.0,0.0,0.0,0.0,0.0,0.0,0.0,0.0,0.0,0.0,0.0,0.0,0.0,0.0,0.0,0.0,0.0,0.0,0.0,0.0,0.0,0.0,0.0,0.0,0.0,0.0,0.0,0.0,0.0,0.0,0.0,0.0,0.0,0.0,0.0,0.0,0.0,0.0,0.0,0.0,0.0,0.0,0.0,0.0,0.0,0.0,0.0,0.0,0.0,0.0,0.0,0.0,0.0,0.0,0.0,0.0,0.0,0.0,0.0,0.0,0.0,0.0,0.0,0.0,0.0,0.0,0.0,0.0,0.0,0.0,0.0,0.0,0.0,0.0,0.0,0.0,0.0,0.0,0.0,0.0,0.0,0.0,0.0,0.0,0.0,0.0,0.0,0.0,0.0,0.0,0.0,0.0,0.0,0.0,0.0,0.0,0.0,0.0,0.0,0.0,0.0,0.0,0.0,0.0,0.0,0.0,0.0,0.0,0.0,0.0,0.0,0.0,0.0,0.0,0.0,0.0,0.0,0.0,0.0,0.0,0.0,0.0,0.0,0.0,0.0,0.0,0.0,0.0,0.0,0.0,0.0,0.0,0.0,0.0,0.0,0.0,0.0,0.0,0.0,0.0,0.0,0.0,0.0,0.0,0.0,0.0,0.0,0.0,0.0,0.0,0.0,0.0,0.0,0.0,0.0,0.0,0.0,0.0,0.0,0.0,0.0,0.0,0.0,0.0,0.0,0.0,0.0,0.0,0.0,0.0,0.0,0.0,0.0,0.0,0.0,0.0,0.0,0.0,0.0,0.0,0.0,0.0,0.0,0.0,0.0,0.0,0.0,0.0,0.0,0.0,0.0,0.0,0.0,0.0,0.0,0.0,0.0,0.0,0.0,0.0,0.0,0.0,0.0,0.0,0.0,0.0,0.0,0.0,0.0,0.0,0.0,0.0,0.0,0.0,0.0,0.0,0.0,0.0,0.0,0.0,0.0,0.0,0.0,0.0,0.0,0.0,0.0,0.0,0.0,0.0,0.0,0.0,0.0,0.0,0.0,0.0,0.0,0.0,0.0,0.0,0.0,0.0,0.0,0.0,0.0,0.0,0.0,0.0,0.0,0.0,0.0,0.0,0.0,0.0,0.0,0.0,0.0,2.9994,2.9595,0.0,0.0,0.0,0.0,0.0,0.0,0.0,0.0,0.0,0.0,0.0,0.0,0.0,0.0,0.0,0.0,0.0,0.0,0.0,0.0,0.0,0.0,0.0,1.6556,1.6766,1.7479,1.7294,0.0,0.0,0.0,0.0,0.0,0.0,0.0,0.0,0.0,1.895,1.8856,1.9744,2.0691,2.1584,2.1262,2.0983,2.0704,0.0,0.0,0.0,0.0,0.0,0.0,0.0,0.0,0.0,0.0,0.0,0.0,0.0,0.0,0.0,0.0,0.0,0.0,0.0,0.0,0.0,0.0,0.0,0.0,0.0,0.0,0.0,0.0,0.0,0.0,0.0,0.0,0.0,0.0,0.0,0.0,0.0,0.0,0.0,0.0,0.0,0.0,0.0,0.0,0.0,0.0,0.0,0.0,0.0,0.0,0.0,0.0,0.0,0.0,0.0,0.0,0.0,0.0,0.0,0.0,0.0,0.0,0.0,0.0,0.0,0.0,0.0,0.0,0.0,0.0,3.2819,3.2057,0.0,0.0,0.0,0.0,0.0,0.0,0.0,0.0,0.0,0.0,0.0,0.0,0.0,0.0,0.0,0.0,0.0,0.0,0.0,0.0,0.0,1.6163,1.6717,1.6878,1.7246,1.8024,1.7811,1.7922,1.8467,1.8036,0.0,0.0,0.0,0.0,1.9541,1.9981,2.0308,2.053,2.138,2.2389,2.3545,2.3866,2.3486,2.2491,2.1525,0.0,0.0,0.0,0.0,0.0,0.0,0.0,0.0,0.0,0.0,0.0,0.0,0.0,0.0,0.0,0.0,0.0,0.0,0.0,0.0,0.0,0.0,0.0,0.0,0.0,0.0,0.0,0.0,0.0,0.0,0.0,0.0,0.0,0.0,0.0,0.0,0.0,0.0,0.0,0.0,0.0,0.0,0.0,0.0,0.0,0.0,0.0,0.0,0.0,0.0,0.0,0.0,0.0,0.0,0.0,0.0,0.0,0.0,0.0,0.0,0.0,0.0,0.0,3.5964,3.545,3.5468,3.5858,3.7146,3.8844,3.5969,3.4993,3.5379,3.4406,0.0,0.0,0.0,0.0,0.0,0.0,0.0,0.0,0.0,0.0,0.0,0.0,0.0,0.0,0.0,0.0,0.0,0.0,0.0,1.6703,1.7007,1.7563,1.7953,1.8019,1.7966,1.809,1.8468,1.8441,1.8659,1.9263,1.9043,1.9292,2.0158,2.0242,2.0673,2.1519,2.3286,2.4496,2.5179,2.5549,2.5754,2.5783,2.372,2.2637,2.23,0.0,0.0,0.0,0.0,0.0,0.0,0.0,0.0,0.0,0.0,0.0,0.0,0.0,0.0,0.0,0.0,0.0,0.0,0.0,0.0,0.0,0.0,0.0,0.0,0.0,0.0,0.0,0.0,0.0,0.0,0.0,0.0,0.0,0.0,0.0,0.0,0.0,0.0,0.0,0.0,0.0,3.2033,3.4818,0.0,0.0,0.0,0.0,0.0,0.0,0.0,0.0,0.0,0.0,0.0,0.0,0.0,3.8776,3.8806,3.9154,3.9542,3.9949,4.053,4.076,4.078,4.1203,4.1573,4.1829,4.138,0.0,4.0761,4.0279,0.0,0.0,0.0,0.0,0.0,0.0,0.0,0.0,0.0,0.0,0.0,0.0,0.0,0.0,0.0,0.0,0.0,0.0,0.0,0.0,0.0,1.8422,1.9027,1.9514,1.9555,1.9748,2.0258,1.9814,1.98,2.0444,2.033,2.05,2.1074,2.161,2.2526,2.3862,2.4882,2.5813,2.6632,2.6764,2.691,2.7013,2.6003,2.4876,2.3691,2.3223,0.0,0.0,0.0,0.0,0.0,0.0,0.0,0.0,0.0,0.0,0.0,0.0,0.0,0.0,0.0,0.0,0.0,0.0,0.0,0.0,0.0,0.0,0.0,0.0,0.0,0.0,0.0,0.0,0.0,0.0,0.0,0.0,0.0,0.0,0.0,0.0,0.0,0.0,0.0,3.2059,3.2838,3.5447,3.5742,3.584,0.0,0.0,0.0,0.0,0.0,0.0,0.0,0.0,0.0,4.0723,4.0918,4.125,4.1719,4.1933,4.2266,4.2695,4.3086,4.3379,4.3633,4.4062,4.4258,4.4258,4.4512,4.4492,4.418,4.2305,4.1406,4.1211,0.0,0.0,0.0,0.0,4.1718,4.1895,0.0,0.0,0.0,0.0,0.0,0.0,0.0,0.0,0.0,0.0,0.0,0.0,1.881,1.9403,2.0074,2.0936,2.0928,2.1086,2.1661,2.1124,2.0994,2.1505,2.1693,2.188,2.2185,2.3272,2.4525,2.5866,2.6362,2.7042,2.7884,2.7958,2.8001,2.8001,2.8001,2.6961,2.5203,2.488,2.4276,2.3588,0.0,0.0,0.0,0.0,0.0,0.0,0.0,0.0,0.0,0.0,0.0,0.0,0.0,0.0,0.0,0.0,0.0,0.0,0.0,0.0,0.0,0.0,0.0,0.0,0.0,0.0,0.0,0.0,0.0,0.0,0.0,0.0,0.0,0.0,0.0,0.0,0.0,3.385,3.4178,3.6254,3.6797,3.709,0.0,0.0,0.0,0.0,0.0,0.0,4.1308,4.1758,4.2324,4.3026,4.3203,4.3574,4.4199,4.4199,4.4375,4.4726,4.4726,4.4824,4.4996,4.5371,4.5508,4.5527,4.5957,4.6152,4.5976,4.3828,4.2949,4.2949,4.2832,4.2874,4.3074,4.3833,4.4195,4.4478,0.0,0.0,0.0,0.0,0.0,0.0,0.0,0.0,0.0,0.0,0.0,1.9526,2.0244,2.051,2.09,2.1616,2.1341,2.1305,2.1689,2.1942,2.2109,2.2149,2.2709,2.3151,2.3498,2.5066,2.6222,2.691,2.7824,2.8491,2.8827,2.9174,2.932,2.932,2.932,2.8388,2.6852,2.6515,2.6354,2.6208,2.4998,0.0,0.0,0.0,0.0,0.0,0.0,0.0,0.0,0.0,0.0,0.0,0.0,0.0,0.0,0.0,0.0,0.0,0.0,0.0,0.0,0.0,0.0,0.0,0.0,0.0,0.0,0.0,0.0,0.0,0.0,0.0,0.0,0.0,0.0,0.0,0.0,0.0,0.0,3.7634,3.8945,0.0,0.0,0.0,0.0,4.1054,4.1445,4.2246,4.3476,4.3984,4.4433,4.484,4.5293,4.557,4.5629,4.5629,4.5586,4.5605,4.5605,4.541,4.4977,4.4996,4.5058,4.5035,4.5527,4.5703,4.5766,4.5976,4.6074,4.6035,4.5644,4.5769,4.6217,4.663,4.7155,4.7707,0.0,0.0,0.0,0.0,0.0,1.6467,1.6853,1.7199,1.7645,1.8251,1.9236,2.0081,2.0579,2.1627,2.25,2.3178,2.3501,2.379,2.4138,2.4042,2.4028,2.4072,2.4276,2.4834,2.5769,2.6713,2.7671,2.852,2.8871,2.9208,2.9555,2.9672,2.9731,2.9731,2.9731,2.9408,2.8822,2.7832,2.7203,2.6778,2.631,2.5754,0.0,0.0,0.0,0.0,0.0,0.0,0.0,0.0,0.0,0.0,0.0,0.0,0.0,0.0,0.0,0.0,0.0,0.0,0.0,0.0,0.0,0.0,0.0,0.0,0.0,0.0,0.0,0.0,0.0,0.0,0.0,0.0,0.0,0.0,0.0,0.0,0.0,3.9086,4.0098,0.0,4.0859,4.166,4.2461,4.3203,4.4141,4.4902,4.5351,4.5801,4.5976,4.5859,4.5996,4.6074,4.6074,4.6074,4.6348,4.6894,4.6894,4.7154,4.75,4.75,4.75,4.75,4.7701,4.794,4.8229,4.8342,4.7572,4.6352,4.6796,4.7117,4.7376,4.8365,4.8696,4.8772,0.0,0.0,0.0,0.0,1.6319,1.6389,1.7018,1.7449,1.8017,1.8796,1.9857,2.0847,2.1647,2.2734,2.3752,2.465,2.5,2.5314,2.5661,2.5554,2.5525,2.5549,2.5789,2.6507,2.7773,2.811,2.8681,2.9584,2.9764,2.9925,3.0082,3.0405,3.0375,3.0068,3.0185,3.0111,2.9848,2.8959,2.8286,2.7773,2.7452,2.6888,2.6275,0.0,0.0,0.0,0.0,0.0,0.0,0.0,0.0,0.0,0.0,0.0,0.0,0.0,0.0,0.0,0.0,0.0,0.0,0.0,0.0,0.0,0.0,0.0,0.0,0.0,0.0,0.0,0.0,0.0,0.0,0.0,0.0,0.0,0.0,3.8848,3.9824,4.0273,4.1465,4.2305,4.2422,4.3359,4.4258,4.498,4.5703,4.6152,4.6289,4.6699,4.6875,4.6738,4.6875,4.7012,4.7168,4.7168,4.7383,4.7793,4.7793,4.8008,4.8464,4.8464,4.8464,4.8483,4.862,4.8928,4.9406,4.9544,4.8819,4.7741,4.833,4.8673,4.8936,4.9823,5.0118,5.0069,0.0,0.0,0.0,1.6272,1.6224,1.6429,1.7036,1.7659,1.8435,1.9565,2.0614,2.1832,2.3446,2.3884,2.4576,2.5918,2.5744,2.5724,2.6041,2.6383,2.6559,2.6559,2.7203,2.8163,2.9408,2.9105,2.9306,2.9936,3.0525,3.0671,3.0434,3.1329,3.1271,3.0419,3.0685,3.0481,2.9936,2.9921,2.9745,2.9379,2.8335,2.7955,2.7838,0.0,0.0,0.0,0.0,0.0,0.0,0.0,0.0,0.0,0.0,0.0,0.0,0.0,0.0,0.0,0.0,0.0,0.0,0.0,0.0,0.0,0.0,0.0,0.0,0.0,0.0,0.0,0.0,0.0,0.0,0.0,0.0,0.0,4.0,4.0332,4.0781,4.123,4.3144,4.4258,4.3828,4.4941,4.5879,4.6308,4.5976,4.5937,4.6348,4.6738,4.7148,4.7578,4.7969,4.8398,4.8855,4.8855,4.8659,4.8203,4.8203,4.8008,4.7617,4.7617,4.7617,4.7637,4.8047,4.8561,4.9054,4.9471,4.9925,5.0337,5.0337,5.0656,5.1111,5.1111,5.1429,5.1791,0.0,0.0,0.0,1.6471,1.6675,1.7033,1.7599,1.844,1.9286,2.0056,2.1336,2.2659,2.3827,2.4647,2.5525,2.6625,2.7034,2.7274,2.7385,2.7692,2.7868,2.7868,2.8739,2.9408,2.976,3.01,3.0378,3.0554,3.0729,3.0773,3.07,3.0964,3.0949,3.07,3.0788,3.0729,3.0539,3.0361,3.0331,3.0334,2.9369,2.8842,2.8578,0.0,0.0,0.0,0.0,0.0,0.0,0.0,0.0,0.0,0.0,0.0,0.0,0.0,0.0,0.0,0.0,0.0,0.0,0.0,0.0,0.0,0.0,0.0,0.0,0.0,0.0,0.0,0.0,0.0,0.0,0.0,4.0938,4.166,4.0918,4.1973,4.3008,4.3457,4.4297,4.5039,4.5547,4.5918,4.6445,4.7168,4.7402,4.7558,4.7676,4.7793,4.7773,4.7623,4.7695,4.7812,4.7975,4.7975,4.8027,4.8203,4.8203,4.8301,4.8561,4.8561,4.8561,4.8561,4.9046,4.9517,4.9974,5.0459,5.0975,5.1338,5.102,5.0975,5.1157,5.1474,5.1701,5.175,0.0,0.0,0.0,1.6706,1.7008,1.7432,1.8029,1.8807,1.9746,2.0746,2.189,2.311,2.4329,2.5213,2.6126,2.713,2.7539,2.7824,2.8101,2.854,2.8944,2.9222,2.9818,3.0229,3.0466,3.07,3.0964,3.1227,3.1227,3.1227,3.1242,3.152,3.1417,3.1037,3.1168,3.1081,3.0776,3.0627,3.0656,3.0732,3.0203,2.9793,2.9511,2.9149,2.9047,2.9063,2.8729,2.8819,2.9046,2.846,0.0,0.0,0.0,0.0,0.0,0.0,0.0,0.0,0.0,0.0,0.0,0.0,0.0,0.0,0.0,0.0,0.0,0.0,0.0,0.0,0.0,0.0,0.0,0.0,4.2363,4.293,4.2812,4.3496,4.4238,4.4863,4.5312,4.5762,4.625,4.6465,4.6836,4.7519,4.7637,4.7754,4.793,4.7949,4.791,4.7851,4.7851,4.793,4.8151,4.8151,4.8242,4.8476,4.8901,4.921,4.9511,4.9874,5.0066,5.0112,5.0345,5.0761,5.1203,5.1525,5.1959,5.235,0.0,0.0,0.0,0.0,5.2226,5.235,1.6937,1.6782,1.6739,1.7013,1.7299,1.7728,1.8354,1.8984,1.9985,2.1547,2.234,2.3364,2.4957,2.5632,2.6442,2.7495,2.7583,2.7876,2.8511,2.9149,2.9789,3.0361,3.0463,3.0771,3.13,3.1066,3.1212,3.1798,3.1798,3.1798,3.1812,3.2383,3.2193,3.1373,3.1637,3.1502,3.1167,3.1123,3.1206,3.1443,3.1443,3.1167,3.0732,3.0351,3.088,3.1766,3.1365,3.1986,3.2941,3.2473,0.0,0.0,0.0,0.0,0.0,0.0,0.0,0.0,0.0,0.0,0.0,0.0,0.0,0.0,0.0,0.0,0.0,0.0,0.0,0.0,0.0,0.0,0.0,0.0,4.3613,4.4238,4.5074,4.4922,4.4941,4.5664,4.6074,4.6348,4.6445,4.6738,4.7129,4.7617,4.7285,4.7266,4.7695,4.7779,0.0,0.0,0.0,4.8535,4.8972,4.9031,4.905,4.9143,4.9953,5.0384,5.0497,5.1317,5.1685,5.1685,5.1779,5.2039,5.2393,5.2439,5.2786,5.3095,5.2267,5.1957,5.1998,5.2412,5.2826,5.3178,1.6904,1.6856,1.7063,1.7279,1.7799,1.8339,1.8752,1.95,2.0524,2.1907,2.2624,2.3726,2.5606,2.5903,2.6582,2.8087,2.8218,2.8637,2.9569,2.9994,3.0258,3.039,3.0888,3.1183,3.13,3.1505,3.1666,3.1798,3.1798,3.1798,3.1798,3.1929,3.1885,3.1695,3.149,3.2116,3.326,3.302,3.3875,3.5393,3.5393,3.4441,3.2934,3.2492,3.3377,3.4783,3.4103,3.4004,3.4132,3.3808,3.3689,3.3613,3.3276,3.2693,0.0,0.0,0.0,0.0,0.0,0.0,0.0,0.0,0.0,0.0,0.0,0.0,0.0,0.0,0.0,0.0,0.0,0.0,0.0,4.4043,4.4785,4.5586,4.6445,4.644,4.6367,4.6191,4.625,4.6582,4.7266,4.709,4.7246,4.8027,4.8008,4.8144,4.864,4.8659,4.8698,4.8776,4.9082,4.9316,4.9394,4.9746,5.0157,5.0494,5.0687,0.0,5.147,5.1645,5.1685,5.1732,5.2086,5.2299,5.2439,5.2879,5.3085,5.3157,5.2992,5.2909,5.293,5.3013,5.3116,5.3178,1.7396,1.7523,1.7761,1.7835,1.8283,1.8702,1.9046,1.9721,2.068,2.2003,2.2589,2.3486,2.511,2.5579,2.6202,2.7327,2.8198,2.9003,2.9848,3.0214,3.0463,3.0583,3.089,3.1139,3.13,3.1461,3.171,3.2046,3.2046,3.212,3.228,3.228,3.2699,3.338,3.3212,3.4071,3.5593,3.5171,3.5613,3.6559,3.6518,3.6457,3.6268,3.5149,3.5555,3.6756,3.6365,3.6653,3.7159,3.6773,3.6412,3.6037,3.5664,3.5096,3.4536,0.0,0.0,0.0,0.0,0.0,0.0,0.0,0.0,0.0,0.0,0.0,0.0,0.0,0.0,4.2715,4.3574,0.0,4.457,4.5254,4.5703,4.6289,4.7129,4.7246,4.7246,4.7246,4.707,4.7109,4.7539,4.7383,4.7519,4.8164,4.8203,4.8496,4.916,4.9199,4.9297,4.9558,4.9746,4.9844,4.9844,5.0078,5.044,5.0893,5.1633,5.2234,5.2776,5.3461,5.3808,5.3808,5.4026,5.4169,5.4169,5.4428,5.4524,5.4524,5.4524,5.411,5.3509,5.3509,5.3654,5.3882,1.8206,1.844,1.8617,1.8436,1.8669,1.9019,1.9342,1.983,2.0649,2.1935,2.2462,2.3164,2.4382,2.5169,2.5909,2.672,2.8183,2.931,2.9877,3.0273,3.0583,3.0863,3.092,3.1066,3.1402,3.1402,3.1695,3.228,3.228,3.266,3.3338,3.3338,3.4121,3.5639,3.5574,3.639,3.7752,3.7287,3.7241,3.7495,3.7432,3.8388,3.9662,3.81,3.8046,3.878,3.8706,3.9392,4.0312,3.9863,3.9127,3.8361,3.795,3.731,3.6656,3.6408,3.7701,0.0,0.0,0.0,0.0,0.0,0.0,0.0,0.0,4.2617,4.2949,4.3476,4.3789,4.4101,4.457,4.498,4.5527,4.6308,4.6484,4.6816,4.7598,4.7695,4.7851,4.8281,4.7891,4.7617,4.7695,4.7773,4.8008,4.8437,4.8535,4.8906,4.9609,4.9648,4.9824,5.0176,5.0396,5.0522,5.062,5.0794,5.1158,5.1741,5.2864,5.3688,5.4238,5.5392,5.5918,5.5918,5.5918,5.5918,5.5918,5.5918,5.5918,5.5918,5.5918,5.5207,5.4186,5.4186,5.4435,5.4855,1.9286,1.9452,1.945,1.884,1.9023,1.9356,1.9679,2.0003,2.0575,2.1613,2.2506,2.3325,2.4057,2.5227,2.6421,2.7648,2.8988,2.9833,2.9906,3.0437,3.092,3.1242,3.1256,3.1402,3.1739,3.1739,3.1915,3.228,3.228,3.33,3.5177,3.5177,3.6129,3.781,3.7573,3.8219,3.9395,3.9072,3.9587,4.0665,4.0684,4.1246,4.1984,4.1398,4.1477,4.1829,4.1501,4.1697,4.207,4.166,4.1425,4.1268,4.0841,4.0395,4.0029,4.0395,4.0724,4.0996,4.1268,4.1834,4.2441,4.2832,4.2969,4.3301,0.0,4.4414,4.4414,4.5215,4.5117,4.5019,4.5449,4.5879,4.6308,4.6777,4.7187,4.7598,4.8066,4.8144,4.8301,4.8776,4.8112,4.7734,4.8105,4.8496,4.8906,4.9289,4.9746,5.0,5.0098,5.0098,5.0137,5.0176,5.1004,5.1638,5.2062,5.2895,5.3734,5.4655,5.4805,5.5139,5.5676,5.5828,5.5918,5.5918,5.5918,5.5918,5.5918,5.5918,5.5918,5.5918,5.5918,5.5786,5.5641,5.5641,5.5683,5.5724,1.9348,1.9432,1.9415,1.9151,1.921,1.9342,1.9488,1.9916,2.0429,2.1057,2.1964,2.274,2.3179,2.4569,2.59,2.6976,2.8447,2.9423,2.9613,3.0364,3.0849,3.098,3.1212,3.1285,3.1227,3.1607,3.1768,3.171,3.19,3.2996,3.4863,3.5113,3.6737,3.9449,3.9604,4.0537,4.1982,4.1335,4.1548,4.2286,4.1738,4.1894,4.2362,4.2187,4.2422,4.2754,4.2324,4.2285,0.0,4.2226,4.2344,4.2519,4.2384,4.25,4.2754,4.2676,4.3008,4.3555,4.4238,4.418,4.406,4.4785,4.4961,4.4961,4.4977,4.4883,4.4941,4.5547,4.5723,4.5898,4.6328,4.6953,4.7558,4.7988,4.8249,4.8522,4.8906,4.8984,4.9043,4.9219,4.9375,4.9433,4.9355,4.9961,5.0332,5.0273,5.0449,5.0547,5.0547,5.1117,5.1516,5.1753,5.2673,5.3284,5.3464,5.384,5.4385,5.5107,5.5372,5.5791,5.6332,5.6531,5.6656,5.6656,5.6656,5.6656,5.6656,5.6656,5.6656,5.6656,5.6656,5.6656,5.6594,5.6076,5.5918,5.5959,1.9182,1.926,1.9298,1.9298,1.9298,1.9298,1.9298,1.9801,2.0298,2.0532,2.1525,2.2403,2.2959,2.4192,2.5379,2.6413,2.7803,2.8842,2.9379,3.0203,3.0773,3.0949,3.1095,3.1154,3.1095,3.1373,3.1505,3.1446,3.1593,3.2874,3.5161,3.5437,3.7493,4.0894,4.1252,4.2087,4.3301,4.2695,4.2617,4.2851,4.2226,4.2305,4.2773,4.2656,4.2949,4.3359,4.2812,4.2676,4.2713,4.2637,4.2812,4.3127,4.3127,4.3516,4.4004,4.3926,4.4512,4.5371,4.6094,4.5859,4.5527,4.6152,4.6387,4.6348,4.584,4.5723,4.5859,4.6289,4.6621,4.6914,4.7182,4.7988,4.8672,4.8984,4.9285,4.9512,4.9824,4.9933,5.0011,5.0011,5.0801,5.1298,5.1315,5.1484,5.1592,5.159,5.1542,5.1708,5.2118,5.2608,5.3042,5.3458,5.415,5.4558,5.4699,5.4847,5.5204,5.5672,5.6049,5.6391,5.6759,5.709,5.7185,5.7185,5.7185,5.7185,5.7185,5.7185,5.7185,5.7185,5.7185,5.7185,5.7103,5.649,5.6242,5.6304,1.8921,1.913,1.9298,1.9298,1.9298,1.9298,1.9298,1.9801,2.021,2.0225,2.1379,2.2652,2.3928,2.4397,2.513,2.6398,2.7371,2.8335,2.935,3.0038,3.0683,3.1271,3.0966,3.1124,3.1754,3.1168,3.1154,3.1783,3.1476,3.3263,3.7024,3.7041,3.8917,4.2321,4.234,4.2381,4.2421,4.2401,4.2401,4.2401,4.2382,4.291,4.3633,4.3223,4.3594,4.4238,4.3379,4.332,4.3594,4.3203,4.3107,4.3127,4.3127,4.3146,4.3281,4.4121,4.498,4.5742,4.6191,4.6289,4.6269,4.6289,4.6601,4.7012,4.7402,4.75,4.7617,4.8047,4.8144,4.8164,4.8164,4.8887,4.9445,4.9465,5.0195,5.0762,5.0762,5.1113,5.1319,5.1319,5.2129,5.3012,5.4005,5.2886,5.2473,5.343,5.3397,5.3961,5.5487,5.4644,5.4394,5.4944,5.5016,5.5311,5.574,5.6256,5.671,5.7144,5.7144,5.7165,5.7165,5.7165,5.7185,5.7185,5.7185,5.7185,5.7185,5.7185,5.7185,5.7185,5.7185,5.7185,5.7215,5.7144,5.7194,5.7144,1.9182,1.9246,1.9298,1.9298,1.9298,1.9298,1.9298,1.9664,2.0003,2.0181,2.1511,0.0,0.0,0.0,0.0,0.0,2.631,2.7371,2.8335,2.9222,3.0038,3.0683,3.0978,3.1051,3.0888,3.2445,3.3031,3.2541,3.4052,3.5959,3.811,3.8356,3.9755,4.2012,4.2012,4.2324,4.2832,4.2246,4.25,4.3223,4.2616,4.2773,4.3281,4.3166,4.3262,4.3516,0.0,4.3594,4.3691,4.3535,4.3691,4.3965,4.3965,4.4336,4.4961,4.582,4.6289,4.666,4.7383,4.7363,4.7226,4.75,4.7676,4.7734,4.7598,4.7793,4.8027,4.8183,4.8672,4.9036,4.9036,4.9972,5.0733,5.0733,5.1269,5.1787,5.2128,5.2022,5.2149,5.2832,5.3688,5.4461,5.5155,5.4701,5.4679,5.5375,5.5434,5.5485,5.5678,5.5739,5.5829,5.5979,5.6316,5.6544,5.6709,5.6908,5.707,5.7185,5.7185,5.7185,5.7185,5.7185,5.7185,5.7185,5.7185,5.7185,5.7185,5.7185,5.7185,5.7185,5.7185,5.7185,5.7185,5.7185,5.7185,5.7185,1.9298,1.9298,1.9298,1.9298,1.9298,0.0,0.0,0.0,0.0,0.0,0.0,0.0,0.0,0.0,0.0,0.0,0.0,2.6625,2.7838,2.8637,2.9423,3.0185,3.0568,3.0656,3.0405,3.2706,3.3635,3.3095,3.5304,3.7163,3.8606,3.8881,3.9905,4.1582,4.1582,4.1973,4.2578,4.2031,4.2539,4.3633,4.2773,4.2773,4.3262,4.2969,4.2949,0.0,4.3379,4.3574,4.3711,4.3711,4.4004,4.4433,4.457,4.5312,4.6289,4.7129,4.7338,4.7539,4.8242,4.8242,4.8151,4.8379,4.8555,4.8652,4.8535,4.8711,4.8965,4.9101,4.959,5.0039,5.0128,5.114,5.1894,5.1855,5.2414,5.2985,5.3331,5.336,5.3657,5.4532,5.5235,5.5936,5.6659,5.6614,5.6743,5.7104,5.6949,5.694,5.7189,5.7056,5.7025,5.7227,5.72,5.7185,5.7185,5.7185,5.7185,5.7185,5.7185,5.7185,5.7185,5.7185,5.7185,5.7235,5.7401,5.7463,5.7484,5.7649,5.7732,5.7732,5.7732,5.7732,5.7732,5.7732,5.7732,5.767,1.9298,1.9298,1.9298,0.0,0.0,0.0,0.0,0.0,0.0,0.0,0.0,0.0,0.0,0.0,0.0,0.0,0.0,0.0,2.7736,2.8145,2.8837,2.9924,2.9917,3.0104,3.0576,3.2202,3.3209,3.3594,3.5356,3.7082,3.8688,3.8688,3.9591,4.1211,4.1172,4.1348,4.1758,4.1719,4.2422,4.3496,4.2676,4.2832,4.3476,4.2635,4.2637,4.3048,4.3087,4.3301,4.3652,4.3711,4.4062,4.4551,4.498,4.5933,4.7084,4.7969,4.8223,4.832,4.8796,4.8913,4.8913,4.8933,4.9219,4.9648,5.0078,5.0195,5.0312,5.0723,5.084,5.0996,5.1387,5.2276,5.2906,5.2775,5.3596,5.4313,5.4363,5.5047,5.5789,5.6332,5.6837,5.7488,5.8434,5.8547,5.8568,5.8568,5.8026,5.8365,5.9915,5.8654,5.8038,5.855,5.7711,5.7185,5.7185,5.7185,5.7185,5.7206,5.7206,5.7227,5.7247,5.7247,5.7247,5.7318,5.7753,5.796,5.798,5.8436,5.8601,5.8601,5.8601,5.8601,5.8601,5.8601,5.8601,5.8477,0.0,0.0,0.0,0.0,0.0,0.0,0.0,0.0,0.0,0.0,0.0,0.0,0.0,0.0,0.0,0.0,0.0,0.0,2.6778,2.7174,2.8439,3.0857,3.0026,3.0706,3.3168,3.4271,3.5207,3.5944,3.822,3.9565,4.0009,4.0009,4.0453,4.1191,4.0508,4.0644,4.1289,4.0644,4.0937,4.1777,4.123,4.1328,4.1797,4.1582,4.1758,4.2168,4.248,4.2656,4.287,4.3887,4.4726,4.5469,4.6211,4.6894,4.7519,4.8047,4.8437,4.8757,4.8874,4.8913,4.8991,4.9277,4.9433,4.9648,5.0078,5.043,5.0683,5.0781,5.1308,5.1797,5.1894,5.2668,5.3367,5.3755,5.4558,5.5461,5.6275,5.6504,5.6949,5.7925,5.8077,5.8404,5.9026,5.9407,5.9614,5.9614,5.9509,5.955,5.9988,5.8964,5.8448,5.8601,5.7711,5.7185,5.7185,5.7185,5.7401,5.7732,5.7732,5.7918,5.825,5.825,5.825,5.827,5.8374,5.8436,5.8436,5.856,5.8601,5.8601,5.8601,5.8601,5.8601,5.8601,5.8601,5.8581,0.0,0.0,0.0,0.0,0.0,0.0,0.0,0.0,0.0,0.0,0.0,0.0,0.0,0.0,0.0,0.0,0.0,0.0,0.0,2.6676,2.8011,3.071,3.03,3.1164,3.3668,3.525,3.64,3.7102,3.9223,4.0332,4.0527,4.0332,4.0371,4.0586,4.0117,4.0156,4.0586,4.0098,4.0391,0.0,0.0,4.0723,4.1406,4.1035,4.1269,4.1836,4.207,4.2519,4.3125,4.4082,4.4961,4.582,4.666,4.7363,4.7949,4.8359,4.8718,4.8952,4.9101,4.916,4.9258,4.9707,4.9961,5.0156,5.0391,5.0781,5.1133,5.1328,5.1738,5.2207,5.2578,5.3447,5.4252,5.4699,5.5583,5.6475,5.727,5.7544,5.7984,5.8809,5.9067,5.9283,5.9595,5.9843,5.9988,5.9988,5.9988,5.9988,5.9988,5.9119,5.8601,5.8601,5.7711,5.7268,5.7525,5.7525,5.7753,5.8229,5.8229,5.8353,5.8601,5.8601,5.8601,5.8622,5.8829,5.8912,5.8933,5.914,5.9222,5.9222,5.9222,5.9222,5.9222,5.9222,5.9222,5.9222,0.0,0.0,0.0,0.0,0.0,0.0,0.0,0.0,0.0,2.1335,2.1818,2.217,2.2214,2.3357,0.0,0.0,0.0,0.0,0.0,0.0,2.7647,3.0319,3.058,3.1579,3.3598,3.5551,3.6846,3.7461,3.8875,3.9766,4.0138,3.9805,3.9668,3.9726,3.9668,3.9668,3.9726,3.9668,4.0098,4.08,4.0019,4.0449,4.1465,0.0,4.0976,4.1719,4.1777,4.2539,4.3613,4.4141,4.4922,4.582,4.666,4.748,4.8223,4.8757,4.8913,4.9011,4.9414,4.9484,4.9648,5.0137,5.0527,5.082,5.0879,5.1211,5.1621,5.2012,5.2168,5.2549,5.3452,5.4353,5.5125,5.5689,5.6586,5.7383,5.7925,5.8374,5.8869,5.9336,5.974,5.9988,5.9988,5.9988,5.9988,5.9988,5.9988,5.9968,5.9906,5.9078,5.8581,5.8519,5.7794,5.7608,5.8001,5.8001,5.825,5.8705,5.8705,5.8726,5.8788,5.8788,5.8788,5.8808,5.9222,5.9388,5.9429,5.9823,5.9988,5.9988,5.9988,5.9988,5.9988,5.9988,5.9988,5.9988,0.0,0.0,0.0,0.0,0.0,0.0,2.0941,2.0839,2.1087,2.2198,2.2023,2.1876,2.2154,2.3357,0.0,0.0,0.0,0.0,0.0,0.0,0.0,3.1604,3.0559,3.1999,3.6477,3.5679,3.5935,3.7341,3.7592,3.7969,3.8343,3.8265,3.8457,3.8826,3.8418,3.8457,3.8826,3.8418,3.8555,3.906,3.8904,3.9375,4.0215,4.0059,4.0547,0.0,4.168,4.2168,4.2773,4.3555,4.4648,4.582,4.666,4.7285,4.7851,4.8679,4.8913,4.9011,4.9414,4.9484,4.966,5.0508,5.0762,5.0898,5.125,5.166,5.1992,5.207,5.2637,5.3452,5.4437,5.4679,5.533,5.7135,5.7468,5.7887,5.8902,5.9418,5.976,5.9864,5.9947,5.9988,5.9988,5.9988,5.9988,5.9988,5.9988,5.9823,5.9429,5.8912,5.8436,5.8043,5.825,5.8415,5.8498,5.8498,5.8726,5.9181,5.9181,5.9388,5.9761,5.9761,5.9761,5.9761,5.9843,5.9864,5.9885,5.9968,5.9988,5.9988,5.9988,5.9988,5.9988,5.9988,5.9988,5.9988,0.0,0.0,0.0,0.0,0.0,0.0,2.1642,2.1715,2.1964,2.2769,2.2769,2.2681,2.2667,2.3369,2.3896,0.0,0.0,0.0,0.0,0.0,0.0,3.0483,3.1595,3.3304,3.5722,3.602,3.6639,3.7617,0.0,3.7519,3.7874,3.7695,3.7715,3.791,3.7695,3.7715,3.791,3.793,3.8047,3.8262,3.8476,3.9101,3.9902,3.9902,4.0566,0.0,4.1973,4.2402,4.2891,4.3769,4.4629,4.5527,4.6582,4.7383,4.8027,4.8718,4.907,4.9297,4.9746,5.0019,5.0351,5.0976,5.1133,5.1143,5.1338,5.1777,5.2148,5.2363,5.3105,5.3949,5.4655,5.5397,5.6279,5.7497,5.8156,5.8744,5.9564,5.9843,5.9988,5.9988,5.9988,5.9988,5.9988,5.9988,6.0092,6.034,6.034,6.0154,5.9678,5.9222,5.8746,5.8291,5.8498,5.8726,5.8974,5.8974,5.9202,5.9657,5.9657,5.9781,5.9988,5.9988,5.9988,5.9988,5.9988,6.0133,6.034,6.034,6.0485,6.0692,6.0692,6.0692,6.0692,6.0692,6.0692,6.0692,0.0,0.0,0.0,0.0,0.0,0.0,0.0,2.2432,2.2753,2.3252,2.3471,2.3545,2.3427,2.3588,2.3808,0.0,0.0,0.0,0.0,0.0,0.0,0.0,3.2137,3.3939,3.4273,0.0,0.0,3.7484,3.7187,0.0,0.0,0.0,0.0,0.0,3.7031,3.707,3.7187,3.7617,3.7816,0.0,0.0,3.9101,3.9922,0.0,0.0,0.0,0.0,4.2695,4.3263,4.4199,4.4824,4.5391,4.666,4.7539,4.8183,4.8757,4.9101,4.9492,5.0039,5.041,5.0801,5.126,5.1377,5.1377,5.1377,5.1914,5.2461,5.2773,5.3714,5.4639,5.5226,5.6306,5.7382,5.8136,5.8815,5.946,6.0071,6.005,5.9988,5.9988,5.9988,5.9988,5.9988,6.0071,6.0299,6.0651,6.0775,6.0589,6.003,5.9636,5.9243,5.8767,5.885,5.9078,5.945,5.945,5.9636,5.9988,5.9988,5.9988,5.9988,6.0092,6.0133,6.0133,6.0237,6.0485,6.0816,6.0816,6.1023,6.1301,6.1301,6.1301,6.1301,6.1301,6.1301,6.1301,0.0,0.0,0.0,0.0,0.0,0.0,0.0,2.2432,2.2945,2.3866,2.3764,2.3808,2.4412,2.4236,2.4089,0.0,0.0,0.0,0.0,0.0,0.0,0.0,0.0,0.0,0.0,0.0,0.0,3.6157,3.6118,0.0,0.0,0.0,0.0,0.0,0.0,3.6348,3.6792,3.7168,0.0,0.0,0.0,0.0,0.0,0.0,0.0,0.0,0.0,4.2695,4.3281,4.4531,4.5254,4.584,4.7109,4.7578,4.7793,4.8659,4.8933,4.9148,4.9941,5.0215,5.043,5.123,5.1377,5.1377,5.1377,5.2383,5.3312,5.3331,5.4707,5.6198,5.7158,5.7467,5.8156,6.0086,5.9722,5.9493,6.0494,6.0257,5.9988,5.9988,5.9988,5.9988,5.9988,6.0382,6.063,6.0671,6.1065,6.0899,6.003,5.9947,5.9719,5.9243,5.9636,5.9885,5.9926,5.9926,5.9947,5.9988,5.9988,5.9988,6.0009,6.0423,6.063,6.0651,6.1044,6.1198,6.1239,6.1239,6.126,6.1301,6.1301,6.1301,6.1301,6.1301,6.1301,6.1301,0.0,0.0,0.0,0.0,0.0,0.0,2.2637,2.2842,2.3267,2.428,2.4294,2.4309,2.4573,2.4485,2.4412,2.4412,0.0,0.0,0.0,0.0,0.0,0.0,0.0,0.0,0.0,0.0,3.5108,3.5982,3.5982,0.0,0.0,0.0,0.0,0.0,0.0,3.6113,3.6328,3.7012,0.0,0.0,0.0,0.0,0.0,0.0,0.0,0.0,0.0,0.0,4.3984,4.4766,4.5488,4.623,4.7246,4.7754,4.8066,4.8737,4.9043,4.9394,5.0019,5.0371,5.0703,5.1289,5.1621,5.1816,5.1816,5.2617,5.3488,5.3711,5.4982,5.6317,5.6964,5.7894,5.8856,5.9985,6.0083,6.0283,6.097,6.092,6.0713,6.0444,6.0402,6.0402,6.0402,6.0568,6.092,6.1458,6.1893,6.1872,6.1251,6.0713,6.0195,5.974,5.9906,5.9988,5.9988,5.9988,6.0133,6.0402,6.0402,6.0547,6.0816,6.1003,6.1085,6.1085,6.1218,6.1446,6.1715,6.1715,6.1913,6.2141,6.2141,6.2141,6.2141,6.2141,6.2141,6.2141,0.0,0.0,0.0,0.0,0.0,2.2228,2.2988,2.3193,2.3574,2.4485,2.4602,2.4646,2.4734,2.4749,2.4749,2.4749,2.4749,0.0,0.0,0.0,0.0,0.0,0.0,0.0,0.0,0.0,3.4505,3.5982,3.5982,3.5982,0.0,0.0,3.5982,3.5982,0.0,0.0,0.0,0.0,0.0,0.0,0.0,0.0,0.0,0.0,0.0,0.0,0.0,0.0,0.0,0.0,0.0,4.6621,4.7344,4.7949,4.8476,4.8972,4.918,4.9512,5.0332,5.0586,5.0781,5.1445,5.1855,5.2119,5.2316,5.3001,5.3742,5.4325,5.5555,5.6725,5.7163,5.8399,5.9543,6.0117,6.0489,6.0878,6.1404,6.1384,6.1177,6.092,6.0878,6.0878,6.0878,6.1003,6.1396,6.2162,6.2493,6.2493,6.2004,6.1292,6.0671,6.0216,6.005,6.005,6.0195,6.0195,6.0423,6.0878,6.0878,6.1044,6.1301,6.1425,6.1508,6.1508,6.1632,6.1934,6.2224,6.2224,6.241,6.2679,6.2679,6.2679,6.2679,6.2679,6.2679,6.2768,0.0,0.0,0.0,0.0,0.0,0.0,2.3062,2.3384,2.3823,2.4514,2.4602,2.4719,2.5056,2.5086,2.5086,2.5086,2.5086,0.0,0.0,0.0,0.0,0.0,0.0,0.0,0.0,0.0,3.4505,3.5982,3.5982,3.5982,3.5982,3.5982,3.5982,3.5982,0.0,0.0,0.0,0.0,0.0,0.0,0.0,0.0,4.0,0.0,0.0,0.0,0.0,0.0,0.0,0.0,0.0,0.0,0.0,4.8209,4.8991,4.9394,4.9199,4.9285,5.0957,5.082,5.0488,5.1758,5.207,5.2218,5.2757,5.3487,5.4294,5.529,5.6582,5.774,5.8203,5.9233,6.0278,6.1136,6.0961,6.1003,6.1839,6.157,6.1301,6.128,6.128,6.128,6.128,6.1694,6.2203,6.2672,6.2679,6.2493,6.2004,6.1529,6.1127,6.0692,6.0237,6.0216,6.0671,6.0671,6.0899,6.128,6.128,6.128,6.1301,6.1777,6.1984,6.2004,6.2472,6.2679,6.2679,6.2679,6.2679,6.2679,6.2679,6.2679,6.2679,6.2679,6.2679,6.3007,0.0,0.0,0.0,0.0,0.0,0.0,0.0,2.3193,2.3501,2.4177,2.4265,2.4485,2.5027,2.5086,2.5086,2.5086,2.5086,0.0,0.0,0.0,0.0,0.0,0.0,0.0,0.0,0.0,3.2476,3.4555,3.5519,3.6172,3.6465,3.6465,3.6309,3.6001,3.6328,3.6577,0.0,0.0,0.0,0.0,0.0,3.9902,4.0,0.0,0.0,0.0,0.0,0.0,0.0,0.0,0.0,0.0,0.0,0.0,0.0,4.9844,4.9668,4.957,5.0683,5.1016,5.1211,5.1914,5.2569,5.3119,5.3668,5.4171,5.4934,5.6254,5.7183,5.7971,5.8722,5.9763,6.0651,6.1198,6.1446,6.181,6.239,6.21,6.1653,6.1322,6.1301,6.1425,6.1735,6.2224,6.2555,6.2679,6.2679,6.2796,6.2928,6.2224,6.1549,6.1094,6.0692,6.0671,6.1127,6.1127,6.1301,6.1756,6.1756,6.1976,6.2265,6.241,6.2472,6.2493,6.2617,6.2679,6.2679,6.2679,6.2679,6.2679,6.2679,6.2679,6.2679,6.2679,6.2679,6.3007,0.0,0.0,0.0,0.0,0.0,0.0,0.0,2.3106,2.334,2.3998,2.4118,2.4368,2.5012,2.5086,2.5086,2.5086,2.5086,0.0,0.0,0.0,0.0,0.0,0.0,0.0,3.0138,3.0343,3.1543,3.3882,3.5314,3.625,3.6714,3.6714,3.6445,3.6001,3.6484,3.6792,0.0,0.0,0.0,0.0,3.9707,4.0039,4.0,0.0,0.0,0.0,0.0,0.0,0.0,0.0,0.0,0.0,0.0,0.0,0.0,0.0,5.0215,5.0195,5.1055,5.1348,5.1582,5.2168,5.2901,5.3561,5.4334,5.4672,5.528,5.6929,5.7595,5.8067,5.8965,5.9992,6.0816,6.1218,6.1673,6.2087,6.239,6.2203,6.188,6.1591,6.1549,6.1735,6.2245,6.2534,6.2679,6.2679,6.2866,6.3107,6.3362,6.2866,6.2493,6.2369,6.1437,6.1148,6.1549,6.1549,6.1777,6.2286,6.2286,6.2431,6.2679,6.2679,6.2679,6.2679,6.2679,6.2679,0.0,6.2679,6.2679,6.2679,6.2679,6.2679,6.2679,6.2679,6.3205,6.4248,0.0,0.0,0.0,0.0,0.0,0.0,0.0,2.3135,2.3369,2.4031,2.4133,2.4397,2.5027,2.5086,2.5086,2.5086,0.0,0.0,0.0,0.0,0.0,0.0,0.0,0.0,2.9645,3.0155,3.1474,3.3707,3.526,3.625,3.6714,3.6714,3.6445,3.6094,3.6523,3.6973,0.0,0.0,0.0,0.0,3.9961,4.0254,0.0,0.0,0.0,0.0,0.0,0.0,0.0,0.0,0.0,0.0,0.0,0.0,0.0,0.0,0.0,0.0,0.0,5.1777,5.167,5.2519,5.3116,5.3771,5.4825,5.4994,0.0,5.7443,5.7832,5.8118,5.9017,6.0012,6.0858,6.1218,6.1715,6.2025,6.1984,6.1942,6.1942,6.1984,6.1984,6.2224,6.2679,6.2734,6.2679,6.2741,6.3114,6.3438,6.3487,6.3501,6.3687,6.4108,6.241,6.1653,6.212,6.2046,6.2286,6.2679,6.2679,6.2679,6.2679,6.2679,6.2679,6.2679,6.2679,6.2679,6.2679,6.2679,6.2679,6.2679,6.2679,6.2679,6.2734,6.2898,6.4248,6.6331,0.0,0.0,0.0,0.0,0.0,0.0,0.0,0.0,0.0,0.0,2.4338,2.4646,2.5042,2.5086,2.5086,0.0,0.0,0.0,0.0,0.0,0.0,0.0,0.0,0.0,2.7731,2.9228,3.0631,3.1825,3.4629,3.625,3.6714,3.6714,3.6656,3.6543,3.6953,3.7559,0.0,0.0,0.0,0.0,3.9648,4.0176,0.0,0.0,0.0,0.0,4.3613,4.4297,0.0,0.0,0.0,0.0,0.0,0.0,0.0,0.0,5.1035,5.128,5.1523,0.0,5.2461,5.2656,5.3583,5.4629,0.0,5.5749,5.6497,5.8058,5.8397,5.8686,5.9614,6.0545,6.1177,6.128,6.2017,6.241,6.2025,6.1673,6.1591,6.1942,6.1984,6.2348,6.319,6.2921,6.2858,6.3176,6.3356,6.3673,6.4356,6.4122,6.4108,6.4542,6.3487,6.2928,6.3052,6.2679,6.261,6.2679,6.2679,6.2679,6.2679,6.2679,6.2679,6.2679,6.2679,6.2679,6.2679,6.2679,6.2679,6.2679,6.2679,6.2679,6.2919,6.4627,6.5551,6.6544,0.0,0.0,0.0,0.0,0.0,0.0,0.0,0.0,0.0,0.0,0.0,2.4734,2.5056,2.5086,0.0,0.0,0.0,0.0,0.0,0.0,0.0,0.0,0.0,2.582,2.7391,2.9044,3.0748,3.245,3.4838,3.625,3.6714,3.691,3.689,3.6734,3.7305,3.7949,0.0,0.0,0.0,3.8728,3.9961,0.0,0.0,0.0,0.0,0.0,4.3789,4.4453,0.0,4.6016,4.6875,4.7773,0.0,0.0,0.0,0.0,5.1201,5.1377,5.1377,5.2198,5.3043,5.3043,5.4114,5.5325,5.583,5.6345,5.7096,5.8354,5.8788,5.9202,6.0133,6.0713,6.1189,6.1549,6.1893,6.1996,6.1694,6.1632,6.1694,6.1942,6.2203,6.2534,6.3045,6.3066,6.3114,6.3362,6.3756,6.4232,6.4651,6.4687,6.4791,6.5039,6.417,6.3625,6.3362,6.2928,6.2679,6.2679,6.2679,6.2679,6.2679,6.2679,6.2679,6.2679,6.2679,6.2679,6.2679,6.2679,6.2679,6.2679,6.2679,6.3314,6.4357,6.5551,6.7286,6.9467,0.0,0.0,0.0,0.0,0.0,0.0,0.0,0.0,0.0,0.0,0.0,0.0,0.0,0.0,0.0,0.0,0.0,0.0,0.0,0.0,0.0,0.0,2.5144,2.599,2.7763,2.9295,3.133,3.3882,3.5371,3.6348,3.6812,3.7129,3.7148,3.6929,3.7676,3.8223,0.0,3.8965,3.8945,3.8845,4.043,0.0,0.0,0.0,0.0,0.0,0.0,0.0,0.0,4.6113,4.6914,4.7812,4.9121,0.0,0.0,0.0,0.0,0.0,5.1718,5.2748,5.3688,5.3539,5.4505,5.5648,5.6263,5.6831,5.7484,5.8416,5.9036,5.9636,6.0423,6.0754,6.1127,6.1756,6.1549,6.1301,6.1301,6.1632,6.1921,6.2066,6.2452,6.2741,6.2866,6.3176,6.3425,6.3625,6.4294,6.4729,6.4796,6.5169,6.5412,6.5412,6.4604,6.3998,6.3487,6.2983,6.2679,6.2679,6.2679,6.2679,6.2679,6.2679,6.2679,6.2679,6.2679,6.2679,6.2679,6.2679,6.2679,6.2679,6.2679,6.4032,6.6033,6.6384,6.9207,7.2978,0.0,0.0,0.0,0.0,0.0,0.0,0.0,0.0,0.0,0.0,0.0,0.0,0.0,0.0,0.0,0.0,0.0,0.0,0.0,0.0,0.0,2.5086,2.5315,2.6182,2.7779,2.9798,3.1841,3.3882,3.5712,3.6797,3.7207,3.7266,3.7461,3.7754,3.8262,3.8552,3.8611,3.8689,3.8828,3.9199,4.0215,0.0,0.0,0.0,0.0,0.0,0.0,0.0,0.0,4.6543,4.7168,4.7812,4.9121,0.0,0.0,0.0,0.0,0.0,5.3215,5.4065,5.4645,5.3737,5.4285,5.5315,5.6202,5.7134,5.7941,5.8519,5.9285,5.9926,6.0071,6.1044,6.1694,6.1446,6.1342,6.1301,6.1301,6.1363,6.1673,6.2493,6.2672,6.299,6.3811,6.3625,6.3694,6.4424,6.461,6.4858,6.5288,6.537,6.5412,6.5412,6.4858,6.4418,6.3998,6.3114,6.2679,6.2679,6.2679,6.2679,6.2679,6.2679,6.2679,6.2679,6.2679,6.2679,6.2679,6.2679,6.2679,6.2679,6.2679,6.4032,6.6224,6.8183,7.0761,7.3812,0.0,0.0,0.0,0.0,0.0,0.0,0.0,0.0,0.0,0.0,0.0,0.0,0.0,0.0,0.0,0.0,0.0,0.0,0.0,0.0,2.5159,2.5301,2.5622,2.6498,2.8032,3.0806,3.2865,3.4178,3.5885,3.6929,3.7305,3.7539,3.7871,3.8281,3.8476,3.8611,3.863,3.8828,3.918,3.9668,0.0,0.0,0.0,0.0,0.0,0.0,0.0,0.0,0.0,0.0,4.7226,4.7851,4.9394,0.0,0.0,0.0,0.0,0.0,5.3871,5.4356,5.4656,5.4751,5.5482,5.635,5.7052,5.7757,5.8415,5.8891,5.9719,6.0361,6.0361,6.0878,6.1148,6.0692,6.123,6.157,6.1322,6.1976,6.2493,6.2679,6.2928,6.3238,6.3687,6.3735,6.406,6.4667,6.492,6.5163,6.5412,6.5412,6.5412,6.5412,6.492,6.4604,6.4418,6.3563,6.2928,6.2679,6.2679,6.2679,6.2679,6.2679,6.2679,6.2679,6.2679,6.2679,6.2679,6.2679,6.2679,6.2843,6.4032,6.5872,6.8288,7.2015,7.4588,7.6348,0.0,0.0,0.0,0.0,0.0,0.0,0.0,0.0,0.0,0.0,0.0,0.0,0.0,0.0,0.0,0.0,0.0,0.0,0.0,2.5159,2.5271,2.5486,2.6563,2.7702,2.8901,3.1616,3.3676,3.5079,3.6467,3.7418,3.791,3.8242,3.8516,3.873,3.873,3.8826,3.8906,3.9219,3.9746,4.043,0.0,0.0,0.0,0.0,0.0,0.0,0.0,0.0,0.0,0.0,0.0,0.0,0.0,0.0,0.0,5.2754,5.3527,5.4144,5.4708,5.4856,5.5076,5.5921,5.6588,5.7209,5.7764,5.8353,5.8871,5.9222,6.003,6.0671,6.0671,6.0775,6.0713,6.0361,6.1189,6.1694,6.1342,6.2327,6.299,6.2755,6.3114,6.3425,6.3563,6.3998,6.4418,6.4853,6.5225,6.5412,6.5412,6.5412,6.5412,6.5412,6.5044,6.4796,6.4729,6.3921,6.33,6.2866,6.2741,6.2679,6.2679,6.2679,6.2679,6.2679,6.2679,6.2679,6.2679,6.2679,6.3007,6.3619,6.5337,6.7814,7.0888,7.5335,7.7576,7.8475,0.0,0.0,0.0,0.0,0.0,0.0,0.0,0.0,0.0,0.0,0.0,0.0,0.0,0.0,0.0,0.0,0.0,0.0,0.0,2.533,2.5471,2.55,2.8797,3.0684,3.0788,3.1717,3.3785,3.7105,3.8011,3.8867,3.9707,3.9746,3.9551,3.916,3.916,3.9394,3.9805,3.9824,4.0547,4.1699,4.2187,0.0,0.0,0.0,0.0,0.0,0.0,0.0,0.0,0.0,0.0,0.0,0.0,0.0,5.2874,5.347,5.4584,5.5769,5.6264,5.6412,5.6515,5.697,5.6815,5.6778,5.7714,5.8601,5.9264,5.9285,6.003,6.0671,6.0671,6.1023,6.1239,6.1198,6.128,6.1322,6.1301,6.1735,6.2265,6.2672,6.3114,6.3549,6.3983,6.4418,6.4853,6.5293,6.5355,6.5412,6.5412,6.5412,6.5412,6.5412,6.537,6.5163,6.4729,6.4253,6.3797,6.3356,6.2921,6.2679,6.2679,6.2679,6.2679,6.2679,6.2679,6.2679,6.2679,6.2679,6.389,6.5765,6.5926,6.8923,7.356,7.6472,7.7917,7.8527,0.0,0.0,0.0,0.0,0.0,0.0,0.0,0.0,0.0,0.0,0.0,0.0,0.0,0.0,0.0,0.0,0.0,0.0,0.0,2.5359,2.5588,2.5792,2.8502,3.0064,3.0186,3.3304,3.5407,3.6332,3.8097,3.9277,3.9902,3.9902,3.9805,3.9648,3.9902,4.0117,4.0312,4.0859,4.1504,4.2246,4.2949,4.3496,0.0,0.0,0.0,0.0,0.0,0.0,0.0,0.0,4.8529,4.8914,5.0333,5.2,5.357,5.437,5.5123,5.5991,5.6755,5.678,5.6788,5.7484,5.7725,5.7975,5.8612,5.9057,5.9471,6.005,6.0651,6.1085,6.1085,6.0775,6.0589,6.0878,6.1168,6.1384,6.1673,6.2162,6.2493,6.2679,6.3114,6.3549,6.406,6.448,6.4915,6.537,6.5412,6.5412,6.5412,6.5412,6.5412,6.5412,6.5412,6.5293,6.5163,6.4439,6.4128,6.419,6.3176,6.2679,6.2679,6.2679,6.2679,6.2679,6.2679,6.2679,6.2823,6.4194,6.5251,6.6331,6.9444,7.3123,7.6779,7.8137,7.9201,8.0078,0.0,0.0,0.0,0.0,0.0,0.0,0.0,0.0,0.0,0.0,0.0,0.0,0.0,0.0,0.0,0.0,0.0,0.0,2.5232,2.5505,2.6036,2.6839,2.8545,3.0074,3.1359,3.4607,3.6176,3.5852,3.836,3.9844,4.0293,4.0293,4.0293,4.0312,4.0605,4.0879,4.1133,4.1758,4.2402,4.3105,4.3691,4.4199,0.0,0.0,0.0,0.0,0.0,0.0,0.0,0.0,4.9347,4.9919,5.1534,5.3009,5.4301,5.5091,5.5684,5.621,5.7011,5.7008,5.6987,5.7918,5.8601,5.916,5.9636,5.974,5.9947,6.0734,6.1251,6.1425,6.1136,6.0754,6.0527,6.0837,6.1148,6.1446,6.1921,6.241,6.2741,6.2866,6.3356,6.3811,6.4232,6.4667,6.5044,6.5355,6.5412,6.5412,6.5412,6.5412,6.5412,6.5412,6.5412,6.535,6.5169,6.4604,6.4356,6.448,6.3549,6.3114,6.3114,6.3114,6.3114,6.3114,6.3114,6.3533,6.4313,6.5845,6.7412,6.9297,7.3488,7.6833,7.9329,7.9701,8.0507,8.1524,0.0,0.0,0.0,0.0,0.0,0.0,0.0,0.0,0.0,0.0,0.0,0.0,0.0,0.0,0.0,0.0,0.0,0.0,2.5471,2.5807,2.6854,2.8691,2.9373,3.1376,3.4864,3.5321,3.576,3.6256,3.9108,4.0742,4.1211,4.1211,4.1211,4.1211,4.123,4.166,4.2401,4.2401,4.3203,4.4394,4.4414,4.4668,4.5078,0.0,0.0,0.0,0.0,0.0,0.0,0.0,5.0224,5.1242,5.259,5.3985,5.5189,5.5687,5.6177,5.6705,5.7111,5.7185,5.7442,5.8374,5.9305,6.0113,6.0589,6.0692,6.0816,6.1198,6.1653,6.1748,6.0858,6.1044,6.128,6.1301,6.1301,6.1466,6.1921,6.241,6.2866,6.3356,6.3797,6.4253,6.4667,6.5106,6.5412,6.5412,6.5412,6.5412,6.5412,6.5412,6.5412,6.5412,6.5412,6.5169,6.4729,6.4729,6.4501,6.4122,6.4122,6.4122,6.4122,6.4122,6.4122,6.4122,6.4122,6.5429,6.7529,6.7562,7.0589,7.5451,7.7637,7.9549,8.1039,8.1039,8.1702,8.2676,0.0,0.0,0.0,0.0,0.0,0.0,0.0,0.0,0.0,0.0,0.0,0.0,0.0,0.0,0.0,0.0,0.0,0.0,2.5471,2.6012,2.6715,2.7509,3.0547,3.2174,3.2052,3.4922,3.7222,3.8799,3.9948,4.0742,4.1211,4.1484,4.1621,4.1641,4.2246,4.2696,4.293,4.3555,4.4043,4.4453,4.5058,4.5371,4.5527,0.0,0.0,0.0,0.0,0.0,0.0,0.0,0.0,0.0,5.346,5.4763,5.5756,5.6231,5.6474,5.6705,5.7111,5.7185,5.7442,5.8374,5.9305,6.0195,6.0982,6.1148,6.1136,6.126,6.1404,6.1322,6.0796,6.0796,6.0982,6.1239,6.157,6.1976,6.2431,6.2866,6.3238,6.3362,6.4046,6.4548,6.4672,6.5106,6.5412,6.5412,6.5412,6.5412,6.5412,6.5412,6.5412,6.5412,6.5722,6.5681,6.5225,6.5169,6.5106,6.4998,6.4667,6.4356,6.4122,6.4122,6.4122,6.4213,6.5782,6.6895,6.7779,7.1439,7.473,7.7687,7.9526,8.0791,8.1635,8.2453,8.3176,8.3852,0.0,0.0,0.0,0.0,0.0,0.0,0.0,0.0,2.5086,2.5086,2.5086,2.5086,0.0,0.0,0.0,2.5086,2.5203,2.5374,2.5661,2.6339,2.7127,2.8021,3.0182,3.155,3.1944,3.5766,3.846,3.9902,4.0488,4.0996,4.1426,4.1855,4.2226,4.2578,4.3086,4.3516,4.3887,4.4414,4.4746,4.4941,4.5512,4.5781,4.5976,0.0,0.0,0.0,0.0,0.0,0.0,0.0,0.0,0.0,5.4464,5.5398,5.5993,5.6635,5.6747,5.6705,5.7111,5.7359,5.7732,5.8643,5.9719,6.0713,6.1404,6.157,6.1508,6.1322,6.1301,6.1156,6.0754,6.0816,6.1085,6.1487,6.1797,6.2183,6.2617,6.3128,6.3501,6.3687,6.4294,6.4791,6.4977,6.5225,6.5412,6.5412,6.5412,6.5412,6.5412,6.5412,6.5495,6.5681,6.5971,6.5971,6.5681,6.5681,6.5598,6.5412,6.5101,6.4853,6.4604,6.4604,6.5147,6.6202,6.9444,7.083,7.1153,7.5411,7.8211,7.9912,8.1205,8.228,8.3261,8.3931,8.453,8.5079,0.0,0.0,0.0,0.0,0.0,0.0,0.0,2.5086,2.5086,2.5086,2.5086,2.5086,0.0,0.0,0.0,2.5086,2.5344,2.5632,2.6003,2.6661,2.7781,2.9477,2.9132,3.0519,3.4073,3.7464,3.9434,3.9902,4.0762,4.1387,4.1816,4.2266,4.293,4.3711,4.375,4.4238,4.4977,4.5058,4.5312,4.5727,4.5762,4.6016,4.6406,4.688,0.0,0.0,0.0,0.0,0.0,0.0,0.0,0.0,5.531,5.5918,5.6055,5.6966,5.6945,5.6718,5.7111,5.7537,5.8187,5.9078,6.0361,6.1466,6.188,6.1942,6.1777,6.1322,6.126,6.1156,6.0754,6.1085,6.1487,6.1921,6.2025,6.2245,6.2679,6.319,6.3611,6.4122,6.4542,6.492,6.537,6.5412,6.5412,6.5412,6.5412,6.5412,6.5412,6.5417,6.566,6.6095,6.6178,6.6178,6.6116,6.6157,6.5929,6.5412,6.5412,6.5526,6.5697,6.5697,6.713,6.975,7.4038,7.6034,7.6534,7.9164,8.0932,8.1956,8.2596,8.3807,8.5209,8.5262,8.5628,8.6098,0.0,0.0,0.0,0.0,0.0,0.0,2.5086,2.5086,2.5086,2.5086,2.5086,2.5086,2.5086,2.5086,0.0,2.5086,2.5344,2.5632,2.6003,2.6866,2.7659,2.8267,3.1028,3.4116,3.7475,3.8633,3.9434,3.9902,4.0762,4.1387,4.1816,4.2578,4.3203,4.373,4.4082,4.4531,4.4996,4.5391,4.5586,4.5785,4.6387,4.6719,4.6836,4.7686,4.824,0.0,0.0,0.0,0.0,0.0,0.0,0.0,5.5414,5.5918,5.6055,5.6966,5.7152,5.7111,5.7194,5.7836,5.8601,5.916,6.0609,6.1859,6.1963,6.1694,6.1322,6.092,6.1106,6.1156,6.0754,6.1334,6.1859,6.1963,6.2327,6.2679,6.3176,6.3632,6.4122,6.4542,6.4977,6.5288,6.5412,6.5412,6.5412,6.5412,6.5412,6.5412,6.5412,6.5743,6.5991,6.6116,6.6799,6.6861,6.6116,6.6488,6.624,6.5412,6.5412,6.6338,6.8134,6.8134,7.0446,7.4467,7.5451,7.7164,7.9395,8.0396,8.1494,8.2596,8.3573,8.448,8.5236,8.5706,8.5967,8.6098,0.0,0.0,0.0,0.0,0.0,0.0,0.0,0.0,2.5461,2.5301,2.5188,2.5086,2.5086,2.5086,0.0,0.0,2.5491,2.5792,2.6003,2.7071,2.8244,2.9465,3.2982,3.579,3.7685,3.8712,3.9531,4.0195,4.1055,4.168,4.2129,4.2969,4.373,4.4355,4.459,4.5039,4.5644,4.5879,4.6094,4.6308,4.6714,4.7184,4.7662,4.8582,4.925,4.9762,5.0661,0.0,0.0,0.0,0.0,0.0,0.0,0.0,5.6055,5.6966,5.7185,5.7185,5.7185,5.7898,5.8871,5.9988,6.1313,6.2224,6.1756,6.1466,6.1156,6.0775,6.0878,6.1023,6.1003,6.1562,6.2046,6.2307,6.2741,6.3114,6.3376,6.3998,6.448,6.4672,6.5106,6.5412,6.5412,6.5412,6.5412,6.5412,6.5412,6.5412,6.5412,6.5867,6.6219,6.6426,6.7109,6.7254,6.6799,6.6799,6.6426,6.5743,6.6634,6.886,7.2231,7.2231,7.3608,7.5981,7.7374,7.8802,8.0268,8.1341,8.2314,8.3189,8.4299,8.5105,8.5654,8.5967,8.6098,8.6098,0.0,0.0,0.0,0.0,0.0,0.0,0.0,0.0,0.0,2.5544,2.5301,2.5173,2.5173,2.5173,2.5188,0.0,0.0,0.0,2.6105,2.7519,2.9351,3.1606,3.4649,3.6607,3.7202,3.8665,3.9785,4.0489,4.1387,4.2051,4.2558,4.3418,4.4258,4.4996,4.5098,4.5566,4.6308,4.6387,4.6621,4.6953,4.7212,4.7839,4.8613,4.9668,5.0374,5.0868,5.2081,5.2594,5.2763,5.3529,0.0,0.0,0.0,0.0,5.6084,5.6863,5.7173,5.7206,5.7268,5.8146,5.9347,6.0887,6.2017,6.2452,6.1487,6.1301,6.1156,6.0775,6.0734,6.0941,6.1322,6.1777,6.2265,6.2617,6.3107,6.3438,6.3487,6.4232,6.4729,6.4796,6.5163,6.5412,6.5412,6.5412,6.5412,6.5412,6.5412,6.5417,6.5536,6.5991,6.6426,6.6923,6.7358,6.7544,6.7358,6.6985,6.6741,6.6618,6.8967,7.2122,7.5928,7.6419,7.6578,7.6639,7.9213,8.0395,8.0574,8.216,8.3189,8.3914,8.4846,8.5549,8.6098,8.6098,8.6098,8.6098,0.0,0.0,0.0,0.0,0.0,0.0,0.0,0.0,0.0,0.0,2.5456,2.5461,2.5461,2.5461,2.5544,2.5857,2.6222,2.6442,2.6442,0.0,0.0,3.3301,3.5537,3.739,3.8846,3.9828,4.0372,4.0489,4.1387,4.2207,4.3008,4.3887,4.457,4.4996,4.543,4.5859,4.6328,4.6699,4.6831,4.7031,4.8599,4.932,4.9616,5.1373,5.2069,5.2229,5.2838,5.3333,5.3617,5.3773,5.4062,0.0,0.0,0.0,5.6021,5.6539,5.6925,5.7268,5.7711,5.9098,6.0547,6.1136,6.2017,6.2452,6.1487,6.1301,6.1156,6.0775,6.0982,6.1342,6.1797,6.2307,6.2617,6.2679,6.3107,6.3563,6.3921,6.4418,6.4853,6.5288,6.537,6.5412,6.5412,6.5412,6.5412,6.5412,6.5412,6.5598,6.5991,6.6467,6.6923,6.7378,6.7854,6.7748,6.6923,6.6799,6.7382,6.8556,7.2928,7.5267,7.6005,7.8492,7.9405,7.9032,8.0312,8.1186,8.17,8.2881,8.4043,8.4976,8.5157,8.5549,8.6098,8.6098,8.6098,8.6098,0.0,0.0,0.0,0.0,0.0,0.0,0.0,0.0,0.0,0.0,0.0,2.5559,2.5749,2.5602,2.5617,2.5953,2.631,2.6735,2.7239,2.9381,3.1679,3.3987,3.5988,3.797,3.9904,4.0274,4.0644,4.0879,4.1738,4.2461,4.3105,4.4219,4.498,4.5391,4.5586,4.6035,4.666,4.6811,4.7344,4.8112,4.9183,5.0086,5.0929,5.2301,5.3132,5.3614,5.4166,5.4606,5.4979,5.4979,5.4938,5.5062,5.6035,0.0,0.0,0.0,5.7463,5.767,5.7856,5.9078,6.0402,6.0858,6.1644,6.2141,6.1446,6.1301,6.1239,6.1085,6.1156,6.1425,6.1901,6.239,6.2796,6.3066,6.3501,6.3921,6.4377,6.4796,6.5163,6.5355,6.5412,6.5412,6.5412,6.5412,6.5412,6.5412,6.5412,6.5598,6.6037,6.655,6.7006,6.7482,6.7937,6.773,6.6799,6.6799,6.8158,7.0919,7.4306,7.6586,7.7918,7.9205,7.9926,8.0364,8.1491,8.2237,8.2856,8.3991,8.4768,8.5209,8.5549,8.5863,8.6098,8.6098,8.6098,8.6098,0.0,0.0,0.0,0.0,0.0,0.0,0.0,0.0,0.0,0.0,0.0,2.612,2.6354,0.0,0.0,0.0,2.653,2.7042,2.797,3.0347,3.2555,3.4419,3.6841,3.8841,4.0469,4.0625,4.0898,4.1328,4.207,4.2773,4.3437,4.4512,4.5371,4.5996,4.5879,4.623,4.6889,4.7168,4.7961,4.9163,4.9961,5.1069,5.235,5.3297,5.4128,5.4917,5.5248,5.5579,5.5918,5.5918,5.5773,5.5703,5.6738,5.6987,0.0,0.0,0.0,5.8125,5.8229,5.9202,6.0257,6.0589,6.1437,6.2004,6.1425,6.1301,6.1322,6.1446,6.1363,6.1466,6.21,6.2452,6.2858,6.33,6.3811,6.4232,6.4667,6.5101,6.5412,6.5412,6.5412,6.5412,6.5412,6.5412,6.5412,6.5412,6.5412,6.566,6.624,6.6612,6.7047,6.7668,6.7999,6.7792,6.6985,6.8077,7.0304,7.3741,7.6047,7.8103,7.9821,8.0102,8.0743,8.1694,8.239,8.3061,8.3811,8.4977,8.5419,8.5471,8.5915,8.6098,8.6098,8.6098,8.6098,8.6098,0.0,0.0,0.0,0.0,0.0,0.0,0.0,0.0,0.0,0.0,0.0,2.7378,2.743,2.7115,2.7042,2.7378,2.713,2.7378,2.8306,3.2025,3.4398,3.4869,3.8359,0.0,4.0489,4.0937,4.1348,4.1758,4.2207,4.3045,4.4336,4.4805,4.564,4.6811,4.6445,4.6504,4.6928,4.7793,4.8692,4.9703,5.147,5.2795,5.3787,5.4746,5.5393,5.5807,5.5828,0.0,5.5918,5.5918,5.6208,5.656,5.6622,5.7173,5.7856,0.0,0.0,0.0,5.9119,5.9926,6.0651,6.0671,6.1665,6.241,6.1487,6.1301,6.1425,6.1859,6.1591,6.1549,6.2493,6.2679,6.2858,6.33,6.3811,6.4232,6.4667,6.5101,6.5412,6.5412,6.5412,6.5412,6.5412,6.5412,6.5412,6.5412,6.5412,6.5805,6.6737,6.6799,6.7233,6.8123,6.8186,6.7937,6.7482,7.1486,7.4803,7.7258,7.9607,8.0793,8.0951,8.2059,8.2839,8.3339,8.2904,8.3345,8.4458,8.5576,8.6046,8.6046,8.6072,8.6098,8.6098,8.6098,8.6098,8.6098,0.0,0.0,0.0,0.0,0.0,0.0,0.0,0.0,0.0,0.0,0.0,0.0,0.0,2.7634,2.7692,2.8066,2.8169,2.9374,3.2156,3.2855,3.43,3.683,3.8457,3.9793,4.0937,4.1094,4.1504,4.2207,4.2637,4.3516,4.4824,4.5527,4.623,4.687,4.6777,4.7246,4.8229,4.8816,4.9802,5.1007,5.264,5.3637,5.4237,5.4931,5.5476,5.5918,0.0,0.0,0.0,0.0,0.0,0.0,0.0,5.8105,5.8415,5.8726,5.8705,5.8581,5.8457,5.9098,5.9864,6.0175,6.1044,6.181,6.1735,6.1508,6.1342,6.1508,6.1404,6.1487,6.2162,6.2493,6.2928,6.3749,6.3998,6.4371,6.5039,6.5288,6.5412,6.5412,6.5412,6.5412,6.5412,6.5412,6.5412,6.5412,6.5412,6.5805,6.6737,6.6799,6.7233,6.8165,6.8186,6.8685,6.9794,7.2516,7.5101,7.7517,7.9865,8.1184,8.1604,8.2016,8.2872,8.4068,8.3862,8.4432,8.5524,8.5941,8.6098,8.6098,8.6098,8.6098,8.6098,8.6098,8.6098,8.6098,0.0,0.0,0.0,0.0,0.0,0.0,0.0,0.0,2.871,2.8608,0.0,0.0,0.0,0.0,3.0351,3.0313,3.0678,3.1994,3.4509,3.4575,3.5677,3.8144,3.9028,4.0097,4.1387,4.1387,4.1875,4.2851,4.3301,4.4121,4.5254,4.6113,4.6738,4.7148,4.7305,4.791,4.8959,4.9578,5.0716,5.2208,5.3465,5.4477,5.5175,5.5661,5.6159,5.6552,0.0,0.0,0.0,0.0,0.0,0.0,0.0,0.0,5.914,5.945,5.9202,5.8767,5.8457,5.8933,5.9616,5.9906,6.0796,6.1611,6.1921,6.1735,6.1529,6.1529,6.1529,6.1611,6.1921,6.239,6.299,6.3921,6.4122,6.4377,6.5288,6.5412,6.5412,6.5412,6.5412,6.5412,6.5412,6.5412,6.5412,6.5412,6.5412,6.5805,6.6737,6.6799,6.7233,6.8165,6.8975,7.0388,7.2538,7.4552,7.6851,7.9262,8.0997,8.2055,8.2477,8.2819,8.3599,8.4691,8.4848,8.5394,8.6098,8.6098,8.6098,8.6098,8.6098,8.6098,8.6098,8.6098,8.6098,8.6098,0.0,0.0,0.0,0.0,0.0,0.0,0.0,0.0,2.954,2.9958,0.0,0.0,0.0,0.0,0.0,3.4322,3.4774,3.5111,3.5206,3.736,3.8682,3.8722,4.0352,4.1465,4.1836,4.1855,4.248,4.375,4.4199,4.4863,4.5723,4.6562,4.7187,4.7662,4.8047,4.8522,4.9018,4.996,5.1382,5.3101,5.4077,5.5327,5.6664,5.7049,5.7454,5.7898,5.7898,5.8187,0.0,5.7496,0.0,0.0,0.0,0.0,0.0,5.9988,5.9657,5.9305,0.0,0.0,0.0,5.9968,6.0982,6.1942,6.1963,6.1963,6.1984,6.1963,6.1963,6.1984,6.1984,6.239,6.299,6.3936,6.4122,6.4377,6.5288,6.5412,6.5412,6.5412,6.5412,6.5412,6.5412,6.5412,6.5412,6.5412,6.5412,6.5805,6.6737,6.6799,6.7233,6.8165,7.0517,7.2992,7.5402,7.7806,8.0228,8.2712,8.3248,8.3515,8.3568,8.4682,8.5209,8.5261,8.5863,8.6098,8.6098,8.6098,8.6098,8.6098,8.6098,8.6098,8.6098,8.6098,8.6098,8.6098,0.0,0.0,0.0,0.0,0.0,2.9496,2.9731,2.9774,3.036,0.0,0.0,0.0,3.4411,3.5627,3.688,3.817,3.7304,3.771,4.0196,3.986,4.0071,4.1294,4.2123,4.2638,4.2715,4.3027,4.3672,4.4648,4.4785,4.5449,4.6601,4.7148,4.7617,4.8047,4.8842,4.9637,5.0415,5.1389,5.2673,5.4118,5.5478,5.6247,5.6622,5.6697,5.7028,0.0,0.0,5.7504,5.7629,0.0,5.8353,5.9222,0.0,0.0,5.9988,5.9988,5.9657,5.9222,5.8891,0.0,0.0,0.0,0.0,0.0,6.1404,6.1735,6.188,6.1549,6.1756,6.1984,6.1984,6.239,6.2866,6.3487,6.3859,6.4309,6.4796,6.5169,6.5412,6.5412,6.5412,6.5412,6.5412,6.5412,6.5412,6.5412,6.5412,6.566,6.6281,6.6923,6.7565,6.8165,7.0517,7.2992,7.5402,7.7806,8.0422,8.3301,8.3408,8.3941,8.4735,8.5051,8.5419,8.5863,8.6046,8.6098,8.6098,8.6098,8.6098,8.6098,8.6098,8.6098,8.6098,8.6098,8.6098,8.6098,0.0,0.0,3.0226,3.0937,3.1244,3.1452,3.1609,3.255,3.3688,0.0,0.0,0.0,3.9468,3.9048,3.938,4.132,4.0413,4.0566,4.2574,4.1786,4.1664,4.2655,4.3105,4.3437,4.3633,4.3867,4.4414,4.5293,4.5293,4.5859,4.6889,4.7558,4.8105,4.858,4.9644,5.0749,5.1872,5.2849,5.3805,5.4809,5.6086,0.0,5.6883,5.7277,5.7566,0.0,0.0,0.0,5.8622,5.8312,5.8684,0.0,0.0,0.0,0.0,0.0,5.9657,5.9243,5.8974,5.8891,5.9015,5.9471,0.0,0.0,6.1136,6.1653,6.1859,6.1384,6.1797,6.2245,6.2025,6.2245,6.2555,6.3045,6.3356,6.3749,6.4356,6.4853,6.5101,6.5101,6.5288,6.5412,6.5412,6.5412,6.5412,6.5412,6.5412,6.5598,6.6037,6.6985,6.7606,6.7875,7.1422,7.398,7.5402,7.8805,8.1529,8.3515,8.3781,8.4365,8.5209,8.5471,8.5759,8.6098,8.6098,8.6098,8.6098,8.6098,8.6098,8.6098,8.6098,8.6098,8.6098,8.6098,8.6098,8.6098,0.0,0.0,3.1651,3.3205,3.4058,3.4439,3.4231,3.6376,3.8095,0.0,4.0668,4.2881,4.4421,4.2856,4.2298,4.3801,4.3633,4.3459,4.3379,4.3418,4.3478,4.3478,4.3848,4.4258,4.4668,4.4726,4.5117,4.5898,4.5898,4.6328,4.7148,4.7975,4.8613,4.9182,5.053,5.1872,5.3162,5.4224,5.4906,5.5357,5.6301,5.6863,0.0,0.0,5.8601,5.8746,5.9202,5.9906,6.0423,5.9181,5.8995,0.0,0.0,0.0,0.0,0.0,5.9657,5.9347,5.9243,5.9264,5.9409,5.9802,5.9947,0.0,6.1011,6.1611,6.1859,6.1446,6.21,6.2555,6.2183,6.2046,6.2224,6.2617,6.2672,6.2928,6.3859,6.4377,6.4667,6.4672,6.5044,6.535,6.5412,6.5412,6.5412,6.5412,6.5412,6.5598,6.6037,6.6923,6.744,6.7482,7.2632,7.5402,7.5402,8.0313,8.3034,8.3621,8.4206,8.4788,8.5314,8.5863,8.6098,8.6098,8.6098,8.6098,8.6098,8.6098,8.6098,8.6098,8.6098,8.6098,8.6098,8.6098,8.6098,8.6098,3.306,3.3404,3.3525,3.3775,3.565,3.6652,3.5205,3.6969,3.9213,4.1249,4.3825,4.557,4.5874,4.5536,4.5299,4.5312,4.5527,4.5527,4.5195,4.5488,4.5683,4.5683,4.6074,4.6304,4.6382,4.6777,4.7051,4.7207,4.7207,4.7682,4.8522,4.9065,4.9584,5.0059,5.1879,5.283,5.3104,5.4868,5.5916,5.6371,5.6854,5.7152,5.7247,5.7836,5.8519,5.9222,5.9678,5.9968,6.0092,5.9823,5.9533,5.9409,0.0,0.0,0.0,0.0,0.0,0.0,5.8953,5.9015,0.0,0.0,0.0,0.0,6.0692,6.1437,6.1963,6.1859,6.2307,6.2679,6.2555,6.2555,6.261,6.2679,6.239,6.2472,6.3362,6.3936,6.4371,6.4667,6.4791,6.4977,6.537,6.5412,6.5412,6.5412,6.5412,6.5598,6.6037,6.6612,6.7109,6.7482,7.2632,7.5402,7.5402,8.0695,8.3621,8.4259,8.4788,8.5366,8.5915,8.6046,8.6098,8.6098,8.6098,8.6098,8.6098,8.6098,8.6098,8.6098,8.6098,8.6098,8.6098,8.6098,8.6098,8.6098,3.5235,3.5991,3.6577,3.7374,3.8789,3.9628,3.8881,4.0891,4.2982,4.4428,4.5976,4.6933,4.6933,4.7129,4.7168,4.6953,4.7129,4.7168,4.6953,4.7129,4.7168,4.6953,4.7344,4.7461,4.7266,4.7461,4.7676,4.7891,4.8181,4.875,4.9597,5.0345,5.0989,5.1676,5.2925,5.3828,5.4523,5.5736,5.6614,5.7235,5.7235,5.7309,5.7629,5.8084,5.8829,5.9699,6.0175,6.0485,6.063,6.0402,6.034,0.0,0.0,5.9843,5.9636,0.0,5.9471,5.9305,0.0,0.0,0.0,5.9595,0.0,0.0,0.0,6.121,6.1715,6.1921,6.2369,6.2679,6.2679,6.2493,6.2431,6.2672,6.2327,6.2265,6.2928,6.3238,6.3549,6.3983,6.4253,6.448,6.4729,6.4936,6.5163,6.5355,6.5412,6.5479,6.5743,6.7329,6.8441,6.8909,7.4073,7.7054,7.7648,8.1534,8.3941,8.4788,8.5103,8.5523,8.6098,8.6098,8.6098,8.6098,8.6098,8.6098,8.6098,8.6098,8.6098,8.6098,8.6098,8.6098,8.6098,8.6098,8.6098,8.6176,3.8207,3.8866,3.9674,4.1062,4.2079,4.2672,4.2734,4.4905,4.6699,4.7129,4.7558,4.7877,4.7877,4.8203,4.8418,4.834,4.8496,4.8555,4.8457,4.8535,4.8437,4.8086,4.8398,4.8503,4.8385,4.8385,4.8588,4.9013,4.9445,5.0046,5.0842,5.1718,5.2539,5.3352,5.404,5.4896,5.5937,5.6594,5.7256,5.7898,5.7608,5.7773,5.825,5.8788,5.9533,6.032,6.0775,6.1168,6.1363,6.1065,6.1189,6.1239,6.0175,5.9761,0.0,0.0,0.0,0.0,0.0,0.0,0.0,0.0,0.0,5.9781,0.0,0.0,0.0,6.1901,6.2369,6.2679,6.2555,6.2348,6.2245,6.2493,6.2265,6.2108,6.2493,6.2555,6.2804,6.3425,6.3694,6.3936,6.417,6.4604,6.4977,6.5231,6.5417,6.5666,6.6054,6.8327,7.0003,7.0884,7.5734,7.8831,7.9711,8.2479,8.4312,8.5209,8.5314,8.5654,8.6098,8.6098,8.6098,8.6098,8.6098,8.6098,8.6098,8.6098,8.6098,8.6098,8.6098,8.6098,8.6098,8.6098,8.6228,8.654,4.0904,4.1117,4.1586,4.2082,4.415,4.536,4.4167,4.5954,4.7578,4.8008,4.8437,4.8757,4.8757,4.9101,4.9219,4.8874,0.0,0.0,4.9394,4.9746,4.9941,4.993,4.9922,5.0334,5.1123,5.1142,5.1399,5.1912,5.1959,5.2268,5.2723,5.329,5.3777,5.4246,5.5627,5.6091,5.5909,5.72,5.7836,5.7939,5.8312,5.8726,5.9243,6.0113,6.0754,6.1198,6.1653,6.1859,6.1901,6.1839,6.1859,6.188,0.0,6.1384,6.0991,6.0713,0.0,0.0,0.0,0.0,0.0,0.0,6.0568,0.0,0.0,0.0,6.1921,6.1963,0.0,6.2555,6.2183,0.0,0.0,6.2162,6.2004,6.2004,6.2046,6.2046,6.2542,6.3874,6.33,6.33,6.4542,6.5039,6.5163,6.4796,6.5557,6.6779,6.8401,6.9228,7.0591,7.2748,7.6808,7.9049,7.9176,8.3079,8.5103,8.5209,8.5759,8.602,8.6098,8.6098,8.6098,8.6098,8.6098,8.6098,8.6098,8.6098,8.6098,8.6098,8.6098,8.6098,8.6098,8.6098,8.6696,8.752,4.2617,4.3565,4.4791,4.4963,4.6136,4.6945,4.6567,4.7573,4.8476,4.8906,4.9141,4.9433,4.9941,5.0371,0.0,0.0,0.0,5.1903,0.0,0.0,5.151,5.0918,5.1254,5.1502,5.1614,5.188,5.2427,5.3169,5.3215,5.3554,5.4244,5.4778,5.5273,5.5623,5.6053,5.6495,5.71,5.7941,5.8622,5.9181,5.9906,6.0464,6.0837,6.0444,6.0899,6.1756,6.2245,6.241,6.2369,6.2066,6.239,6.2679,6.1818,0.0,0.0,6.1189,0.0,0.0,0.0,0.0,0.0,0.0,0.0,0.0,6.1239,0.0,6.157,0.0,0.0,0.0,0.0,0.0,0.0,0.0,6.241,6.241,6.241,6.2203,6.2348,6.3176,6.2928,6.3045,6.3859,6.4356,6.4667,6.4729,6.5293,6.6604,6.8771,7.0403,7.2611,7.5577,7.8947,8.1216,8.2179,8.4215,8.5366,8.5759,8.5968,8.6098,8.6098,8.6098,8.6098,8.6098,8.6098,8.6098,8.6098,8.6098,8.6098,8.615,8.6773,8.6644,8.6176,8.6773,8.7341,8.7879,4.4982,4.5929,4.7148,4.7266,4.7539,4.7891,4.832,4.875,4.916,4.9492,4.9629,5.0039,5.0879,5.125,0.0,0.0,5.3133,5.3479,0.0,0.0,5.2916,5.2237,5.2216,0.0,0.0,5.2864,5.3427,5.4488,5.4428,5.4696,5.5332,5.5723,5.6166,5.6602,5.6469,5.6987,5.796,5.8539,5.9181,5.9885,6.0796,6.1466,6.188,6.1065,6.1355,6.2265,6.2555,6.2679,6.2679,6.2472,6.2866,6.3252,6.2203,6.2038,6.2141,6.1756,6.1396,6.1148,6.1582,6.157,6.1487,0.0,0.0,0.0,0.0,0.0,0.0,0.0,0.0,0.0,0.0,0.0,6.2265,0.0,0.0,6.2672,6.2534,6.2348,6.2369,6.2858,6.2866,6.3003,6.3176,6.3874,6.4371,6.4542,6.5169,6.6541,6.8771,7.128,7.4048,7.7202,8.0424,8.27,8.3914,8.477,8.5394,8.5837,8.602,8.6098,8.6098,8.6098,8.6098,8.6098,8.6098,8.6098,8.6098,8.6098,8.6098,8.6176,8.7289,8.7238,8.6696,8.7725,8.8338,8.8796,4.8626,4.8105,4.7695,4.8086,4.8183,4.834,4.8815,4.9219,4.9512,4.9484,4.9902,0.0,0.0,0.0,0.0,0.0,0.0,5.3996,5.3509,0.0,5.4175,0.0,0.0,0.0,0.0,5.4728,5.4975,5.6531,5.6055,5.5848,5.5869,5.5869,5.6166,5.6643,5.7463,5.7877,5.798,5.8891,5.9285,5.9409,6.032,6.123,6.2025,6.2452,6.2617,6.2679,6.2679,6.2679,6.2741,6.3176,6.3362,6.3362,6.3376,6.3045,6.2679,6.2672,6.2327,6.2025,6.2548,6.2327,6.1963,6.1963,6.1963,6.1963,0.0,0.0,6.3052,0.0,0.0,0.0,0.0,0.0,0.0,0.0,0.0,0.0,0.0,6.241,6.2858,6.33,6.3362,6.3176,6.2741,6.3921,6.4542,6.4128,6.5365,6.6878,6.8826,7.164,7.4289,7.6643,8.0622,8.2698,8.2775,8.4404,8.5209,8.5236,8.5811,8.6098,8.6098,8.6098,8.6098,8.6098,8.6098,8.6098,8.6098,8.6098,8.6098,8.6176,8.7289,8.7674,8.7776,8.8846,8.9905,9.0802,4.9336,4.9297,4.9258,4.9101,4.9316,4.9648,5.0078,4.9785,4.9941,0.0,0.0,0.0,0.0,5.2914,5.3249,0.0,0.0,5.5075,5.4885,5.5427,0.0,0.0,0.0,5.5405,0.0,0.0,5.6206,5.7008,5.6552,5.649,5.678,5.678,5.7008,5.7484,5.7773,5.825,5.8871,5.9492,6.0113,6.0734,6.1644,6.2183,6.2452,6.2307,6.2431,6.2679,6.2679,6.2679,6.2734,6.2866,6.2928,6.2928,6.2928,6.2617,6.2307,6.2617,6.2369,6.2087,6.2555,6.2555,6.2452,6.2452,6.2452,6.239,6.2046,6.2265,0.0,0.0,0.0,0.0,0.0,0.0,0.0,0.0,0.0,0.0,0.0,6.2162,6.2307,6.2472,6.2741,6.2866,6.2734,6.3673,6.4108,6.3687,6.4874,6.7299,7.1054,7.1449,7.4152,7.9885,8.0725,8.1751,8.3231,8.414,8.4817,8.5183,8.5392,8.5706,8.6098,8.6098,8.6098,8.6098,8.6098,8.6098,8.6098,8.6098,8.654,8.7289,8.8338,8.92,8.9855,9.0205,9.0604,9.1056,5.0234,5.043,5.0449,4.9863,5.0117,5.0488,5.0762,5.0605,5.0781,0.0,5.1875,0.0,5.4252,0.0,5.427,0.0,5.6021,5.6183,5.6345,5.6772,0.0,5.6965,5.666,0.0,0.0,0.0,5.6747,5.7185,5.678,5.6718,5.6987,5.6987,5.7235,5.7691,5.8022,5.8581,5.9326,5.9802,6.0423,6.1189,6.2079,6.2672,6.2941,6.2617,6.2804,6.3176,6.3176,6.3107,6.2928,6.2928,6.2858,6.2679,6.2679,6.2493,6.2327,6.2617,6.2369,6.21,6.2369,6.2452,6.2452,6.2452,6.2555,6.2617,6.2327,6.239,6.239,0.0,0.0,0.0,0.0,0.0,0.0,0.0,0.0,0.0,0.0,6.1984,6.1984,6.1984,6.241,6.2679,6.2679,6.3362,6.3811,6.3687,6.4832,6.6926,7.0176,7.1556,7.4426,7.9275,8.0472,8.175,8.3171,8.3746,8.4216,8.4582,8.5,8.5392,8.5784,8.5994,8.6098,8.6098,8.6098,8.6098,8.615,8.6488,8.7083,8.7828,8.9301,9.0305,9.0951,9.1347,9.1445,9.16,5.1358,5.1436,5.125,5.0508,5.0644,5.0898,5.0957,5.1601,5.1973,0.0,5.2315,5.3336,5.4759,5.4551,5.4852,5.6303,5.6843,0.0,5.7812,5.7853,0.0,0.0,5.7535,5.6985,5.7909,0.0,0.0,0.0,5.6863,5.6684,5.6643,5.6664,5.6863,5.7339,5.8208,5.8871,5.9367,5.9802,6.0257,6.0754,6.1686,6.2542,6.3376,6.3362,6.3673,6.4122,6.4122,6.3811,6.3362,6.3362,6.3052,6.2679,6.2679,6.2679,6.2617,6.2679,6.2369,6.1984,6.2004,6.2004,6.2004,6.2004,6.2369,6.2679,6.2679,6.3066,6.3252,6.2796,6.3052,0.0,0.0,0.0,0.0,0.0,0.0,0.0,0.0,6.1963,6.1984,6.2004,6.2431,6.2679,6.2679,6.3114,6.3549,6.3998,6.516,6.6127,6.6699,7.1935,7.5086,7.54,7.9989,8.2522,8.2572,8.3171,8.3458,8.3484,8.4608,8.5157,8.5209,8.5811,8.6098,8.6098,8.6098,8.615,8.6228,8.7289,8.7776,8.8083,9.0105,9.0951,9.11,9.2133,9.2474,9.2474,5.2363,5.2383,5.2519,5.2969,5.2324,5.209,5.3047,0.0,0.0,0.0,5.4082,5.4493,5.6335,5.6081,5.6395,5.7863,5.7771,0.0,0.0,0.0,0.0,5.8788,5.8634,5.8531,5.8436,5.8159,0.0,5.7732,5.798,5.7732,5.707,5.7401,5.7815,5.827,5.8498,5.9057,5.9823,5.9947,6.0257,6.0796,6.2017,6.2679,6.2941,6.3238,6.3859,6.4501,6.419,6.3811,6.3362,6.3362,6.2866,6.2265,6.261,6.2224,6.181,6.2493,6.2369,6.2046,6.2431,6.2493,6.2493,6.2493,6.2617,6.2679,6.2679,6.2796,6.2858,6.2734,6.2804,6.2858,6.2734,0.0,0.0,0.0,0.0,0.0,0.0,0.0,6.2162,6.2472,6.2617,6.2679,6.2679,6.3114,6.33,6.3052,6.5097,6.7539,7.0276,7.2554,7.5677,7.9934,8.0497,8.1311,8.2572,8.2779,8.3066,8.3484,8.4216,8.4791,8.5209,8.5811,8.6098,8.6098,8.6098,8.654,8.7341,8.7571,8.8643,9.0155,9.0703,9.1396,9.2133,9.2377,9.2474,9.2474,5.2715,5.3027,5.3437,5.3894,5.3776,5.3751,5.4302,5.3726,0.0,5.5302,5.5234,0.0,5.7155,5.7105,5.7413,5.8478,5.8294,0.0,5.9181,0.0,0.0,5.9512,5.9367,5.9181,5.8912,5.8705,0.0,5.8229,0.0,5.8146,5.7836,5.7898,5.8374,5.9202,5.9202,5.9719,6.0589,6.0589,6.0858,6.1334,6.21,6.2617,0.0,6.3314,6.3818,6.4418,6.4184,6.3936,6.3694,6.3694,6.3052,6.239,6.2866,6.2493,6.2038,6.2555,6.2369,6.2025,6.2327,6.239,6.239,6.239,6.2555,6.2679,6.2679,6.2879,6.299,6.299,6.299,6.299,6.299,6.2858,0.0,0.0,0.0,0.0,0.0,0.0,0.0,0.0,6.2866,6.3107,6.3314,6.3176,6.3168,6.3389,6.5007,6.752,7.0947,7.2834,7.582,8.0201,8.0642,8.1433,8.2572,8.2572,8.2805,8.3118,8.3693,8.4268,8.4843,8.5419,8.5837,8.6098,8.6098,8.6748,8.7725,8.8185,8.9402,9.0951,9.1396,9.1986,9.2474,9.2474,9.2474,9.2474,5.3047,5.3672,5.4167,5.4226,5.5014,5.5472,5.5186,5.5006,5.51,5.5726,5.6095,5.6701,5.7736,5.7839,5.8151,5.8736,0.0,5.9057,5.9926,5.9616,5.9719,6.0464,5.9781,5.9367,5.9305,5.8974,0.0,0.0,5.8353,5.8332,5.8601,5.825,5.8746,5.9906,5.9968,6.0464,6.1198,6.126,6.1487,6.1818,6.1921,6.2493,6.3252,6.3376,6.3673,6.4122,6.406,6.406,6.4122,6.4122,6.3563,6.2928,6.3376,6.3176,6.2866,6.2804,6.2493,6.2203,6.2087,6.2066,6.2141,6.2203,6.2493,6.2804,6.2866,6.3176,6.3501,6.3501,6.3425,6.3362,6.3362,6.299,6.2679,0.0,0.0,0.0,0.0,0.0,0.0,0.0,0.0,0.0,6.4108,6.3314,6.315,6.4237,6.5034,6.6916,7.0134,7.3077,7.5883,7.8512,8.0675,8.2047,8.2572,8.2572,8.2624,8.2752,8.3249,8.3746,8.4191,8.4817,8.5392,8.5967,8.6045,8.6718,8.7874,8.8941,9.01,9.1199,9.2133,9.2474,9.2474,9.2474,9.2474,9.2474,5.4844,5.498,5.5195,5.5494,5.5789,5.6262,5.703,5.6457,5.633,5.7258,5.7483,5.7913,5.8881,5.8686,5.8809,5.9678,5.9409,0.0,0.0,0.0,0.0,5.9554,5.9761,5.9699,5.9305,5.9595,5.9574,0.0,5.9471,5.9285,5.8622,5.8912,5.9181,5.9429,5.9823,6.0299,6.0816,6.1136,6.1189,6.0982,6.1727,6.2087,6.2348,6.3114,6.3673,6.406,6.3687,6.3756,6.4122,6.4122,6.3998,6.3874,6.3921,6.3936,6.3811,6.3362,6.3252,6.3052,6.2679,6.2555,6.2679,6.3052,6.3252,6.3362,6.3756,6.3936,6.3998,6.3998,6.3687,6.3362,6.3362,6.299,6.2679,0.0,0.0,0.0,0.0,0.0,0.0,0.0,0.0,6.3694,0.0,6.3425,6.315,6.4237,6.5391,6.7463,7.0702,7.3976,7.6733,7.9003,8.0877,8.2047,8.2572,8.2572,8.2857,8.3327,8.3432,8.3537,8.3641,8.4216,8.4791,8.5366,8.5764,8.6832,8.8368,8.9415,9.0804,9.223,9.2426,9.2474,9.2474,9.2474,9.2474,9.2474,5.5586,5.5625,5.5756,5.6268,5.6655,5.709,5.7641,5.7789,5.7965,5.8414,5.8475,5.8763,5.9475,5.9439,5.9512,5.9947,5.9781,5.9761,5.9988,5.9988,5.9885,5.9678,5.9636,5.9636,5.9657,5.9636,5.9636,5.9657,5.9885,5.9761,5.9326,5.9554,5.9906,6.0382,6.1085,6.1375,6.1396,6.1549,6.1529,6.1417,6.1797,6.2162,6.2452,6.3114,6.3563,6.3749,6.3735,6.419,6.4687,6.4232,6.4122,6.4128,6.4371,6.4418,6.4356,6.4128,6.4232,6.4377,6.417,6.4108,6.417,6.4377,6.4418,6.448,6.4729,6.4936,6.506,6.4811,6.4604,6.4232,6.3563,6.3252,6.2866,6.2431,0.0,0.0,0.0,0.0,0.0,0.0,0.0,0.0,0.0,0.0,6.5001,6.523,6.6093,6.8203,7.1683,7.3451,7.5855,7.9124,8.0606,8.1602,8.2177,8.2491,8.2779,8.304,8.304,8.3197,8.351,8.4085,8.4661,8.5235,8.639,8.7617,8.8995,9.0608,9.1783,9.2474,9.2474,9.2474,9.2474,9.2474,9.2474,9.2474,5.6102,5.6233,5.6392,5.7025,5.7551,5.7953,5.8076,5.886,5.9377,5.9154,5.9224,5.9429,5.9797,5.985,5.9885,5.9988,5.9988,6.003,6.0133,6.0216,6.0278,6.0278,5.9843,5.9761,6.0133,5.9678,5.9636,5.9988,5.9988,5.9947,5.9843,6.005,6.063,6.1466,6.2224,6.2307,6.1839,6.1942,6.1921,6.1839,6.1942,6.2348,6.2866,6.3362,6.3687,6.3859,6.4232,6.4936,6.5598,6.4806,6.4619,6.4744,6.5039,6.5163,6.5106,6.5039,6.5288,6.5536,6.5432,6.5412,6.5432,6.5536,6.5557,6.5541,6.5681,6.5991,6.6116,6.566,6.5412,6.4874,6.3611,6.3362,6.3176,6.2555,0.0,0.0,0.0,0.0,0.0,0.0,0.0,0.0,6.5524,6.6668,6.7197,6.666,6.7002,6.8794,7.2348,7.2912,7.4926,7.8867,8.0217,8.121,8.1942,8.2413,8.265,8.2805,8.265,8.2935,8.3484,8.3955,8.4632,8.5622,8.7066,8.8472,8.9913,9.1594,9.2362,9.2474,9.2474,9.2474,9.2474,9.2474,9.2474,9.2474,5.7064,5.7249,5.7482,5.8065,5.8593,5.8941,5.8953,5.9519,5.9781,5.9357,5.9667,5.9957,5.9998,5.9584,5.9533,5.9947,5.9988,6.0175,6.0589,6.1003,6.1156,6.1156,6.0796,6.0568,6.0609,6.0154,5.9947,5.9988,5.9988,5.9781,5.9388,6.0216,6.1106,6.1921,6.2004,6.1777,6.1384,6.1797,6.1735,6.1384,6.1818,6.2555,6.3362,6.3874,6.4501,6.5225,6.5288,6.5867,6.6612,6.6095,6.6178,6.655,6.6612,6.6612,6.655,6.6095,6.5991,6.5913,6.5536,6.5412,6.5479,6.5929,6.6053,6.6157,6.655,6.6674,6.6612,6.6116,6.537,6.448,6.3549,6.3362,6.3487,6.3874,6.3252,0.0,0.0,0.0,0.0,0.0,0.0,0.0,0.0,6.8367,6.8815,6.8346,6.7992,6.9024,7.181,7.3404,7.5529,7.8319,8.0008,8.1419,8.2493,8.2546,8.2883,8.3406,8.2883,8.2935,8.3484,8.3537,8.4697,8.6667,8.7293,8.9009,9.1418,9.1611,9.1997,9.2474,9.2474,9.2474,9.2474,9.2474,9.2474,9.2474,5.7873,5.7966,5.8125,5.8706,5.897,5.9335,5.9971,6.0244,6.0444,6.0506,6.0464,6.0506,6.0775,6.0577,6.0609,6.0775,6.0796,6.0878,6.1065,6.1198,6.1301,6.1301,6.1115,6.0961,6.0692,6.0506,6.0257,5.9988,6.0527,6.0568,6.0133,6.0775,6.1127,6.1251,6.1789,6.1715,6.1322,6.1777,6.188,6.1777,6.2555,6.3238,6.388,6.4604,6.5288,6.5867,6.6157,6.6674,6.7171,6.6985,6.6861,6.6799,6.6799,6.6985,6.7171,6.6985,6.7109,6.7295,6.7109,6.7047,6.7109,6.7295,6.7358,6.742,6.7606,6.742,6.7109,6.6612,6.5557,6.4604,6.4232,6.417,6.3983,6.3376,6.3176,6.299,0.0,0.0,0.0,0.0,0.0,0.0,0.0,0.0,6.923,6.87,6.8775,7.0046,7.2716,7.3527,7.5429,7.8736,8.0165,8.1263,8.2099,8.2465,8.2752,8.2962,8.2752,8.2752,8.2988,8.3955,8.5789,8.821,8.8358,8.9439,9.1069,9.1435,9.1764,9.1969,9.2334,9.2474,9.2474,9.2474,9.2474,9.2474,5.8495,5.8548,5.8747,5.947,5.9543,5.9866,6.0743,6.0878,6.1044,6.1446,6.1272,6.1148,6.128,6.1301,6.1301,6.1301,6.1425,6.1487,6.1487,6.1611,6.1694,6.1694,6.157,6.1342,6.1085,6.0816,6.0527,6.0195,6.0692,6.0713,6.0278,6.0734,6.1003,6.1106,6.1748,6.1797,6.1529,6.2038,6.2224,6.2307,6.3252,6.3942,6.4542,6.5308,6.5991,6.655,6.6861,6.7295,6.7689,6.7689,6.7482,6.7192,6.7192,6.742,6.7689,6.7689,6.7937,6.8186,6.8186,6.8186,6.8186,6.8186,6.8186,6.8186,6.8186,6.7872,6.7316,6.6737,6.5665,6.4858,6.4729,6.4729,6.4418,6.3425,6.3618,6.3685,6.3004,6.378,0.0,0.0,0.0,0.0,6.7251,6.862,6.9317,6.8835,6.9554,7.0992,7.3378,7.3699,7.5454,7.9097,8.0344,8.1207,8.1759,8.2334,8.2572,8.2572,8.2572,8.2877,8.3384,8.5334,8.7251,8.9106,8.9446,9.0005,9.0732,9.1154,9.1322,9.135,9.18,9.2081,9.2221,9.2221,9.2334,9.2474,5.897,5.9075,5.9429,6.0483,6.0671,6.0816,6.1218,6.128,6.1446,6.1921,6.1963,6.1797,6.1342,6.1301,6.1301,6.1301,6.1715,6.1984,6.1984,6.2431,6.2679,6.2679,6.2265,6.1963,6.1963,6.1148,6.0671,6.0671,6.0216,5.9781,5.9326,5.9781,6.0734,6.1963,6.1984,6.1984,6.2004,6.2493,6.2679,6.2741,6.3694,6.4604,6.5417,6.5929,6.6674,6.7482,6.7482,6.7792,6.8186,6.8186,6.8186,6.8165,6.8165,6.8186,6.8186,6.8186,6.8186,6.8186,6.8186,6.8186,6.8186,6.8186,6.8186,6.8186,6.8186,6.7872,6.7233,6.6302,6.5743,6.5231,6.4791,6.4729,6.4672,6.4672,6.4867,6.5068,6.5068,6.565,0.0,0.0,0.0,0.0,6.939,6.9472,6.9317,6.8835,7.0282,7.1879,7.3427,7.4068,7.5855,7.9124,8.0344,8.1207,8.1759,8.2334,8.2572,8.2572,8.2572,8.346,8.5086,8.7801,8.9058,8.9155,9.0197,9.0704,9.0704,9.0704,9.0704,9.0704,9.0732,9.1069,9.1623,9.1623,9.1969,9.2474,6.0127,6.0427,6.0695,6.1053,6.1127,6.1239,6.1694,6.1756,6.1976,6.241,6.2472,6.241,6.2265,6.2245,6.2245,6.2245,6.239,6.2472,6.2472,6.2617,6.2679,6.2679,6.2555,6.2348,6.1984,6.1748,6.1458,6.1127,6.1313,6.1313,6.1168,6.1624,6.1727,6.1529,6.1839,6.2203,6.2493,6.2617,6.3238,6.4108,6.4729,6.5536,6.6426,6.6861,6.742,6.7996,6.7996,6.8061,6.8186,6.8186,6.8186,6.8186,6.8186,6.8186,6.8186,6.8186,6.8186,6.8186,6.8186,6.8186,6.8186,6.8186,6.8186,6.8123,6.7792,6.7109,6.6364,6.5727,6.5479,6.535,6.5225,6.5184,6.5044,6.4734,6.5182,6.545,6.5132,6.6372,6.7264,6.735,6.8166,6.8786,6.899,6.9042,6.9248,6.9799,7.0293,7.1638,7.3992,7.5335,7.719,7.9698,8.0478,8.1207,8.1759,8.2334,8.2572,8.2572,8.2572,8.3598,8.5531,8.7156,8.8246,8.8911,8.927,8.9411,8.9468,8.9842,9.0311,9.076,9.1126,9.1659,9.2137,9.1764,9.1736,9.1848,6.0941,6.1148,6.1342,6.1508,6.1549,6.1694,6.2203,6.2286,6.2369,6.2672,6.2679,6.2679,6.2679,6.2679,6.2679,6.2679,6.2679,6.2679,6.2679,6.2679,6.2679,6.2679,6.2679,6.2555,6.2286,6.2066,6.1839,6.1549,6.1673,6.1715,6.1735,6.2224,6.2224,6.1872,6.2327,6.2679,6.2983,6.3114,6.3797,6.4791,6.5412,6.624,6.7109,6.7565,6.7937,6.8186,6.8186,6.8186,6.8186,6.8186,6.8186,6.8186,6.8186,6.8186,6.8186,6.8186,6.8186,6.8186,6.8186,6.8186,6.8186,6.8186,6.8061,6.7751,6.7109,6.655,6.5991,6.5479,6.5412,6.5412,6.5412,6.5412,6.5401,6.5412,6.6139,6.6618,6.6462,6.7781,6.8634,6.834,6.8946,6.9294,6.9088,6.9065,6.9271,6.9707,7.0305,7.1741,7.4263,7.551,7.7347,7.9911,8.0583,8.1207,8.1759,8.2334,8.2572,8.2622,8.363,8.5104,8.703,8.807,8.8909,8.9524,8.9524,8.9524,8.9552,8.9945,9.0151,9.0367,9.0732,9.1126,9.1407,9.1013,9.1041,9.1182,6.1342,6.1363,6.1508,6.1942,6.2025,6.2224,6.2617,6.2679,6.2679,6.2679,6.2679,6.2679,6.2679,6.2679,6.2679,6.2679,6.2679,6.2679,6.2679,6.2679,6.2679,6.2679,6.2679,6.2679,6.2679,6.2286,6.2046,6.2087,6.1611,6.1404,6.1446,6.1839,6.2286,6.2734,6.319,6.3362,6.3501,6.3921,6.4418,6.492,6.5846,6.6737,6.7606,6.8059,6.8186,6.8186,6.8186,6.8186,6.8186,6.8186,6.8186,6.8186,6.8186,6.8186,6.8186,6.8186,6.8186,6.8186,6.8186,6.8186,6.8186,6.8183,6.7751,6.7171,6.6302,6.6037,6.5929,6.5495,6.5412,6.5412,6.5412,6.549,6.5758,6.6444,6.7551,6.8416,6.8655,6.9586,7.0304,7.0259,7.0259,7.0075,6.957,6.9524,6.9363,6.8996,7.0344,7.2162,7.4259,7.4926,7.6658,7.9889,8.0609,8.121,8.1759,8.2334,8.2648,8.28,8.5542,8.7659,8.9155,9.0253,9.076,9.0704,9.0704,9.0676,9.0648,9.0648,9.0283,8.9701,8.9701,8.9729,8.9758,8.9701,9.0038,9.0564,6.1818,6.2141,6.239,6.2493,6.2534,6.2555,6.2679,6.2679,6.2679,6.2679,6.2679,6.2679,6.2679,6.2679,6.2679,6.2679,6.2679,6.2679,6.2679,6.2679,6.2679,6.2679,6.2679,6.2679,6.2679,6.261,6.2679,6.3052,6.2617,6.2555,6.2866,6.2672,6.261,6.2679,6.2804,6.3238,6.3942,6.4377,6.5225,6.6364,6.6923,6.7502,6.8041,6.8183,6.8186,6.8186,6.8186,6.8186,6.8186,6.8186,6.8186,6.8186,6.8186,6.8186,6.8186,6.8186,6.8186,6.8186,6.8186,6.8186,6.8103,6.7751,6.7047,6.6364,6.6157,6.5789,6.5536,6.5432,6.5412,6.5412,6.5412,6.6152,6.6847,6.7002,6.8446,6.9456,6.9178,6.9791,7.0167,6.9753,6.9707,6.9662,6.9524,6.9524,6.9799,7.0488,7.0881,7.2015,7.4136,7.5556,7.746,7.9915,8.1027,8.1678,8.1785,8.2334,8.3258,8.4529,8.7703,8.9187,8.9155,9.072,9.1126,9.0704,9.0704,9.0423,8.9926,8.9926,8.9842,8.9701,8.9701,8.9982,9.0423,8.987,8.9505,8.9187,6.2327,6.2534,6.2679,6.2679,6.2679,6.2679,6.2679,6.2679,6.2679,6.2679,6.2679,6.2679,6.2679,6.2679,6.2679,6.2679,6.2679,6.2679,6.2679,6.2679,6.2679,6.2679,6.2679,6.2804,6.299,6.2804,6.2804,6.3052,6.2804,6.2928,6.3362,6.3376,6.3425,6.3611,6.4046,6.4418,6.4729,6.5412,6.6116,6.6861,6.7295,6.781,6.8186,6.8186,6.8186,6.8186,6.8186,6.8186,6.8186,6.8186,6.8186,6.8186,6.8186,6.8186,6.8186,6.8186,6.8186,6.8186,6.8186,6.8041,6.7748,6.7047,6.6488,6.6053,6.5846,6.5598,6.5412,6.5412,6.5412,6.5583,6.6131,6.6755,6.7567,6.8646,6.9694,7.0405,7.043,7.078,7.081,7.0282,7.0236,7.0236,7.0236,7.0236,7.0465,7.1093,7.1115,7.19,7.3797,7.501,7.681,7.9535,8.1024,8.1916,8.2151,8.2914,8.4131,8.5807,8.81,8.9425,8.986,9.0773,9.1013,9.0704,9.0704,9.0507,9.017,9.017,8.9954,8.9701,8.9701,8.9729,8.9805,8.9392,8.9055,8.8765,6.2679,6.2679,6.2679,6.2679,6.2679,6.2679,6.2679,6.2679,6.2679,6.2679,6.2679,6.2679,6.2679,6.2679,6.2755,6.2804,6.2804,6.2804,6.2804,6.2804,6.2804,6.2804,6.2804,6.2928,6.3314,6.2983,6.2858,6.2921,6.2921,6.3114,6.3625,6.3921,6.4309,6.4667,6.5432,6.566,6.5474,6.6343,6.6799,6.6923,6.742,6.7872,6.8186,6.8186,6.8186,6.8186,6.8186,6.8186,6.8186,6.8186,6.8186,6.8186,6.8186,6.8186,6.8186,6.8186,6.8123,6.8103,6.8165,6.7854,6.7295,6.6488,6.624,6.6116,6.5722,6.5557,6.5536,6.5536,6.5474,6.5775,6.696,6.7377,6.8263,7.0503,7.1033,7.127,7.185,7.1843,7.1613,7.1184,7.1115,7.1115,7.1115,7.1115,7.1161,7.123,7.123,7.184,7.3263,7.4034,7.5698,7.8489,8.049,8.1876,8.2572,8.3895,8.5247,8.6615,8.8023,8.9394,9.0704,9.0788,9.0788,9.0704,9.0704,9.0648,9.0564,9.0564,9.017,8.9561,8.9561,8.9224,8.8775,8.8775,8.8765,8.8681,6.2617,6.2679,6.2679,6.2679,6.2679,6.2679,6.2679,6.2679,6.2679,6.2679,6.2679,6.2679,6.2679,6.2679,6.2866,6.3238,6.3314,6.3314,6.3314,6.3314,6.3314,6.3314,6.3314,6.3114,6.2804,6.3114,6.3501,6.3859,6.3859,6.4122,6.448,6.4246,6.4108,6.419,6.4371,6.4806,6.5417,6.5991,6.6674,6.742,6.7875,6.8123,6.8186,6.8186,6.8186,6.8186,6.8186,6.8186,6.8186,6.8186,6.8186,6.8186,6.8186,6.8186,6.8186,6.8186,6.7916,6.7689,6.8121,6.7854,6.7499,6.7295,6.6985,6.6674,6.6612,6.6302,6.5991,6.5991,6.5681,6.5775,6.696,6.803,6.9302,7.1094,7.1898,7.2337,7.2463,7.2072,7.1613,7.1184,7.1115,7.1115,7.1115,7.1115,7.1246,7.1636,7.1682,7.1974,7.2705,7.4152,7.519,7.5721,7.8731,8.1057,8.2572,8.501,8.6387,8.6615,8.9654,9.0925,9.0732,9.121,9.1182,9.0704,9.0704,9.0395,8.9842,8.9842,8.9477,8.8915,8.8915,8.8859,8.8775,8.8775,8.8484,8.7978,6.2617,6.2679,6.2679,6.2679,6.2679,6.2679,6.2679,6.2679,6.2679,6.2679,6.2941,6.3003,6.2755,6.2928,6.3052,6.3045,6.299,6.3252,6.3749,6.3563,6.3362,6.3362,6.3362,6.3438,6.3425,6.3859,6.4108,6.4122,6.4122,6.4294,6.4729,6.4542,6.4687,6.5184,6.5432,6.5929,6.655,6.7047,6.7482,6.7875,6.8103,6.8186,6.8186,6.8186,6.8186,6.8186,6.8186,6.8186,6.8186,6.8186,6.8186,6.8186,6.8186,6.8186,6.8186,6.8186,6.8041,6.7792,6.7502,6.7482,6.742,6.7171,6.6985,6.6799,6.6799,6.6612,6.6488,6.6488,6.6859,6.7489,6.8391,6.9509,7.0693,7.1878,7.2365,7.2578,7.2578,7.2371,7.2141,7.1912,7.1889,7.1889,7.1889,7.1889,7.1981,7.221,7.221,7.2325,7.2578,7.3315,7.4179,7.5067,7.8337,8.0906,8.2572,8.4943,8.6127,8.6154,8.8854,8.9945,8.9692,8.9973,8.9945,8.9692,8.9692,8.9524,8.9196,8.9196,8.9027,8.8775,8.8775,8.8775,8.8793,8.8456,8.8147,8.781,6.2617,6.2679,6.2679,6.2679,6.2679,6.2679,6.2679,6.2679,6.2679,6.2679,6.299,6.3128,6.2741,6.299,6.3176,6.3066,6.3045,6.3362,6.417,6.388,6.3673,6.3673,6.3625,6.3749,6.4122,6.448,6.4542,6.4232,6.4371,6.4542,6.4858,6.4858,6.5231,6.5971,6.6426,6.6923,6.7358,6.7872,6.8121,6.8186,6.8186,6.8248,6.831,6.8227,6.8248,6.831,6.8227,6.8186,6.8186,6.8186,6.8186,6.8186,6.8186,6.8186,6.8186,6.8186,6.8186,6.8041,6.7295,6.7378,6.7565,6.7233,6.7109,6.7109,6.7109,6.7047,6.6985,6.6985,6.7887,6.8965,6.9738,7.0869,7.1997,7.2987,7.2954,7.2807,7.2945,7.2738,7.2578,7.2578,7.2578,7.2578,7.2578,7.2578,7.2578,7.2578,7.2578,7.2578,7.2578,7.2578,7.3392,7.5067,7.8337,8.0753,8.1993,8.4452,8.5671,8.572,8.7805,8.8775,8.8775,8.8775,8.8775,8.8775,8.8775,8.8775,8.8775,8.8775,8.8775,8.8821,8.8681,8.8597,8.854,8.7922,8.7697,8.7613,6.2617,6.2679,6.2679,6.2679,6.2679,6.2679,6.2679,6.2679,6.2679,6.2679,6.2755,6.2741,6.2679,6.2755,6.3107,6.3936,6.3998,6.417,6.461,6.461,6.4604,6.4604,6.4232,6.406,6.4122,6.448,6.4672,6.4667,6.5101,6.5293,6.535,6.535,6.5412,6.5474,6.5913,6.6426,6.6861,6.7358,6.7792,6.8186,6.8186,6.8413,6.8724,6.8351,6.8434,6.8724,6.831,6.8186,6.8186,6.8186,6.8186,6.8186,6.8186,6.8186,6.8186,6.8186,6.8186,6.8165,6.8123,6.8123,6.8123,6.8103,6.8121,6.8121,6.8121,6.7751,6.744,6.744,6.8139,6.9029,7.0152,7.1366,7.2774,7.4351,7.3886,7.345,7.3909,7.3174,7.2578,7.2578,7.2578,7.2578,7.2578,7.2578,7.2578,7.2578,7.2578,7.2578,7.2578,7.2578,7.3392,7.5067,7.8337,8.0166,8.0269,8.3884,8.5671,8.572,8.7805,8.8775,8.8775,8.8775,8.8775,8.8775,8.8775,8.8775,8.8775,8.8775,8.8775,8.8765,8.8203,8.7978,8.7894,8.7276,8.7051,8.6967,6.2617,6.2679,6.2679,6.2679,6.2679,6.2679,6.2679,6.2928,6.3114,6.3114,6.3611,6.3859,6.3625,6.3797,6.3983,6.4122,6.4122,6.4253,6.4651,6.4729,6.4729,6.4729,6.4853,6.4915,6.4915,6.506,6.5106,6.5106,6.5293,6.5412,6.5412,6.5412,6.5557,6.5867,6.6285,6.6944,6.7689,6.8105,6.86,6.8993,6.8993,6.9117,6.9179,6.8744,6.8664,6.8726,6.8351,6.8186,6.8186,6.8186,6.8186,6.8186,6.8186,6.8186,6.8186,6.8186,6.8186,6.8186,6.8186,6.8186,6.8186,6.8186,6.8186,6.8186,6.8186,6.8061,6.7916,6.7916,6.942,7.0734,7.0811,7.2478,7.3979,7.4303,7.3749,7.3519,7.4024,7.3243,7.2715,7.3014,7.2784,7.2578,7.2578,7.2578,7.2578,7.2578,7.2578,7.2578,7.2578,7.2578,7.2904,7.3531,7.5788,7.7503,7.852,8.2289,8.4149,8.4198,8.7323,8.8775,8.8775,8.8775,8.8775,8.8775,8.8775,8.8775,8.8793,8.8428,8.8259,8.8203,8.7585,8.7332,8.7248,8.663,8.6405,8.6292,6.2617,6.2804,6.2941,6.2941,6.3066,6.3114,6.3114,6.3438,6.3625,6.3625,6.4128,6.4418,6.4108,6.4356,6.4439,6.4294,6.4309,6.448,6.4915,6.4915,6.4915,6.4915,6.5225,6.5412,6.5412,6.5412,6.5412,6.5412,6.5412,6.5412,6.5412,6.5557,6.5805,6.6099,6.6923,6.7606,6.8227,6.8786,6.9098,6.9283,6.9283,6.9283,6.9241,6.8786,6.8664,6.8726,6.8351,6.8186,6.8186,6.8186,6.8186,6.8186,6.8186,6.8186,6.8186,6.8186,6.8186,6.8186,6.8186,6.8186,6.8186,6.8186,6.8186,6.8186,6.8186,6.8186,6.8284,6.8679,7.0448,7.1915,7.1911,7.3619,7.4965,7.4621,7.4116,7.3886,7.4093,7.3381,7.2876,7.3083,7.2807,7.2578,7.2578,7.2578,7.2578,7.2578,7.2578,7.2509,7.2348,7.2325,7.2279,7.2118,7.3257,7.4408,7.5524,8.0319,8.2738,8.2762,8.6532,8.8352,8.8352,8.8681,8.8775,8.8775,8.8775,8.8709,8.8512,8.8091,8.781,8.7557,8.6939,8.6686,8.6602,8.5983,8.573,8.5674,6.2679,6.3052,6.3438,6.3438,6.3811,6.4122,6.4122,6.4122,6.4122,6.4122,6.4122,6.4122,6.4122,6.4122,6.4253,6.4667,6.4729,6.4915,6.5355,6.5412,6.5412,6.5412,6.5412,6.5412,6.5412,6.5412,6.5412,6.5412,6.5412,6.5412,6.5412,6.5851,6.6116,6.6178,6.7565,6.8186,6.8248,6.9117,6.9241,6.8788,6.8788,6.8788,6.8786,6.8351,6.8475,6.8726,6.8351,6.8186,6.8186,6.8186,6.8186,6.8186,6.8186,6.8186,6.8186,6.8186,6.8186,6.8186,6.8186,6.8186,6.8186,6.8186,6.8186,6.8186,6.8186,6.8186,6.8542,6.9721,7.1034,7.2293,7.3448,7.4766,7.5585,7.5585,7.5126,7.4611,7.4185,7.3657,7.3152,7.2646,7.2578,7.2578,7.2578,7.2578,7.2578,7.2578,7.2578,7.2348,7.182,7.1774,7.1567,7.1085,7.1115,7.1115,7.1115,7.8129,8.1663,8.1713,8.5472,8.7283,8.7359,8.8352,8.8775,8.8821,8.8821,8.8456,8.7894,8.7894,8.7529,8.6911,8.6264,8.5966,8.591,8.5337,8.5112,8.5112,6.3176,6.3549,6.3859,6.3859,6.3983,6.4122,6.4122,6.4371,6.4542,6.4542,6.4811,6.4998,6.4998,6.4998,6.506,6.5169,6.5169,6.5231,6.5412,6.5412,6.5412,6.5412,6.5412,6.5412,6.5412,6.5412,6.5412,6.5412,6.5412,6.5412,6.5412,6.5851,6.6116,6.6178,6.7565,6.8351,6.8662,6.9241,6.9614,6.9738,6.9428,6.9303,6.9241,6.8786,6.8724,6.8726,6.8351,6.8186,6.8186,6.8186,6.8186,6.8186,6.8186,6.8186,6.8186,6.8186,6.8186,6.8186,6.8186,6.8186,6.8186,6.8186,6.8186,6.8186,6.8186,6.8186,6.8542,6.9721,7.1034,7.2293,7.3448,7.4766,7.5585,7.5585,7.5126,7.4759,7.4621,7.3886,7.3243,7.3106,7.2807,7.2578,7.2578,7.2578,7.2578,7.2578,7.2233,7.182,7.1315,7.1292,7.1223,7.1085,7.1115,7.1115,7.1115,7.5044,7.7833,7.9405,8.3189,8.5786,8.7359,8.8352,8.8597,8.8175,8.8175,8.7838,8.722,8.677,8.6489,8.6264,8.5618,8.5393,8.5365,8.5169,8.5112,8.5112,6.3687,6.406,6.4371,6.4371,6.448,6.4604,6.4604,6.4811,6.4977,6.4977,6.5225,6.5412,6.5412,6.5412,6.5412,6.5412,6.5412,6.5495,6.566,6.5479,6.5412,6.5412,6.5412,6.5412,6.5412,6.5412,6.5412,6.5412,6.5412,6.5412,6.5412,6.5851,6.6116,6.6178,6.7565,6.8369,6.86,6.9241,6.9552,6.9614,6.9345,6.9117,6.8931,6.8682,6.854,6.8537,6.8289,6.8186,6.8186,6.8186,6.8186,6.8186,6.8186,6.8186,6.8186,6.8186,6.8186,6.8186,6.8186,6.8186,6.8186,6.8186,6.8186,6.8186,6.8186,6.856,6.925,7.0486,7.1734,7.2965,7.4229,7.5074,7.5585,7.5585,7.5333,7.5057,7.4828,7.4116,7.3611,7.3611,7.3014,7.2738,7.3152,7.2807,7.2509,7.2279,7.1797,7.1292,7.081,7.0764,7.0672,7.0465,7.0465,7.0465,7.0465,7.2082,7.4412,7.7479,8.1233,8.4026,8.5997,8.7439,8.7894,8.7529,8.7276,8.6826,8.6208,8.5815,8.5506,8.5281,8.5169,8.5112,8.5112,8.5112,8.5112,8.5112,6.4128,6.448,6.4791,6.4791,6.5106,6.5412,6.5412,6.5412,6.5412,6.5412,6.5412,6.5412,6.5412,6.5412,6.5432,6.5474,6.5474,6.5603,6.6033,6.566,6.5412,6.5412,6.5412,6.5412,6.5412,6.5412,6.5412,6.5412,6.5412,6.5412,6.5412,6.5851,6.6116,6.624,6.7624,6.8245,6.831,6.9117,6.916,6.8788,6.8786,6.8537,6.8186,6.8186,6.8186,6.8186,6.8186,6.8186,6.8186,6.8186,6.8186,6.8186,6.8186,6.8186,6.8186,6.8186,6.8186,6.8186,6.8186,6.8186,6.8186,6.8186,6.8186,6.8186,6.8186,6.9034,7.0213,7.1618,7.2778,7.3943,7.5358,7.5585,7.5585,7.5585,7.5585,7.5425,7.4897,7.446,7.4162,7.4116,7.3312,7.3083,7.3955,7.3106,7.2302,7.1774,7.1269,7.0787,7.0282,7.0259,7.0029,6.9547,6.9524,6.9524,6.9524,6.9524,7.1578,7.5734,7.9329,8.1892,8.3678,8.574,8.6735,8.6798,8.6208,8.5618,8.5112,8.5112,8.4775,8.4326,8.4888,8.5112,8.5112,8.5112,8.5112,8.5112,6.4548,6.492,6.5231,6.5231,6.535,6.5412,6.5412,6.5412,6.5412,6.5412,6.5412,6.5412,6.5412,6.5412,6.5557,6.5929,6.5971,6.5846,6.5541,6.5474,6.5412,6.5412,6.5412,6.5412,6.5412,6.5412,6.5412,6.5412,6.5412,6.5412,6.5412,6.5851,6.6302,6.6674,6.773,6.8372,6.8664,6.885,6.891,6.8786,6.8475,6.8307,6.8186,6.8186,6.8186,6.8186,6.8186,6.8186,6.8186,6.8186,6.8186,6.8186,6.8186,6.8186,6.8186,6.8186,6.8186,6.8186,6.8186,6.8186,6.8186,6.8186,6.8186,6.8186,6.8186,6.8364,6.9232,7.1421,7.2097,7.2965,7.5188,7.5585,7.5585,7.5585,7.5585,7.5425,7.4897,7.468,7.4529,7.4162,7.3886,7.368,7.3519,7.2555,7.1751,7.1269,7.0764,7.0259,6.973,6.9685,6.9639,6.9524,6.9524,6.9524,6.9524,6.9524,7.0843,7.3532,7.5958,7.8595,8.1382,8.3452,8.4827,8.5506,8.5365,8.5225,8.5112,8.5112,8.5028,8.4916,8.5056,8.5112,8.5112,8.5112,8.5112,8.5162,6.5039,6.5225,6.5412,6.5412,6.5412,6.5412,6.5412,6.5412,6.5412,6.5412,6.5412,6.5412,6.5412,6.5598,6.5929,6.6405,6.6033,6.5784,6.5743,6.5536,6.5412,6.5412,6.5412,6.5412,6.5412,6.5412,6.5412,6.5412,6.5412,6.5412,6.5412,6.566,6.5909,6.6178,6.6861,6.742,6.7854,6.8103,6.8291,6.8496,6.8289,6.8186,6.8186,6.8186,6.8186,6.8186,6.8186,6.8186,6.8186,6.8186,6.8186,6.8186,6.8186,6.8186,6.8186,6.8186,6.8186,6.8186,6.8186,6.8186,6.8186,6.8186,6.8186,6.8186,6.8186,6.864,6.9604,7.1501,7.2373,7.3333,7.5256,7.5585,7.5585,7.5585,7.5585,7.5493,7.5195,7.4965,7.4828,7.4828,7.4185,7.3519,7.3014,7.2256,7.159,7.1161,7.0373,6.9822,6.9524,6.9524,6.9524,6.9524,6.9524,6.9409,6.9179,6.9179,6.9623,7.0551,7.3896,7.6993,7.992,8.2208,8.3933,8.5084,8.4803,8.4663,8.4663,8.4663,8.4663,8.4691,8.5,8.5112,8.5084,8.4775,8.4494,8.4318,6.5412,6.5412,6.5412,6.5412,6.5412,6.5412,6.5412,6.5412,6.5412,6.5412,6.5412,6.5412,6.5412,6.5789,6.624,6.655,6.5929,6.566,6.5971,6.5619,6.5412,6.5412,6.5412,6.5412,6.5412,6.5412,6.5412,6.5412,6.5412,6.5412,6.5412,6.5495,6.5541,6.566,6.6116,6.6612,6.7047,6.744,6.7792,6.8061,6.8061,6.8059,6.7937,6.7937,6.7937,6.7937,6.7937,6.7937,6.7937,6.7937,6.7999,6.8061,6.8061,6.8123,6.8186,6.8186,6.8186,6.8186,6.8186,6.8186,6.8186,6.8186,6.8186,6.8186,6.8186,6.8954,7.0075,7.1326,7.2561,7.3816,7.5051,7.5449,7.5585,7.5585,7.5585,7.5585,7.5585,7.5195,7.5057,7.5425,7.4185,7.3152,7.2738,7.2072,7.1498,7.1161,7.0121,6.9524,6.9524,6.9524,6.9524,6.9524,6.9432,6.9202,6.8812,6.872,6.8399,6.7945,7.2345,7.5716,7.8121,8.0854,8.2986,8.4524,8.4197,8.4157,8.4354,8.4354,8.4354,8.4382,8.4803,8.4944,8.4888,8.4269,8.3707,8.3258,6.5412,6.5412,6.5412,6.5412,6.5412,6.5412,6.5412,6.5412,6.5412,6.5412,6.5412,6.5412,6.5412,6.5789,6.5971,6.5619,6.5846,6.5867,6.5536,6.5417,6.5412,6.5412,6.5412,6.5412,6.5412,6.5412,6.5412,6.5412,6.5412,6.5412,6.5412,6.5789,6.624,6.6612,6.7109,6.7565,6.7999,6.8061,6.7934,6.7624,6.7624,6.7358,6.6985,6.6985,6.6985,6.6985,6.6985,6.6985,6.6985,6.6985,6.7233,6.7624,6.7624,6.7854,6.8186,6.8186,6.8186,6.8186,6.8186,6.8186,6.8186,6.8186,6.8186,6.8186,6.8186,6.8343,6.8759,7.0016,7.1246,7.2489,7.3736,7.488,7.5585,7.5585,7.5585,7.5585,7.5585,7.5573,7.5356,7.4965,7.3955,7.3289,7.322,7.1981,7.1207,7.1085,7.0121,6.9524,6.9524,6.9524,6.9524,6.9524,6.9111,6.8858,6.8812,6.8353,6.7871,6.7439,7.0757,7.2924,7.4189,7.7612,8.0276,8.2259,8.3074,8.3988,8.5,8.5,8.5,8.4944,8.4494,8.4326,8.4241,8.3623,8.3342,8.3202,6.5412,6.5412,6.5412,6.5412,6.5412,6.5412,6.5412,6.5412,6.5412,6.5412,6.5412,6.5412,6.5412,6.5598,6.5743,6.5805,6.5479,6.535,6.5412,6.5163,6.5106,6.5412,6.5412,6.5412,6.5412,6.5412,6.5412,6.5412,6.5412,6.5412,6.5412,6.5619,6.5789,6.6053,6.624,6.6612,6.7047,6.7047,6.7047,6.7109,6.7109,6.6985,6.6799,6.6799,6.6799,6.6799,6.6799,6.6799,6.6799,6.6799,6.6923,6.7109,6.7109,6.742,6.7792,6.7792,6.7979,6.8186,6.8186,6.8186,6.8186,6.8186,6.8186,6.8186,6.8186,6.8186,6.8542,6.9721,7.1034,7.2293,7.3448,7.4766,7.5585,7.5585,7.5585,7.5585,7.5585,7.5333,7.4851,7.4037,7.3588,7.322,7.2945,7.2026,7.1361,7.1138,7.0373,6.9845,6.9547,6.9524,6.9386,6.9133,6.8904,6.8537,6.7963,6.771,6.7343,6.6911,7.0495,7.2641,7.3536,7.7365,8.0097,8.1859,8.2862,8.3764,8.4607,8.4607,8.4607,8.4578,8.4297,8.3764,8.3117,8.2836,8.2302,8.1684]}]]